GFSCGP_sfc_thetae_000.txt.gz
Theta_e
295 291 286 288 290 290 289 286 286 287 292 293 290 290 292 291 291 291 290 291 295 296 296 296 297 299 300 301 301 300 301 302 300 299 299 298 299 298 299 300 302 303 307 308
292 288 291 294 293 291 289 287 286 290 293 291 291 290 290 293 291 291 292 294 295 295 296 297 297 297 299 300 300 299 299 299 298 298 297 297 297 297 297 298 299 300 302 305
289 291 295 293 291 290 288 286 286 288 291 290 289 287 290 292 294 294 294 294 295 295 296 296 297 296 296 298 298 299 299 299 299 299 298 297 297 298 298 298 298 300 300 303
291 293 293 292 290 290 286 290 290 289 288 284 288 282 288 290 291 293 293 293 292 294 296 297 297 296 296 297 297 298 299 299 300 300 298 297 296 296 299 299 300 301 300 300
289 290 292 292 291 292 291 294 291 290 287 286 287 283 287 290 289 289 291 293 292 295 296 295 296 296 297 297 297 299 301 301 300 299 299 298 297 298 299 300 299 300 300 298
293 295 293 292 294 294 296 292 290 289 287 281 285 284 284 287 289 291 293 293 295 296 296 298 297 299 299 298 299 299 299 299 300 299 298 296 294 295 296 297 297 297 296 295
293 293 296 296 293 295 293 286 278 278 277 278 287 283 285 291 292 293 293 293 295 295 295 295 296 297 298 298 298 299 298 298 298 298 294 294 294 294 295 296 296 294 293 289
286 283 293 297 292 289 290 288 279 275 274 278 286 282 287 294 295 295 295 295 295 295 297 297 297 296 297 297 297 297 297 297 298 296 293 294 295 295 295 295 293 291 289 289
285 287 295 296 296 293 290 286 290 282 275 276 282 287 292 293 295 296 293 293 293 294 295 296 299 299 298 299 299 297 297 297 298 295 292 293 294 295 294 293 290 289 289 292
291 286 292 295 295 295 292 293 284 282 273 275 281 282 284 290 292 293 291 292 293 295 296 298 299 299 300 298 298 298 297 297 297 293 293 294 293 294 293 290 289 289 290 292
291 289 287 291 290 288 290 287 288 287 283 275 274 281 290 290 291 291 291 294 294 295 295 296 297 298 298 298 298 297 296 296 296 291 292 291 292 292 290 288 288 289 291 291
292 287 281 286 292 294 291 289 287 279 279 280 277 281 292 292 293 293 293 295 296 296 296 296 297 298 297 297 298 297 295 296 293 292 291 291 289 287 286 287 288 289 289 290
292 285 279 282 287 290 289 290 289 285 283 282 276 281 292 293 292 293 293 294 295 296 296 297 298 298 297 297 296 296 296 293 293 292 290 287 285 285 285 286 288 289 290 290
296 287 283 279 283 286 285 289 289 287 283 282 283 286 291 293 291 293 294 294 296 295 296 296 296 297 296 296 296 295 294 293 292 291 289 286 286 285 286 289 290 290 291 291
293 285 286 287 289 288 289 288 289 286 286 284 287 285 290 291 290 293 295 295 296 296 296 295 295 297 296 296 295 293 293 292 292 291 291 289 291 292 290 290 291 291 291 292
291 283 284 283 287 287 285 288 288 288 288 287 288 287 292 291 293 294 294 295 295 294 294 295 295 294 295 296 293 292 292 291 292 291 290 293 294 293 292 292 291 291 291 290
288 282 281 277 284 283 279 283 286 287 288 287 283 288 289 290 292 293 294 294 294 293 294 292 293 295 296 293 291 290 290 290 290 290 288 288 289 290 290 290 290 287 284 283
284 281 280 277 284 275 286 290 290 288 288 289 288 289 290 292 293 294 295 294 292 292 293 294 294 294 292 292 290 288 286 286 285 285 286 288 287 285 284 283 282 282 281 280
288 285 281 282 281 282 288 289 286 285 285 289 288 291 292 293 292 291 293 293 294 294 294 294 294 292 290 289 285 283 283 283 284 286 286 287 284 282 282 281 279 279 279 279
288 282 280 281 278 277 284 288 290 291 281 291 293 294 294 292 286 291 294 295 295 294 295 294 292 290 289 289 285 286 284 283 283 285 284 283 282 281 279 278 278 278 278 279
279 282 284 283 280 281 287 290 292 282 284 292 292 294 292 289 292 292 293 292 293 294 294 292 291 288 289 289 286 283 282 282 283 283 282 282 281 280 278 278 277 277 277 277
280 276 274 278 278 275 289 291 286 291 293 294 294 293 294 293 292 291 291 291 291 292 291 291 288 287 289 289 284 283 282 283 284 282 281 280 280 279 279 277 277 277 275 273
282 285 284 286 282 289 293 295 295 296 294 292 291 293 292 289 289 290 289 290 290 291 290 288 286 287 288 286 287 286 287 284 282 281 280 280 280 279 278 277 276 276 274 271
290 292 287 288 290 294 297 297 297 296 295 293 293 292 292 290 290 289 289 289 289 290 287 286 286 286 286 287 287 283 282 282 281 280 280 279 278 278 277 277 277 276 272 270
291 293 290 289 294 294 294 294 295 294 295 294 293 293 291 290 289 289 288 287 288 287 286 286 286 286 285 285 284 282 281 281 280 280 280 279 278 277 277 277 276 276 275 272
293 291 286 288 294 295 296 296 297 294 293 293 292 290 291 290 287 288 288 288 287 287 286 285 286 285 285 284 281 281 281 280 280 280 279 275 274 274 276 275 275 278 278 279

GFSCGP_sfc_thetae_003.txt.gz
Theta_e
299 296 293 294 295 294 293 292 292 294 296 297 295 296 297 298 299 298 299 300 301 303 304 305 306 308 310 313 316 317 316 316 314 311 311 311 310 310 311 311 311 311 312 314
297 293 295 296 295 294 294 292 291 294 296 297 296 296 297 298 298 299 301 301 303 303 304 304 306 309 311 313 314 311 309 308 308 309 309 309 308 309 308 309 310 311 311 311
294 294 297 296 294 294 293 292 291 292 295 296 294 295 296 298 299 300 301 302 302 304 304 304 305 308 308 308 307 306 307 309 309 308 309 309 309 309 308 307 307 309 310 310
294 296 296 295 294 294 291 294 294 293 293 291 294 289 295 295 296 298 300 302 303 304 304 305 305 306 306 307 309 310 309 308 308 308 306 305 303 302 305 305 306 306 308 309
293 295 295 295 294 296 294 296 294 294 293 292 293 291 293 295 295 296 299 300 302 302 303 303 304 306 306 308 308 308 308 307 307 305 305 305 305 305 305 304 304 305 306 307
296 299 297 296 297 298 298 295 293 293 292 288 290 289 290 294 294 296 299 301 301 302 302 303 305 306 306 307 307 307 307 307 308 306 304 304 304 304 304 304 303 303 303 303
295 296 299 298 296 299 297 291 287 287 287 286 290 289 291 296 296 297 298 299 301 303 303 303 303 304 305 306 306 306 306 306 307 306 303 304 305 305 303 302 302 301 300 301
290 288 296 299 296 293 294 292 287 280 282 285 289 286 291 297 299 299 299 299 300 301 303 303 303 304 305 305 306 305 305 305 306 306 302 303 305 303 301 301 301 299 298 299
290 290 298 299 299 297 294 291 293 286 279 284 287 291 295 297 298 299 297 299 300 301 302 303 304 304 305 305 305 305 304 304 305 305 302 303 302 301 300 300 298 297 298 299
294 289 295 297 299 298 296 296 289 289 281 279 286 287 290 293 295 296 296 298 300 302 303 304 305 305 305 305 305 305 305 303 304 304 301 300 300 299 298 296 296 296 298 298
295 292 291 294 293 292 294 292 291 291 288 283 280 286 295 295 296 297 298 299 300 302 303 304 304 304 304 304 304 304 304 303 303 300 299 299 298 295 294 295 295 296 297 296
296 291 287 290 295 297 295 292 291 286 283 287 284 285 296 298 298 298 298 299 301 302 303 303 303 304 304 304 303 303 303 302 299 299 299 298 295 293 293 294 295 296 296 295
296 290 284 285 291 294 293 293 291 289 288 285 283 286 296 296 297 299 299 299 301 302 302 303 303 302 303 302 302 302 301 299 298 298 298 295 294 293 293 295 296 297 296 296
298 290 287 283 286 290 288 290 291 291 287 286 287 289 294 296 296 298 297 299 300 301 301 301 302 301 300 300 300 298 298 298 297 297 296 296 294 294 294 295 296 296 295 294
297 290 289 290 291 290 290 290 290 289 290 286 289 290 294 296 296 297 299 300 299 300 300 299 298 298 298 298 298 297 297 296 297 296 295 294 295 295 293 292 292 294 294 294
294 288 289 286 289 288 286 289 290 290 291 290 291 290 297 297 297 298 298 298 298 299 297 296 296 295 296 298 296 295 294 295 295 292 290 290 291 292 292 292 292 291 290 288
292 289 286 283 286 286 283 287 289 290 292 291 287 292 294 294 296 297 298 298 295 294 294 294 295 295 296 297 294 293 293 293 292 289 290 291 292 290 288 288 287 287 286 286
286 286 285 284 285 279 290 293 293 291 292 292 291 293 294 296 298 298 297 295 293 293 292 294 295 296 298 296 294 292 291 290 289 289 291 292 289 287 287 287 286 285 285 284
292 287 284 282 283 285 290 292 290 289 289 293 293 295 296 298 298 295 295 295 293 292 294 295 297 298 297 294 293 289 288 288 288 289 290 288 287 286 285 284 284 284 283 283
289 286 287 284 281 279 288 291 294 294 286 295 296 296 296 296 288 294 292 294 294 295 295 296 298 297 294 294 292 288 288 289 288 288 287 287 286 285 284 284 283 283 283 282
283 284 283 284 282 285 291 292 294 285 287 294 296 296 295 292 291 292 294 293 295 295 294 296 297 294 293 294 293 289 286 286 289 288 287 286 285 284 284 283 283 282 282 281
285 283 281 281 280 279 292 292 290 294 295 296 296 295 293 292 292 292 293 293 293 293 293 294 294 292 293 293 289 287 288 291 292 288 286 285 285 284 283 283 283 282 282 281
285 289 287 287 287 293 294 296 298 297 295 294 293 293 292 290 289 292 292 292 293 292 292 294 292 291 292 293 289 290 291 291 288 286 286 285 285 284 283 282 282 281 281 280
291 293 290 289 294 294 297 298 298 296 296 294 295 293 292 291 291 291 291 291 291 291 291 292 291 291 291 292 290 290 290 287 286 285 285 285 284 283 284 282 282 280 280 279
294 294 291 290 295 296 296 298 299 295 296 294 295 294 293 292 291 291 291 290 290 290 290 291 290 290 291 291 289 288 286 286 285 284 284 284 283 282 282 282 281 280 281 279
295 294 290 290 296 296 296 298 298 294 293 293 291 291 292 291 290 290 289 289 289 289 290 289 289 290 290 289 286 286 285 284 284 283 283 283 282 282 281 280 280 280 278 278

GFSCGP_sfc_thetae_006.txt.gz
Theta_e
306 303 299 300 301 300 298 297 296 298 302 302 301 301 302 306 307 307 307 307 309 313 314 315 315 317 320 326 326 324 323 319 320 319 316 316 316 317 318 317 318 318 317 317
303 298 300 302 301 298 298 296 296 299 301 302 301 301 303 305 305 307 308 308 310 311 312 313 316 318 319 321 320 317 315 316 316 317 317 317 316 316 316 316 316 316 314 313
299 299 300 300 301 299 298 296 297 297 300 302 301 300 300 303 306 307 308 309 310 310 310 311 313 315 316 315 316 315 315 315 315 315 315 316 317 315 314 313 312 311 312 311
300 301 301 300 299 300 296 299 299 298 298 296 301 294 299 301 302 304 306 308 308 309 310 310 311 313 314 316 316 315 315 314 313 314 313 313 311 309 310 311 311 310 310 310
297 300 300 299 298 301 298 301 299 299 298 298 298 296 298 302 299 301 304 306 308 309 310 310 311 312 313 315 315 315 314 314 313 312 313 312 310 310 310 310 308 308 308 309
301 304 303 302 302 301 303 299 300 300 300 293 295 295 296 300 298 301 304 306 308 309 309 310 311 312 312 314 315 314 313 312 313 313 311 310 310 310 308 307 305 305 306 306
299 300 304 304 300 303 303 298 294 291 292 291 295 294 296 299 302 303 304 306 308 310 310 309 309 310 312 312 312 311 311 310 311 311 309 309 309 309 307 306 304 303 303 304
295 293 301 304 301 298 299 298 293 283 288 290 295 291 296 302 304 304 305 306 307 307 309 309 309 310 311 311 312 312 310 309 309 308 308 308 309 309 306 305 304 302 303 304
295 294 302 302 303 302 298 296 298 291 286 290 294 296 300 302 302 303 303 304 305 306 307 308 309 310 311 311 309 311 310 309 309 309 310 309 309 306 304 303 303 302 303 303
298 293 298 300 303 303 301 301 294 295 285 281 289 291 293 298 300 301 302 303 305 307 308 309 309 309 309 311 312 312 312 310 310 309 308 307 305 304 302 302 301 302 302 303
299 296 295 299 298 297 299 297 296 295 293 286 284 289 300 299 300 300 303 304 305 307 307 308 309 310 310 311 311 310 310 309 308 307 306 304 303 301 301 301 300 301 301 300
301 298 292 293 299 301 300 297 296 291 285 291 289 289 301 302 302 302 303 304 306 307 308 308 309 309 309 309 309 308 307 306 304 303 302 302 301 301 300 300 300 299 299 299
301 296 289 291 296 299 297 297 297 295 293 288 286 290 300 302 302 303 303 304 305 306 306 307 308 308 307 306 304 302 302 303 302 301 301 300 300 300 299 298 298 298 297 296
302 297 292 287 290 294 291 293 295 295 289 289 291 293 297 299 300 301 302 304 305 305 305 306 306 306 303 301 301 302 302 302 301 301 300 299 299 298 298 296 297 296 296 295
302 292 295 295 295 295 294 293 294 292 294 289 292 293 296 299 299 301 303 304 303 303 303 303 303 301 301 301 302 302 301 300 301 300 298 296 296 296 296 295 294 294 293 292
300 293 293 290 294 294 292 294 294 294 295 294 294 293 299 300 302 301 301 301 301 301 301 300 297 297 298 299 301 300 298 299 300 298 295 295 295 295 293 293 292 291 291 290
297 295 291 288 291 291 287 292 293 294 296 295 291 296 299 299 300 301 301 301 299 298 298 295 296 298 299 300 301 298 298 298 298 296 294 294 295 292 291 291 290 289 289 290
293 294 290 287 288 283 292 298 297 295 296 297 297 297 299 300 301 303 301 298 295 294 295 296 297 298 299 302 300 299 298 297 296 295 294 294 292 290 290 289 289 289 289 288
299 295 288 285 285 290 292 295 294 292 293 298 297 299 300 301 301 299 296 295 297 297 298 298 298 299 300 301 299 298 297 296 294 293 293 292 291 290 288 288 288 289 288 288
295 295 294 287 283 282 292 296 298 298 289 299 299 298 297 299 292 292 298 296 296 298 298 297 297 299 300 300 298 298 296 295 293 293 293 292 291 289 288 288 288 289 288 287
288 287 286 287 285 289 297 297 298 287 291 300 296 296 296 293 294 296 296 296 297 297 297 297 296 296 298 299 299 296 295 292 293 293 293 292 291 288 289 289 289 288 287 286
290 290 287 287 283 282 297 297 291 298 299 297 297 298 297 297 296 296 295 295 295 295 295 295 294 295 296 298 297 296 292 293 294 294 293 291 290 288 288 288 288 288 287 284
290 294 292 291 293 300 302 299 301 299 297 299 297 298 297 295 294 293 293 294 294 295 294 294 294 294 295 296 297 294 293 293 293 292 291 290 289 288 289 288 287 286 285 282
297 299 294 294 297 299 302 303 303 301 298 297 297 297 295 293 293 293 293 293 293 293 292 293 292 292 292 295 296 294 294 293 291 290 289 289 289 288 288 288 286 285 283 281
299 299 295 295 299 300 300 301 300 299 297 296 297 295 293 292 292 292 291 292 291 292 292 292 291 291 291 293 293 293 291 290 289 288 288 288 288 288 287 286 285 284 283 281
301 298 293 291 298 299 297 298 300 298 296 295 293 292 293 293 292 291 290 291 291 291 292 291 291 291 291 291 291 290 289 288 287 285 287 288 287 287 286 285 284 280 279 278

GFSCGP_sfc_thetae_009.txt.gz
Theta_e
309 305 303 303 303 302 301 299 298 302 304 303 303 303 305 308 309 309 310 310 311 313 321 323 321 321 324 327 327 328 325 323 322 321 319 317 317 318 319 319 319 319 318 316
304 301 303 304 304 302 301 299 299 301 303 303 303 303 305 307 308 310 310 311 313 314 315 316 319 320 323 325 324 322 320 318 319 319 318 319 318 318 318 318 318 317 316 315
302 302 304 303 303 301 301 300 300 299 303 304 303 301 302 306 308 309 310 311 312 312 312 314 316 318 320 319 319 318 318 317 317 318 317 317 317 317 315 315 314 315 314 312
302 305 303 302 301 303 299 302 301 300 299 297 304 296 301 304 304 306 308 310 310 311 312 313 315 316 318 318 318 318 317 316 316 317 315 315 312 311 313 313 313 312 312 310
300 302 302 301 301 303 301 304 302 302 300 300 300 296 300 304 302 304 307 308 310 311 313 313 314 315 316 317 317 318 316 315 315 315 314 313 313 313 314 313 311 311 310 310
303 307 306 304 304 304 306 303 303 303 301 294 299 297 299 301 302 303 306 308 310 311 312 313 314 315 315 317 317 317 315 314 314 314 314 314 312 309 309 308 307 307 307 306
302 302 306 306 303 306 305 301 295 293 293 292 299 295 299 302 304 306 306 308 310 312 312 311 312 313 314 314 314 315 314 314 315 314 312 311 310 310 309 307 306 304 303 304
297 295 302 305 303 300 300 301 295 286 289 292 298 292 298 305 306 307 307 308 309 310 311 311 311 313 313 313 315 315 314 313 313 313 312 313 311 310 308 306 304 302 303 304
297 296 304 304 306 304 300 297 301 294 292 292 295 298 303 304 304 305 305 307 307 309 309 310 311 312 312 313 314 314 314 313 313 313 312 311 309 307 305 304 303 302 303 303
300 296 300 302 305 305 303 303 296 297 286 283 291 292 295 300 301 304 304 305 307 309 309 310 311 312 313 313 314 314 314 312 312 311 309 307 306 305 304 303 302 302 302 302
301 298 298 300 300 299 301 300 298 297 294 287 285 290 301 300 302 302 304 305 307 308 309 310 310 310 312 313 313 312 311 309 308 308 306 305 304 303 302 302 302 301 300 300
302 299 294 295 302 304 302 299 298 292 288 292 290 290 303 303 303 303 304 305 307 308 308 308 309 309 309 309 309 309 308 306 306 305 304 303 303 302 301 301 299 300 299 300
303 299 292 294 299 302 298 299 298 296 295 290 289 291 303 303 303 304 304 305 306 306 306 307 309 308 307 307 307 306 306 305 304 303 302 301 301 300 300 299 298 298 297 297
303 299 293 290 293 296 293 295 297 296 291 291 292 294 299 300 301 302 303 305 305 305 305 305 305 305 305 305 303 303 303 304 303 302 300 300 299 298 297 297 296 295 295 294
303 294 296 297 297 296 295 295 295 294 294 291 294 294 298 300 301 302 304 304 303 303 303 303 303 303 302 301 301 302 303 303 302 301 300 298 298 298 296 295 295 294 293 292
302 295 296 292 296 295 293 295 296 296 296 296 296 295 302 303 303 303 302 302 302 302 302 301 301 300 299 300 300 301 302 301 301 300 298 298 297 296 295 294 293 292 291 291
299 297 293 289 295 293 289 295 295 295 297 297 292 297 301 301 301 299 300 302 301 300 299 300 299 299 300 300 301 301 301 301 300 299 298 297 296 295 293 292 291 290 290 291
299 296 293 289 289 284 296 300 299 296 298 299 299 299 301 300 301 301 302 301 299 298 299 299 299 299 299 300 300 301 301 300 299 298 296 296 295 294 292 291 290 290 290 290
303 299 291 287 287 292 295 297 296 294 294 300 299 301 301 302 302 299 301 301 299 299 300 300 299 298 298 298 299 299 299 298 297 296 295 294 294 292 291 290 290 290 289 289
299 300 295 290 284 283 294 299 301 300 290 301 301 300 298 299 293 296 300 300 299 300 299 298 298 298 297 297 298 297 296 296 296 295 294 294 293 292 290 290 289 290 289 288
290 290 289 288 286 291 298 299 302 288 292 302 301 299 299 295 297 299 299 299 298 297 297 298 297 296 296 296 296 295 295 294 295 295 294 294 294 292 291 290 290 289 289 288
291 290 286 289 285 283 300 299 293 300 303 302 299 299 298 299 298 298 296 296 296 296 296 296 294 294 295 295 294 293 292 295 295 295 294 293 293 291 290 290 289 289 288 287
292 296 294 294 294 302 303 302 305 304 301 300 298 298 299 297 296 295 295 295 295 295 294 294 293 293 294 294 293 291 294 296 295 293 293 292 291 290 290 289 288 287 287 285
299 302 298 296 299 300 301 304 304 303 301 299 298 300 298 295 295 294 294 294 293 293 292 293 292 292 292 293 293 293 294 293 293 291 290 290 289 288 289 289 288 286 285 283
301 301 298 298 301 301 303 302 302 301 301 300 300 298 296 295 294 294 293 292 292 292 292 293 292 292 292 293 292 293 293 291 289 289 288 288 289 288 288 287 287 286 285 282
302 300 297 295 301 300 300 302 302 301 299 298 296 295 296 295 294 293 292 292 292 292 292 292 292 292 292 292 291 291 291 290 288 287 287 288 288 288 287 286 285 281 280 279

GFSCGP_sfc_thetae_012.txt.gz
Theta_e
308 303 300 302 303 302 301 299 298 302 304 301 301 302 305 308 309 310 312 312 312 316 320 320 322 323 326 328 325 324 323 323 322 321 319 317 316 318 318 318 318 317 316 315
303 300 303 305 304 302 301 299 299 302 303 301 303 301 305 306 307 309 309 310 313 313 314 317 320 322 322 322 322 320 319 318 318 317 317 317 317 316 316 318 316 316 315 313
301 302 304 303 303 301 301 299 300 299 302 304 301 300 301 305 307 308 310 311 312 311 312 314 316 318 319 319 318 317 316 316 316 317 316 315 315 314 313 312 312 313 313 312
303 305 303 302 301 302 298 303 301 299 298 294 302 292 299 302 303 306 307 309 309 310 312 313 315 316 316 317 318 317 317 316 316 316 314 312 311 310 312 314 312 311 311 310
301 302 302 301 301 303 300 304 301 301 298 298 299 295 299 302 300 303 306 308 309 311 312 312 313 314 316 317 317 317 317 315 316 315 314 312 313 311 310 310 309 308 308 307
303 307 305 304 304 304 306 303 303 302 300 294 297 297 295 299 301 303 306 308 310 311 312 312 314 315 315 318 318 317 315 314 315 315 314 311 309 309 308 307 305 303 303 303
302 302 306 306 303 306 304 301 295 293 294 292 299 295 298 303 304 305 306 307 310 311 312 312 312 312 314 315 316 316 315 313 314 313 312 312 310 309 306 304 302 301 300 301
297 294 302 305 302 299 301 299 295 286 288 291 298 291 296 304 306 307 307 308 309 310 311 311 313 312 313 314 315 315 314 312 312 313 312 311 309 306 305 303 301 300 300 300
297 296 304 304 305 303 300 296 300 295 293 291 292 298 302 304 303 305 305 306 307 309 311 311 313 313 313 313 313 313 313 312 311 310 309 308 306 305 303 302 301 300 301 300
299 296 300 302 305 305 302 302 295 298 287 284 289 292 293 299 301 303 303 304 306 308 308 310 310 311 312 312 313 313 310 309 308 308 306 305 304 304 302 301 300 299 299 299
302 299 297 301 299 297 299 298 298 296 294 287 285 289 300 299 302 301 303 305 306 307 307 308 309 310 310 311 311 309 307 306 306 305 305 304 303 302 302 300 299 298 298 298
301 299 296 296 301 303 301 298 298 293 289 294 291 289 303 302 303 304 303 304 306 307 307 307 308 308 307 307 308 307 306 305 305 304 303 301 302 300 299 298 297 297 296 297
302 299 293 293 299 301 297 299 298 297 295 289 287 289 303 303 303 304 303 304 305 306 306 306 306 306 305 305 306 304 304 303 303 302 301 300 299 298 297 296 296 296 295 295
304 298 294 290 292 296 293 295 297 295 291 291 291 293 297 300 301 302 303 304 304 304 304 305 305 304 303 302 301 302 302 304 303 301 300 299 298 297 296 296 295 294 294 292
303 295 297 296 296 296 295 294 295 293 294 289 292 293 297 300 301 301 302 303 303 303 303 302 302 302 301 300 301 301 301 303 303 300 299 298 298 297 296 295 294 293 292 291
303 297 296 293 296 295 292 294 294 295 295 295 295 294 301 303 303 301 301 301 301 301 300 300 301 300 299 300 300 300 300 301 302 299 298 299 298 296 295 295 294 292 291 290
300 299 294 290 293 293 290 295 295 296 297 296 292 297 301 300 300 300 301 301 299 299 299 299 299 299 299 298 297 297 298 301 300 299 299 298 296 295 295 294 292 290 289 289
298 296 293 288 289 284 295 300 299 296 297 298 298 300 301 300 301 302 301 299 298 298 298 298 299 298 298 297 297 297 296 296 296 297 297 297 295 295 294 292 291 289 288 288
303 298 288 287 286 291 294 297 295 294 293 299 299 300 300 300 300 298 300 300 298 298 299 297 297 297 297 296 296 295 294 294 294 294 296 295 294 293 293 291 289 288 287 287
300 301 296 287 284 282 295 299 301 300 289 302 301 299 298 298 291 294 299 299 298 297 297 296 296 296 295 295 294 293 292 292 292 294 295 294 294 293 291 290 289 288 287 287
289 291 288 288 285 290 298 300 302 288 291 302 301 299 298 295 296 298 299 297 296 296 296 296 295 293 294 294 293 292 291 291 293 295 294 293 292 292 291 290 288 287 286 285
288 288 286 289 285 283 301 299 293 300 304 302 301 299 297 297 299 297 296 295 295 294 294 294 292 292 293 293 292 291 290 292 294 293 293 293 292 292 291 288 287 287 284 283
293 297 295 294 293 302 305 301 304 304 301 300 300 299 298 298 296 295 294 294 294 293 292 293 292 292 293 293 293 291 292 293 292 291 291 290 291 290 289 286 285 284 283 281
299 302 299 298 299 300 302 304 305 304 302 301 300 300 300 295 295 294 294 293 292 292 291 292 291 291 291 293 293 292 292 292 290 289 289 289 287 287 287 287 285 283 282 280
300 301 299 298 301 302 303 303 302 301 302 301 301 299 296 295 294 293 292 292 292 292 292 292 291 291 291 292 292 292 290 290 288 288 287 286 286 286 286 285 283 282 281 279
301 298 296 295 302 302 301 302 302 300 300 300 296 295 296 295 292 292 291 292 291 291 291 291 291 291 291 291 291 291 290 289 287 285 285 285 285 285 284 284 283 282 281 280

GFSCGP_sfc_thetae_015.txt.gz
Theta_e
303 297 292 295 297 298 297 294 293 293 299 297 295 294 298 301 301 300 302 307 308 310 314 316 316 317 318 317 317 316 316 312 312 311 309 309 308 310 310 310 312 310 309 310
298 293 299 302 301 299 297 295 294 296 300 295 294 293 298 301 301 302 305 305 307 309 311 313 313 313 313 311 312 311 310 311 310 309 309 310 310 309 310 310 310 310 309 307
295 298 303 301 299 298 297 295 295 295 297 296 294 293 296 301 303 305 304 305 307 307 308 310 311 309 308 308 308 309 309 309 310 309 309 308 307 307 307 308 308 309 307 305
298 303 302 300 299 298 295 301 299 297 293 287 294 285 293 298 299 302 303 303 303 306 309 310 309 308 308 308 308 308 309 309 310 309 307 305 305 305 307 305 305 304 303 303
297 299 299 298 298 300 298 302 298 297 293 291 292 289 291 299 297 299 300 303 303 304 305 307 307 308 309 308 307 307 308 309 309 308 307 306 304 304 305 304 301 301 301 301
299 303 301 299 302 301 302 300 299 297 294 284 293 291 292 295 298 299 302 304 304 303 305 306 308 309 308 308 307 308 308 308 309 310 308 305 303 303 301 300 298 298 299 299
299 299 301 303 299 302 299 295 284 284 282 283 297 292 293 299 301 302 302 302 303 304 303 304 305 306 307 307 307 307 308 308 308 307 306 304 303 301 299 297 296 296 296 296
292 289 298 302 299 295 297 295 283 281 280 283 292 289 291 300 302 303 303 303 304 304 304 304 305 304 305 308 306 306 307 307 306 305 304 303 302 301 299 297 297 296 296 295
293 293 300 301 301 299 297 290 295 289 285 281 288 293 298 300 301 302 301 302 303 303 303 304 305 305 306 306 306 305 305 305 304 303 302 301 301 299 297 297 296 295 295 296
297 291 298 300 301 302 297 298 288 287 279 279 285 289 290 296 299 301 299 299 301 301 303 303 304 303 304 304 304 303 303 302 302 302 301 301 300 299 297 296 294 294 294 294
297 295 293 298 295 293 295 293 294 292 286 279 277 283 294 297 300 298 299 300 300 300 301 302 303 303 302 303 303 302 301 301 300 299 299 297 297 297 296 295 294 293 293 293
297 294 284 293 298 300 297 295 295 282 284 283 281 283 297 298 299 299 299 301 301 301 300 301 301 301 300 300 301 300 299 299 299 299 298 297 296 295 293 293 293 292 292 293
298 291 283 289 295 298 293 296 296 294 286 283 276 281 299 302 301 302 299 299 299 300 300 300 300 299 299 298 298 297 298 298 298 298 297 296 295 295 292 292 292 292 292 290
301 295 288 283 288 291 289 292 293 292 281 283 284 289 294 297 297 297 298 298 298 299 299 298 298 298 297 297 296 297 297 297 298 297 296 296 296 296 294 292 291 292 291 288
298 290 292 293 293 293 292 291 291 289 289 283 286 290 295 295 296 297 299 299 299 298 298 297 296 295 295 295 296 296 295 296 298 298 296 296 296 295 293 295 294 293 291 288
299 287 287 286 294 292 289 292 292 291 292 291 291 290 298 298 298 297 298 298 296 296 296 296 297 296 296 295 293 293 293 295 297 296 296 296 295 295 295 294 294 292 288 287
295 287 283 282 289 287 281 289 292 293 294 292 285 292 297 295 296 295 295 296 295 295 295 295 295 296 294 292 293 291 291 292 291 291 295 295 295 294 293 295 294 289 285 285
290 287 284 278 280 273 291 297 296 293 294 295 296 296 296 295 295 296 296 294 294 294 295 295 295 292 292 291 290 290 290 290 290 291 293 293 293 292 293 293 291 286 286 285
299 287 279 279 278 284 292 295 292 290 289 298 296 296 296 297 296 293 296 294 293 294 295 293 291 291 289 289 289 289 289 288 289 291 291 291 292 291 291 291 287 287 286 283
297 290 282 278 273 271 287 296 299 297 282 298 297 295 294 294 283 289 294 295 294 292 291 290 290 289 288 288 289 288 287 287 289 291 292 292 291 290 289 288 288 286 284 284
281 282 277 283 272 281 294 298 299 282 284 297 297 295 294 290 291 294 295 292 292 291 290 290 289 287 287 288 289 287 287 287 290 291 291 290 291 290 290 289 287 284 281 282
282 279 281 284 280 276 298 296 287 292 298 298 296 295 295 295 296 297 292 292 291 289 288 289 287 287 288 289 288 287 287 289 290 289 289 288 288 288 289 285 283 281 280 279
285 288 285 286 284 294 298 296 299 299 297 296 296 298 296 295 296 293 291 291 290 287 287 288 287 287 288 288 289 287 288 289 288 287 286 286 287 287 286 282 280 280 279 276
294 298 287 289 295 297 297 301 301 300 298 298 300 300 299 296 292 291 289 288 288 287 286 287 287 287 287 288 289 288 288 288 287 285 285 284 284 284 283 282 281 279 275 274
292 296 293 289 296 297 299 299 298 298 300 300 299 300 294 292 290 289 288 287 287 286 287 287 286 287 287 288 288 288 287 287 285 285 284 282 282 281 282 281 279 279 277 276
297 293 288 286 296 296 296 298 300 300 299 300 299 294 293 291 288 288 287 287 286 286 287 287 288 288 288 288 288 289 289 286 284 282 281 280 279 278 280 280 279 282 281 281

GFSCGP_sfc_thetae_018.txt.gz
Theta_e
301 295 291 293 295 296 296 292 291 291 296 295 293 293 296 299 302 303 305 307 307 307 310 311 312 312 312 313 313 314 314 313 313 309 307 308 307 307 307 308 308 308 307 306
296 292 297 299 300 298 297 293 292 295 298 294 293 293 296 300 300 304 305 305 306 307 307 309 309 310 311 311 312 309 308 308 308 308 309 309 307 307 308 309 307 306 304 303
293 296 301 300 297 297 295 293 292 293 295 294 295 292 295 299 301 303 303 305 307 306 306 307 308 307 305 305 306 307 307 308 308 308 307 307 307 306 305 304 302 302 303 303
296 301 300 298 296 296 293 298 297 295 291 285 291 283 291 296 298 300 302 303 305 307 307 307 306 305 305 304 305 306 307 307 307 307 305 305 304 303 303 301 299 299 300 300
295 297 297 296 296 298 296 299 296 295 290 289 290 286 289 297 295 297 299 302 303 304 306 305 307 306 306 305 305 305 306 307 307 306 305 305 301 301 301 299 298 298 299 299
297 300 298 297 300 299 300 298 297 295 291 283 291 289 288 291 295 298 300 301 302 302 303 305 306 307 306 305 305 304 306 306 307 306 304 302 301 300 298 296 296 298 298 297
297 297 299 301 297 300 297 293 283 283 281 282 295 290 290 297 300 301 300 300 301 302 302 303 305 304 304 304 304 305 305 305 306 304 302 301 299 297 297 298 298 297 296 295
290 288 296 300 296 293 295 292 282 281 279 282 291 287 290 298 303 303 302 302 302 301 301 302 302 302 303 304 303 304 303 302 302 303 301 300 299 300 300 299 297 296 294 293
291 291 298 298 298 298 295 288 294 286 283 280 286 290 295 299 299 301 302 303 300 300 300 302 302 302 302 302 302 303 302 301 301 300 299 299 300 300 299 297 295 294 293 295
295 288 296 298 300 299 294 296 288 285 278 279 283 287 288 294 297 297 297 297 298 300 300 300 301 301 301 301 300 300 300 300 300 299 298 298 298 298 295 294 293 293 292 293
296 292 291 297 293 291 293 291 291 290 284 279 276 282 292 296 298 295 296 297 297 298 299 300 300 300 299 299 298 298 297 298 298 297 297 296 295 296 295 293 293 292 292 293
296 291 283 291 296 297 294 293 291 281 283 281 279 282 295 296 296 298 298 299 298 299 300 299 299 298 297 296 296 295 296 296 297 298 297 295 295 293 293 293 293 293 293 294
295 289 282 287 293 295 291 294 295 290 284 282 275 280 296 297 297 298 296 297 297 297 297 297 297 296 296 296 295 295 295 295 295 296 295 295 294 293 292 292 292 293 292 291
299 292 287 283 287 289 286 290 292 289 280 282 282 286 291 294 294 295 295 296 295 295 296 295 295 295 294 295 294 294 293 293 296 296 294 294 294 294 292 290 293 294 292 292
296 288 290 290 291 291 289 289 289 288 288 283 286 288 291 293 294 295 296 296 295 295 295 295 295 294 293 293 292 291 291 293 294 293 292 293 293 293 293 293 292 293 293 292
297 285 286 286 291 291 287 290 290 289 290 289 289 289 295 295 295 295 295 294 294 295 295 295 295 294 294 292 289 290 290 290 291 289 293 294 294 293 293 292 292 291 292 288
292 285 281 280 286 286 280 288 290 290 291 290 285 290 294 293 294 293 293 294 293 293 293 293 293 293 290 289 289 288 289 289 289 291 292 292 292 292 291 292 292 291 289 286
288 285 280 276 277 272 289 294 294 291 293 294 293 293 294 293 293 293 293 292 292 293 293 293 291 289 288 288 287 288 288 288 289 290 290 290 290 290 290 290 290 289 286 286
294 283 279 274 277 281 289 293 291 289 288 295 294 294 294 294 292 290 294 293 292 292 291 290 288 288 287 287 287 287 287 286 289 289 289 290 290 289 289 287 286 287 285 282
293 286 280 280 272 270 283 294 297 295 282 296 295 294 293 292 283 287 293 293 292 290 289 287 287 287 286 286 287 286 285 287 288 289 289 289 290 289 288 287 286 285 282 283
281 278 276 271 271 280 289 295 296 282 283 296 295 294 293 289 289 293 295 291 290 289 288 287 286 286 286 286 287 286 286 286 288 289 288 288 288 287 288 287 286 281 282 281
282 279 278 278 271 275 294 294 287 290 295 296 294 294 293 294 295 297 294 290 289 286 286 287 286 286 286 287 287 285 285 287 288 287 286 286 285 285 285 281 280 281 279 278
284 286 283 285 284 292 295 295 295 298 296 295 294 296 296 294 294 294 290 288 287 286 285 286 285 286 286 287 287 286 286 287 287 285 284 284 284 284 283 280 279 278 278 274
292 295 286 288 293 294 296 297 299 298 296 297 297 297 298 296 293 288 287 286 285 285 284 285 285 285 285 287 288 287 287 287 285 284 283 283 282 282 282 280 280 278 273 272
290 294 291 287 293 295 297 297 297 297 297 298 300 299 297 291 287 287 286 285 285 284 285 285 285 285 286 287 286 287 287 286 284 283 283 281 280 280 280 279 279 278 277 276
295 292 287 287 293 294 295 296 298 297 298 299 299 293 289 288 286 286 285 285 285 284 285 285 286 286 286 286 286 286 286 285 284 282 281 279 278 277 279 280 279 282 281 281

GFSCGP_sfc_thetae_021.txt.gz
Theta_e
299 294 290 291 292 293 292 290 288 289 294 293 291 292 294 298 302 302 302 304 304 305 308 310 311 313 313 314 317 319 318 314 309 309 307 306 305 307 308 308 307 305 305 304
295 291 295 299 298 296 294 291 289 292 296 293 293 291 296 300 300 303 303 302 303 304 307 309 309 310 312 314 312 307 307 307 307 307 308 311 312 311 309 305 304 304 302 302
292 294 299 298 296 295 294 291 290 291 292 294 293 291 293 298 300 303 303 304 304 304 304 307 308 307 305 304 304 305 306 306 308 310 309 307 307 306 302 300 298 300 301 300
295 300 298 296 294 294 291 296 295 293 289 286 290 282 290 294 296 299 301 301 302 304 306 306 304 302 303 303 303 304 305 305 306 305 304 304 303 302 301 298 297 297 298 298
294 295 296 294 294 296 294 297 294 293 288 287 288 285 287 295 293 296 298 301 304 304 304 303 303 304 303 303 302 303 304 305 305 304 304 304 301 300 298 297 296 298 299 298
296 298 297 295 298 297 298 296 295 293 289 282 289 286 286 289 294 296 299 302 304 303 302 303 305 305 303 302 302 302 304 304 304 303 302 301 299 298 296 297 298 299 299 298
295 295 297 299 295 297 296 291 282 281 281 281 291 288 288 295 297 298 299 300 301 300 301 303 304 304 304 302 302 302 303 303 303 301 300 299 298 297 297 296 296 295 295 293
288 286 294 298 294 292 292 291 282 282 279 281 290 284 289 296 300 301 300 299 299 298 301 302 302 301 301 301 300 300 300 300 301 300 299 299 298 297 297 296 295 294 293 292
289 289 296 296 297 296 292 287 292 284 282 279 284 288 295 297 298 299 299 299 298 299 299 299 300 300 300 299 299 299 299 299 299 299 298 298 298 297 296 295 293 293 292 293
294 287 294 296 298 297 293 295 286 283 278 278 282 284 286 292 295 297 296 296 296 297 297 298 298 300 300 300 299 298 298 298 299 298 297 297 296 297 296 294 293 292 292 292
295 289 289 295 291 290 291 289 289 288 283 278 275 282 290 294 296 294 294 296 296 296 296 297 298 299 298 297 297 295 295 295 296 296 295 295 294 294 294 293 292 291 291 294
294 289 283 289 295 296 293 291 289 280 282 280 278 281 292 296 295 296 296 296 296 296 297 298 298 298 297 295 294 294 293 293 294 294 294 294 293 293 292 292 291 291 291 291
293 288 281 286 291 293 290 292 291 287 283 281 275 280 294 296 294 296 294 295 295 295 294 295 295 295 294 294 295 292 291 292 294 293 291 291 292 292 291 291 291 291 290 290
297 290 285 282 285 288 285 288 290 288 280 281 281 283 289 292 292 293 294 294 293 294 294 293 293 293 293 294 292 290 290 291 292 290 291 291 292 292 291 290 289 290 290 291
294 286 288 288 289 289 287 287 288 287 286 282 284 286 289 292 292 293 294 294 293 293 293 294 293 294 293 291 289 289 289 289 290 290 291 291 292 292 291 291 291 290 292 293
294 284 285 285 289 289 285 287 287 287 287 288 287 287 293 294 294 293 293 293 292 293 294 294 293 292 291 288 287 288 288 288 288 290 291 292 292 292 291 291 290 290 291 289
289 284 281 278 284 284 278 285 289 289 289 289 284 289 293 292 293 293 292 293 292 293 292 292 292 291 288 287 287 286 287 288 287 290 290 291 290 289 289 290 289 288 288 288
287 282 278 275 277 271 285 291 292 290 290 292 291 292 293 292 292 293 293 292 292 292 292 291 289 288 287 286 286 286 286 286 287 289 289 289 289 288 288 288 287 285 285 283
292 282 278 274 275 281 286 291 289 288 287 293 292 292 292 292 291 289 293 292 291 292 290 288 287 287 286 285 286 285 285 285 288 288 288 288 288 288 288 286 286 284 284 281
289 284 279 277 271 270 282 291 295 292 282 294 293 292 291 290 283 288 292 293 293 290 287 286 286 286 285 285 285 285 285 286 286 287 288 287 287 286 286 286 285 285 282 282
280 276 275 269 271 279 287 294 294 282 282 294 295 294 292 289 290 292 293 292 290 287 287 286 285 285 285 285 286 285 285 285 287 287 287 286 285 284 284 284 283 281 281 280
282 281 277 278 272 276 292 292 287 290 291 296 295 294 294 293 294 295 292 289 287 286 285 285 285 284 285 286 286 285 284 286 287 286 285 284 284 283 283 280 280 280 279 278
283 285 283 284 284 291 293 292 294 295 295 295 294 295 295 295 294 295 288 287 286 284 284 285 284 284 285 285 286 284 285 286 285 285 284 283 283 282 281 279 278 278 277 274
290 292 285 286 291 292 293 295 296 296 295 295 296 296 296 294 295 289 286 285 284 283 283 284 284 284 284 285 286 285 286 286 284 284 283 282 282 281 281 280 280 278 274 272
289 292 289 286 291 293 296 296 297 297 296 297 298 298 297 296 287 287 285 284 284 283 284 284 284 284 284 285 285 285 285 285 283 284 284 282 281 280 279 279 279 279 278 276
292 291 285 286 292 293 293 296 297 296 295 297 297 294 291 288 286 285 283 284 284 283 284 283 284 284 284 284 283 284 285 284 284 283 283 282 280 279 279 279 279 282 281 281

GFSCGP_sfc_thetae_024.txt.gz
Theta_e
297 293 289 290 292 292 291 288 286 287 291 293 292 292 295 299 300 300 300 301 302 304 306 311 313 315 317 319 321 321 321 319 310 309 308 306 304 306 310 305 304 305 303 301
294 290 294 298 296 294 292 289 288 290 293 293 292 291 294 298 299 299 300 301 302 304 306 308 310 312 315 316 316 314 313 312 308 309 308 308 308 308 305 302 300 300 299 299
291 293 298 296 294 294 292 290 288 289 292 292 292 290 292 297 300 301 301 301 303 305 306 307 309 308 306 304 304 305 306 306 307 308 306 304 304 303 299 297 296 297 299 299
295 297 296 294 293 293 289 294 293 291 288 285 289 283 289 293 296 298 300 299 301 303 305 304 302 302 301 301 302 302 304 304 305 304 303 302 301 300 298 296 296 296 298 298
292 293 293 293 292 295 293 296 293 291 288 286 287 285 286 294 293 296 298 300 300 302 301 301 301 301 300 301 300 301 304 304 303 303 303 301 298 297 296 295 296 298 299 299
294 296 295 293 297 296 296 295 293 291 288 281 286 285 284 289 293 296 298 300 301 300 300 303 303 303 301 302 303 302 304 303 303 301 301 300 297 296 295 295 298 298 296 296
293 293 296 297 294 295 294 290 282 281 280 280 289 286 287 293 296 298 299 299 299 300 300 301 302 303 303 302 300 301 301 300 301 300 299 299 298 297 296 296 295 294 294 293
286 285 292 296 293 291 290 290 282 280 278 281 288 284 288 294 298 300 299 299 299 299 301 301 302 301 300 299 298 299 299 300 300 299 298 298 297 296 296 296 295 294 293 292
287 287 294 294 295 295 291 286 291 284 282 279 283 288 293 295 296 297 297 297 296 297 299 299 298 298 298 298 298 298 298 298 299 298 297 296 296 296 295 295 293 292 292 293
292 286 292 294 296 296 292 294 285 283 277 277 281 283 285 291 294 296 295 295 296 296 296 297 298 298 298 297 297 296 296 296 297 297 295 295 294 294 293 293 292 292 291 291
292 289 288 292 290 289 290 288 287 286 282 277 274 281 290 294 296 295 294 295 295 295 295 296 297 297 296 295 295 294 294 293 294 295 294 293 292 292 292 291 291 291 292 292
292 288 283 287 292 294 291 289 287 279 280 279 278 280 291 293 295 295 294 296 295 295 295 295 295 296 295 294 293 293 291 293 292 293 291 290 291 292 291 290 290 290 290 290
293 287 281 285 289 290 289 290 288 285 283 281 275 279 293 293 293 294 294 294 294 294 294 294 294 294 294 294 293 291 292 292 292 290 289 290 291 291 290 290 290 290 289 288
296 288 284 281 283 286 284 288 288 286 279 280 280 283 288 291 292 292 293 293 292 292 293 292 292 292 292 292 292 290 290 290 290 288 289 290 289 289 289 289 289 289 289 289
292 286 286 286 287 287 285 286 287 286 285 282 283 283 287 291 292 292 293 292 292 292 292 292 292 292 293 292 289 289 289 288 288 288 289 289 290 290 290 289 289 289 289 290
292 284 284 284 287 287 285 286 286 286 286 286 285 285 290 292 292 292 292 292 291 292 292 292 293 293 292 289 287 287 287 287 287 286 289 290 290 289 289 288 288 288 288 289
287 284 280 277 282 281 278 284 286 286 287 287 283 287 291 290 292 291 291 292 292 292 291 292 293 292 288 286 286 285 286 286 286 286 289 289 289 288 287 287 287 287 288 289
285 282 277 275 276 271 284 288 289 288 288 289 289 290 291 291 291 293 293 292 292 291 292 293 292 288 286 285 285 285 285 285 285 287 288 288 287 287 287 286 286 285 283 283
289 281 277 274 275 280 284 288 288 287 287 292 290 290 291 291 291 290 293 293 292 293 292 290 287 286 286 285 285 284 284 284 287 287 287 287 286 285 285 284 285 284 284 282
287 283 279 274 271 270 282 288 292 291 282 291 292 290 290 290 284 291 292 292 292 291 289 287 286 285 284 284 284 284 284 284 285 286 286 286 285 284 283 283 283 283 281 282
279 278 275 269 270 278 286 292 293 282 283 291 293 292 290 289 292 292 292 292 292 288 286 286 285 284 284 284 285 284 284 284 285 286 286 285 284 283 283 281 281 280 280 280
282 280 275 276 270 276 290 292 286 290 289 293 293 292 293 292 292 292 292 288 287 286 286 286 285 284 284 285 284 283 283 285 285 285 284 283 283 283 283 280 280 280 278 278
282 285 281 283 283 289 291 292 293 292 292 293 293 294 295 292 293 293 288 287 286 285 284 284 284 285 285 285 284 283 284 285 284 283 283 283 284 283 282 279 278 278 277 273
288 290 283 286 289 290 291 293 294 294 294 295 295 295 296 294 294 288 288 286 284 283 284 284 284 283 283 284 285 284 284 284 283 283 283 283 283 282 282 280 280 278 273 274
288 290 287 285 290 290 293 294 294 295 296 296 297 296 295 294 291 289 285 284 284 284 284 284 283 283 283 284 284 283 283 283 282 283 283 282 283 282 281 279 278 279 278 277
291 289 285 284 291 291 292 294 296 296 296 296 296 294 290 291 287 287 285 284 284 284 283 283 284 284 283 284 282 283 283 282 282 282 282 284 283 281 280 279 279 282 281 282

GFSCGP_sfc_thetae_027.txt.gz
Theta_e
301 298 295 297 296 295 294 293 293 294 296 299 297 298 300 304 306 306 307 308 309 310 314 317 319 323 325 325 325 326 322 318 315 314 312 312 311 311 311 309 310 309 308 308
299 295 298 300 298 296 295 294 293 295 297 299 297 297 301 303 303 305 306 308 309 312 313 315 319 323 324 324 325 324 323 317 314 315 316 318 316 314 309 307 307 307 307 307
296 297 300 299 297 296 295 294 294 294 297 298 297 295 298 301 304 305 306 309 312 313 313 316 318 321 322 321 322 323 321 316 316 316 316 314 311 308 306 306 305 306 306 306
298 300 298 297 296 296 294 298 295 294 294 292 295 290 294 299 301 304 306 310 311 312 314 315 315 311 310 309 312 314 316 314 314 313 313 312 312 311 308 307 306 306 305 305
296 298 296 296 296 299 296 298 296 294 293 293 293 292 293 299 299 302 305 306 308 311 310 309 307 308 307 309 310 311 311 311 311 311 312 310 308 307 306 306 305 306 306 305
297 301 299 299 299 298 300 298 297 295 294 288 291 291 291 296 300 302 304 305 306 306 306 306 307 308 308 310 311 311 310 309 310 310 310 309 307 306 306 306 306 306 306 306
296 297 299 301 298 299 299 296 289 288 288 286 291 290 294 297 300 305 304 304 306 307 306 307 307 307 308 308 309 310 309 308 308 309 309 309 308 307 306 305 305 304 304 303
290 289 296 299 298 296 295 296 290 282 284 287 291 289 295 299 301 306 306 306 306 306 307 307 307 308 308 307 307 308 307 306 307 307 307 306 305 305 305 304 304 303 303 302
291 291 298 298 299 299 294 291 295 288 285 285 289 293 297 298 299 302 303 304 304 306 307 307 307 306 306 305 306 306 306 305 306 306 305 305 304 304 303 303 302 301 301 300
296 290 295 297 299 299 297 297 290 289 282 280 285 287 291 295 297 300 301 303 304 305 305 305 304 304 304 304 304 304 304 303 304 305 304 302 302 301 300 301 300 301 301 301
295 295 293 296 294 294 295 292 291 291 287 283 281 286 296 298 299 300 302 303 303 303 303 303 303 303 302 301 301 301 300 300 301 302 300 299 299 299 300 300 300 300 300 299
296 293 290 291 296 298 296 293 292 287 284 284 285 287 295 297 301 302 302 301 301 302 302 302 302 301 300 299 299 297 298 300 299 297 297 297 298 299 298 297 297 298 297 297
297 292 287 289 293 295 294 294 291 289 288 285 286 287 295 297 298 300 301 300 299 300 299 300 300 300 299 299 298 297 298 298 296 296 296 297 297 297 296 296 296 296 296 296
299 291 290 287 288 291 289 292 291 291 287 286 287 289 292 296 296 297 298 299 299 298 298 299 298 298 297 298 297 295 295 296 296 294 295 295 296 296 296 296 295 295 295 296
296 291 290 289 290 290 289 290 290 289 290 288 289 288 292 295 298 298 298 298 297 296 296 297 297 297 297 297 296 293 294 294 294 294 293 295 296 296 295 295 294 295 295 295
294 289 289 288 289 289 288 289 289 290 290 290 289 289 295 296 297 296 296 297 296 296 296 296 297 297 297 296 293 292 293 293 293 293 292 295 295 294 294 294 294 294 293 293
291 289 286 283 285 285 283 288 290 290 291 292 288 294 296 295 295 297 297 297 296 296 296 296 296 296 297 294 292 292 292 292 291 291 292 293 293 293 293 292 292 291 292 292
288 286 282 283 281 280 289 293 292 291 292 292 292 294 296 296 297 297 298 297 297 297 296 296 296 295 293 292 292 291 291 290 290 291 292 292 292 291 291 291 290 290 292 291
291 286 281 283 281 284 288 288 290 290 291 295 293 294 295 295 296 297 298 299 299 298 298 297 296 293 292 291 290 290 289 289 291 291 291 292 291 290 290 289 289 290 290 290
289 287 287 280 281 279 288 290 296 295 288 295 296 295 294 295 293 297 298 298 298 298 296 292 290 290 290 290 289 289 289 289 289 290 290 291 291 290 289 289 288 288 289 288
286 284 284 277 283 284 290 293 296 287 289 294 297 297 294 295 300 298 298 297 297 294 290 289 289 290 289 289 289 289 289 288 289 290 290 290 290 289 289 288 287 287 287 286
287 284 283 279 280 282 292 295 292 296 296 296 297 297 297 299 296 296 295 294 291 288 288 289 288 288 289 289 289 288 288 289 289 290 289 289 289 288 287 287 287 286 286 284
286 290 289 287 289 294 294 297 298 297 296 297 298 299 298 296 296 294 292 289 288 288 287 288 288 288 288 289 289 287 288 289 288 288 288 288 288 288 288 286 286 285 284 283
291 291 289 290 293 292 294 296 296 298 298 299 300 300 299 297 297 290 288 288 285 286 287 287 288 287 287 288 288 288 288 287 287 287 288 288 287 287 288 287 285 284 284 283
292 292 290 289 293 293 295 296 299 299 298 299 300 300 299 298 294 289 287 286 286 287 287 288 287 286 286 287 288 288 287 287 286 286 287 287 287 287 286 286 285 284 285 284
293 292 290 290 295 296 296 297 299 299 299 300 299 295 295 293 289 288 287 287 287 287 286 286 286 286 286 287 287 286 286 286 285 285 286 287 287 286 286 285 285 283 283 282

GFSCGP_sfc_thetae_030.txt.gz
Theta_e
306 302 298 300 301 300 299 298 298 299 303 302 301 303 304 310 313 313 314 315 317 318 321 324 325 329 330 331 331 332 330 325 325 322 316 316 315 314 314 315 315 315 314 314
302 299 301 303 302 301 300 298 297 299 302 304 303 303 305 308 312 314 314 315 317 318 321 322 325 328 329 329 330 331 329 330 329 326 323 321 320 320 318 315 314 314 313 313
300 301 304 303 301 300 300 299 298 298 301 304 303 301 303 306 309 311 314 316 318 319 320 322 324 325 328 328 329 329 330 329 326 324 322 321 320 316 314 313 313 313 313 312
302 303 302 302 300 301 297 301 301 300 299 295 302 294 302 305 305 309 311 314 318 320 322 323 325 326 327 329 330 330 326 323 322 322 320 318 318 316 317 317 315 313 312 311
299 301 301 300 300 302 300 302 301 300 300 298 298 296 300 305 303 308 313 316 319 320 321 321 321 321 320 322 325 327 324 320 319 319 318 318 316 315 314 313 311 313 312 310
302 305 304 303 303 303 305 302 302 301 300 292 296 296 297 302 305 308 312 314 317 316 317 316 316 315 316 318 320 321 318 317 317 317 317 316 314 312 312 311 308 307 308 308
301 301 304 305 302 304 304 301 293 291 291 290 297 295 297 303 306 310 311 311 314 313 313 312 312 313 314 315 317 317 316 314 316 315 314 312 310 308 306 306 306 306 306 306
295 293 300 303 302 300 300 299 293 283 287 291 296 292 299 304 307 312 313 312 313 312 312 312 313 313 314 315 316 316 315 313 313 312 310 309 308 310 309 308 307 305 303 304
296 294 302 302 304 303 299 297 301 294 291 291 295 298 303 304 304 308 311 310 311 311 312 313 313 314 314 314 314 314 312 310 309 308 308 308 310 308 306 303 303 303 303 301
300 294 300 301 304 304 302 302 295 297 286 283 291 292 295 300 302 306 309 309 310 311 312 313 313 313 314 313 312 311 309 307 306 307 308 308 305 304 303 303 301 300 301 300
303 299 297 300 299 299 299 298 296 297 294 287 286 292 302 301 305 305 309 310 311 311 312 313 312 312 312 310 309 307 305 305 306 306 305 303 302 302 302 301 300 300 300 299
302 301 296 297 300 302 301 299 298 292 289 293 292 291 301 304 306 308 309 310 312 312 312 312 311 310 308 306 306 304 304 304 304 303 302 300 301 301 300 299 299 300 299 299
303 299 293 293 297 300 298 300 298 297 296 291 290 292 301 304 304 307 308 310 310 310 310 310 309 307 306 305 304 303 303 303 302 300 299 299 299 299 298 298 299 299 298 297
302 300 297 293 294 298 295 297 298 297 291 291 292 293 298 300 302 305 307 310 309 308 308 308 307 307 305 304 304 302 301 302 300 298 298 298 299 299 299 299 298 298 297 297
303 297 297 295 295 295 295 296 297 295 296 292 293 294 297 299 301 304 307 308 307 306 306 306 306 305 304 303 303 302 299 300 299 297 297 297 299 299 299 298 297 297 297 297
301 296 295 293 294 294 293 296 296 297 297 296 296 295 302 303 303 303 304 305 305 305 305 305 305 304 302 302 302 298 299 298 297 296 297 297 298 298 297 297 296 296 295 296
299 297 293 289 291 291 289 294 296 296 298 297 294 299 301 300 301 303 304 305 305 305 305 304 304 303 302 302 298 299 297 297 296 296 295 296 297 296 295 295 294 294 294 295
297 295 292 291 287 285 294 297 297 297 298 300 299 300 300 301 304 304 306 306 305 306 305 305 304 302 302 300 298 297 296 295 295 294 294 295 295 294 294 294 293 294 294 294
298 295 289 290 288 291 293 293 293 294 294 300 299 300 300 302 303 304 306 307 307 307 307 306 304 301 299 297 297 295 295 295 294 293 294 294 294 293 293 293 293 293 292 293
295 296 296 288 289 287 293 296 299 299 291 299 300 301 301 302 298 299 306 306 306 307 307 303 300 296 296 296 295 294 294 293 292 293 293 294 294 293 293 293 292 293 292 291
292 292 291 289 290 292 296 296 300 289 292 302 302 303 303 301 303 305 306 306 307 306 302 299 297 295 294 294 294 293 293 292 292 293 294 293 293 293 293 293 293 292 291 291
293 292 290 289 288 287 298 299 294 300 303 302 303 305 305 305 304 303 304 304 303 300 295 294 293 293 295 294 294 291 290 291 292 293 293 292 292 292 291 292 292 292 291 289
292 297 296 295 296 299 301 303 304 304 303 303 304 305 305 304 303 302 301 300 297 294 292 295 294 292 293 293 292 289 291 292 291 291 291 291 292 291 292 291 291 290 289 288
297 298 296 294 298 299 301 303 303 303 303 305 305 305 305 304 305 301 298 296 294 293 290 291 291 291 291 291 290 291 291 291 291 290 290 291 290 290 291 290 288 288 288 288
299 298 296 296 299 300 301 302 303 304 306 306 306 305 305 305 303 299 295 293 292 289 288 290 291 290 289 290 290 291 290 291 289 289 289 290 290 290 290 289 288 288 289 288
299 297 296 296 299 299 301 304 304 304 304 305 305 303 302 303 299 296 293 290 289 288 288 289 289 289 289 289 289 290 291 289 288 288 288 289 289 289 288 288 287 286 284 284

GFSCGP_sfc_thetae_033.txt.gz
Theta_e
309 303 300 302 303 303 301 299 298 301 304 302 302 302 304 310 312 313 315 317 318 319 323 326 326 326 329 332 332 332 332 331 328 327 324 323 321 320 319 318 319 319 318 317
304 300 304 305 304 301 300 298 299 301 303 304 301 301 306 309 311 313 314 316 318 320 322 324 326 329 330 331 331 330 330 330 329 329 326 325 322 321 320 320 319 318 317 316
300 302 306 303 301 300 300 298 299 299 302 304 304 301 304 309 313 314 316 317 318 319 321 324 325 328 329 328 329 329 330 329 330 328 325 323 323 321 317 316 316 316 316 315
302 306 303 301 300 302 298 303 302 301 300 294 304 292 301 306 308 311 314 317 318 320 323 325 326 325 326 327 330 332 331 330 327 325 322 321 318 314 317 318 317 316 314 313
301 303 301 300 301 304 301 304 303 303 300 299 300 296 297 307 304 308 312 315 319 321 323 323 325 327 329 330 330 330 328 324 323 323 322 321 318 319 318 317 315 315 314 313
303 308 307 305 305 305 306 303 303 303 300 293 297 297 297 303 305 309 313 315 318 321 323 324 325 325 324 327 328 327 322 320 321 321 320 319 318 315 314 312 310 308 308 308
302 303 306 307 303 306 304 301 293 291 292 291 299 296 298 304 308 310 313 316 319 321 320 318 317 316 318 321 323 323 320 318 319 319 318 317 315 311 308 308 307 306 306 305
296 294 303 306 304 301 302 300 294 286 288 291 299 292 299 307 309 312 316 316 319 318 317 315 315 316 316 318 319 318 318 317 318 317 314 312 309 308 307 308 307 304 303 304
296 296 304 305 306 305 301 297 303 296 296 292 294 299 305 307 307 310 314 314 315 315 314 314 315 316 317 317 318 318 317 316 315 312 310 309 308 307 305 305 305 304 303 301
302 295 302 303 306 306 303 305 295 296 287 286 292 293 297 301 303 308 311 312 314 314 314 315 315 316 317 318 318 318 317 313 311 309 309 308 307 306 304 304 302 302 302 301
304 300 300 302 300 300 301 299 299 299 297 289 287 294 302 301 304 306 310 313 313 314 314 315 316 317 317 317 316 315 312 309 308 308 308 306 304 304 303 302 302 300 301 300
306 301 297 299 304 305 304 301 301 294 291 294 294 292 304 304 306 308 309 312 314 315 315 316 316 316 316 315 313 311 309 307 308 307 304 303 303 302 302 301 300 300 300 300
306 299 294 296 300 303 299 301 301 299 298 293 291 293 304 305 304 307 308 311 313 314 315 315 316 315 314 313 311 309 307 307 306 305 303 302 302 301 301 300 300 300 299 298
304 301 298 293 296 300 298 299 300 299 293 293 294 296 300 302 303 305 307 309 312 313 314 315 314 314 313 311 310 308 306 307 306 302 301 300 300 301 300 300 300 299 299 297
306 298 300 300 299 299 298 298 299 297 297 294 296 296 299 301 302 304 306 308 309 311 312 313 313 313 312 310 309 307 306 305 302 302 300 300 300 300 300 299 299 299 298 297
306 298 299 297 300 298 296 299 298 298 298 298 298 297 304 305 305 304 305 306 307 309 310 311 312 312 310 309 307 305 303 302 302 300 299 299 299 298 298 298 298 297 296 296
303 300 296 291 295 295 291 296 298 299 300 299 296 300 304 303 303 304 305 306 306 308 310 311 311 311 310 308 307 303 302 302 300 298 298 298 297 297 297 296 296 295 295 296
302 300 297 292 289 284 295 300 299 298 300 301 301 301 303 302 305 306 307 307 307 308 309 310 311 310 309 308 305 303 302 299 297 297 297 296 296 295 296 295 295 295 295 295
303 299 293 291 289 293 295 297 296 295 295 301 299 301 302 304 305 305 308 307 307 308 310 311 311 310 309 305 302 300 298 297 297 296 295 295 295 294 294 293 294 295 294 294
299 301 296 291 288 285 296 299 301 301 292 301 301 301 301 303 298 302 307 307 307 309 310 310 310 308 305 302 300 297 296 296 295 294 294 294 295 294 293 294 294 294 294 293
295 295 293 292 291 294 300 300 302 291 295 303 303 303 303 302 304 308 309 308 309 310 310 310 307 304 301 300 298 297 296 294 294 294 294 294 294 294 294 294 293 293 292 292
294 294 291 295 289 287 301 301 295 302 304 304 305 305 305 307 307 308 307 307 308 307 306 304 301 299 298 298 296 294 294 293 293 293 293 293 293 293 293 292 292 293 292 291
295 300 299 298 298 302 303 302 305 305 304 305 305 306 306 306 306 307 306 306 305 304 300 298 297 295 295 294 294 291 292 292 292 292 291 292 293 293 292 291 292 291 291 290
301 302 299 297 300 301 302 304 305 306 306 307 307 307 307 306 307 307 305 303 300 298 296 296 295 292 292 293 292 292 292 292 291 290 291 292 291 291 292 291 291 290 289 289
302 302 299 299 301 302 303 305 306 306 308 308 309 309 307 307 307 306 301 298 296 293 291 291 291 290 290 291 291 292 292 291 290 290 290 290 290 291 290 290 291 290 290 289
303 300 299 298 302 302 303 306 307 306 304 305 305 304 303 304 301 298 294 292 290 289 289 290 291 290 290 290 290 291 292 291 289 288 289 290 290 290 290 289 289 288 286 286

GFSCGP_sfc_thetae_036.txt.gz
Theta_e
308 302 299 301 304 302 301 298 297 300 304 302 302 302 303 307 309 313 314 315 316 316 319 322 324 324 325 331 330 330 328 327 325 325 323 322 320 319 318 318 318 318 317 316
305 299 303 305 304 302 301 298 297 301 303 301 301 300 303 306 307 311 313 314 316 317 319 323 324 324 327 330 330 329 328 327 327 327 326 324 321 319 318 318 318 317 316 315
300 302 305 303 301 299 299 298 298 298 301 301 301 297 301 306 308 310 313 315 317 318 319 322 323 326 329 329 329 328 328 327 328 327 325 322 321 319 316 315 314 315 315 314
301 305 303 301 299 300 296 303 302 300 298 292 301 291 298 303 305 308 310 312 315 317 321 322 323 324 327 329 329 329 328 328 329 326 321 319 317 314 315 314 315 313 313 312
300 301 302 298 300 304 299 304 302 300 298 298 296 293 297 302 302 307 311 314 315 317 320 322 324 326 327 327 327 328 329 328 326 323 321 320 318 317 316 315 313 313 313 312
302 306 303 303 305 305 306 303 302 302 299 290 295 294 295 298 302 305 311 314 316 318 321 323 325 326 326 328 328 328 326 322 322 321 321 320 317 315 313 312 310 309 307 306
300 301 306 306 302 305 303 299 292 288 288 289 298 295 297 304 307 306 310 313 316 320 320 321 322 323 324 325 326 324 321 318 320 320 319 318 316 312 308 307 305 305 304 303
294 292 302 306 303 300 299 298 294 285 283 291 298 292 297 306 308 312 314 316 318 319 321 321 321 319 320 322 323 321 318 317 317 318 316 314 311 308 306 307 305 303 301 301
296 295 304 305 305 304 299 296 302 295 297 293 293 296 305 306 306 308 313 314 316 317 318 317 316 316 317 318 319 319 317 316 316 315 312 309 308 306 304 305 304 302 301 300
301 291 302 304 305 305 302 303 295 296 287 285 291 293 295 301 302 306 311 312 315 316 316 314 313 315 316 317 318 319 318 315 315 311 310 307 307 306 305 303 302 300 299 299
304 299 298 302 299 297 300 297 298 297 297 290 287 291 302 301 303 305 309 313 314 315 314 313 314 315 316 317 317 317 316 314 310 308 308 307 305 304 303 302 301 299 299 298
304 301 297 298 304 305 303 301 300 296 291 295 295 292 304 304 305 307 308 312 314 315 315 314 314 315 315 316 315 315 314 311 308 308 307 305 304 303 302 302 301 299 298 298
306 299 293 294 300 303 299 300 300 301 299 294 292 292 304 304 303 306 307 310 313 314 315 314 315 314 315 315 314 313 312 308 308 306 303 303 303 302 300 301 299 299 298 297
308 300 295 292 295 300 298 299 299 298 294 293 293 294 299 302 302 304 306 308 310 313 313 314 314 314 314 314 313 312 309 308 306 304 303 301 300 301 300 300 298 298 298 296
305 296 298 298 300 299 299 298 298 296 297 293 296 295 299 301 303 304 306 308 307 308 312 312 314 314 314 313 312 311 307 306 305 304 300 300 301 300 300 299 298 298 297 296
306 298 300 297 300 300 296 298 299 298 298 297 297 296 303 305 305 304 304 304 305 306 309 312 313 314 314 313 310 309 306 305 302 302 300 300 300 298 298 297 297 297 296 296
304 301 298 293 296 294 289 296 298 298 300 299 294 300 304 302 302 303 305 305 306 306 307 310 311 312 313 312 309 307 304 302 302 300 299 298 298 297 297 296 296 295 294 294
303 302 299 294 289 284 295 301 299 297 298 300 300 300 301 302 304 305 306 306 306 308 308 308 310 312 312 312 308 305 302 302 299 297 297 298 297 296 295 295 294 294 294 293
306 302 294 290 289 293 295 297 296 295 295 300 298 300 301 302 304 304 308 307 306 306 307 308 310 311 311 308 304 302 301 297 296 296 296 296 295 294 294 294 293 293 293 292
300 304 298 293 289 285 297 299 302 301 292 301 301 301 301 302 297 301 307 308 308 308 308 308 310 310 307 303 302 298 296 295 294 293 293 294 294 293 292 293 293 293 292 292
295 296 291 291 291 294 300 301 302 291 295 303 303 303 303 301 304 308 308 307 308 308 308 308 306 303 300 299 298 295 295 293 294 294 294 293 294 293 293 293 292 291 290 290
294 294 290 295 287 285 302 300 294 303 306 304 304 305 305 306 307 307 308 307 307 305 304 302 297 296 296 296 295 293 291 293 293 293 292 292 292 292 292 291 290 290 290 288
296 300 299 297 297 304 304 303 305 306 304 305 306 306 306 306 305 306 306 305 304 300 297 297 295 294 294 293 292 290 291 292 293 292 291 291 291 292 291 290 289 288 288 286
302 304 301 300 300 301 303 304 306 306 306 307 307 307 308 305 306 306 303 299 296 296 294 294 293 291 291 292 291 292 292 292 291 290 290 290 290 289 290 290 289 288 286 285
303 303 299 299 301 303 305 306 306 306 307 306 307 303 302 304 300 295 293 291 291 291 291 291 290 290 290 292 291 292 292 292 290 290 289 289 289 289 289 289 289 286 286 286
303 301 301 300 303 303 302 303 304 302 301 301 300 296 296 295 292 291 289 289 289 289 291 290 291 291 291 291 291 291 292 291 289 288 288 287 287 287 288 288 288 288 286 286

GFSCGP_sfc_thetae_042.txt.gz
Theta_e
304 296 292 295 296 296 296 295 294 295 299 299 299 296 298 302 308 308 309 306 310 314 319 320 318 319 319 319 323 323 320 318 319 317 315 314 313 312 312 311 311 310 311 312
300 294 300 302 301 298 298 296 294 295 298 299 296 295 296 299 305 308 308 306 307 310 313 315 316 317 318 320 323 322 320 319 319 319 316 315 313 312 311 311 310 311 310 308
294 298 304 302 299 297 296 294 293 293 295 293 295 292 293 298 301 306 308 308 308 309 310 311 315 316 318 320 322 321 321 319 320 320 318 314 312 310 308 307 307 308 309 308
297 302 302 299 299 298 291 298 298 297 293 287 292 284 290 295 297 304 307 306 308 309 312 312 315 316 318 321 323 323 322 320 320 320 317 313 311 309 308 307 306 307 308 306
295 298 298 297 298 301 295 300 297 297 293 290 290 286 289 295 295 297 303 307 308 310 312 313 317 318 320 322 322 322 322 322 321 321 318 314 310 309 307 306 306 305 305 305
298 302 301 300 302 302 302 299 297 296 292 285 290 288 288 291 297 300 302 305 308 310 313 314 316 321 320 322 322 322 323 324 324 321 315 314 311 308 307 305 305 304 303 300
296 298 301 305 299 301 299 293 284 282 282 282 294 290 292 296 299 301 302 302 305 309 313 313 317 320 321 321 321 322 324 322 322 318 314 311 310 308 308 307 304 300 298 298
289 289 299 301 298 296 295 292 285 280 280 284 293 288 292 300 302 303 302 303 306 308 314 315 318 319 321 321 322 322 322 319 314 312 311 310 308 305 302 302 301 300 299 298
290 292 301 303 303 300 296 291 296 289 286 281 288 291 297 300 302 302 302 305 307 309 314 316 317 318 318 318 318 319 319 313 311 310 307 304 304 302 301 300 302 300 299 298
296 289 297 302 302 301 297 297 289 288 281 280 285 286 289 296 300 302 301 302 307 310 311 313 314 316 317 317 314 313 315 312 311 307 305 304 303 303 303 303 301 299 298 298
298 293 292 299 296 294 293 291 292 291 287 281 279 283 293 297 300 301 303 305 308 309 310 312 312 314 315 314 311 309 312 312 308 304 302 302 303 302 303 302 300 299 297 297
299 294 288 294 299 301 296 294 293 283 284 285 281 284 296 297 299 303 305 307 308 311 310 310 312 312 311 312 311 309 309 309 305 302 301 300 301 301 301 300 298 299 297 298
299 292 285 288 293 298 295 295 296 295 289 285 279 284 296 295 295 299 300 305 308 309 308 307 308 310 312 311 311 309 307 306 303 302 301 301 300 300 299 299 298 296 295 294
301 294 289 284 288 293 291 294 295 292 283 284 285 289 294 294 294 296 297 299 305 308 308 307 306 308 310 311 311 308 306 304 304 302 301 300 300 299 298 297 295 295 294 292
297 291 292 292 294 295 294 294 294 291 290 285 289 289 293 293 293 295 297 298 301 303 305 305 304 304 306 308 310 308 306 303 302 301 300 301 300 297 297 296 295 295 293 293
298 289 289 288 293 292 290 292 292 293 292 292 291 290 294 295 295 296 296 298 298 299 303 306 305 306 307 307 308 307 304 302 301 299 298 299 300 297 296 294 295 295 294 293
295 292 286 284 288 288 282 289 291 292 293 293 287 291 294 294 295 294 295 297 297 298 299 303 306 306 307 308 307 303 300 300 299 299 299 297 295 294 294 294 293 292 291 291
293 291 284 281 281 275 290 295 294 291 291 292 292 293 294 295 296 297 296 296 297 298 299 299 300 300 299 298 299 299 299 296 296 296 296 293 292 292 293 293 292 292 292 291
300 289 284 280 280 286 290 292 290 290 289 293 292 294 294 297 297 297 299 297 296 295 294 294 294 293 294 295 296 293 292 292 292 291 292 292 292 292 293 293 293 292 290 289
295 292 286 281 277 275 287 293 296 295 284 295 295 295 296 295 288 293 297 294 293 292 293 292 292 292 292 291 292 291 290 290 290 291 293 294 294 294 293 291 289 289 288 288
283 284 281 276 276 282 292 296 297 283 284 296 296 296 295 293 295 294 293 292 292 291 291 292 290 289 290 291 291 289 290 290 292 293 293 293 292 291 290 289 288 287 286 285
286 282 278 282 277 279 297 295 289 292 295 297 297 297 297 295 293 292 292 291 290 290 290 290 290 290 291 291 291 290 290 292 293 293 291 290 289 289 289 286 285 285 284 283
286 289 285 287 286 295 297 296 298 299 298 298 299 300 299 292 291 291 290 290 290 289 288 290 289 289 290 290 290 288 289 289 289 288 287 287 287 287 287 284 284 283 282 280
293 298 291 291 295 297 298 300 300 298 295 295 296 295 294 291 290 289 288 288 288 290 289 290 289 288 288 289 289 288 289 288 287 286 286 286 285 285 284 284 284 283 279 280
293 295 292 292 295 297 297 297 294 294 294 293 293 292 291 290 288 288 288 288 289 289 289 289 289 287 287 287 287 287 287 287 286 285 285 284 284 283 283 284 284 283 283 282
295 293 288 287 297 294 293 294 296 293 292 292 290 289 290 289 287 287 287 287 288 288 288 287 286 286 285 286 286 286 287 286 285 284 283 282 282 281 282 283 283 286 285 285

GFSCGP_sfc_thetae_045.txt.gz
Theta_e
302 295 291 294 295 295 294 292 292 295 298 299 298 296 298 302 309 310 311 310 316 317 321 322 323 322 322 318 320 322 319 318 319 317 315 313 312 311 311 311 311 311 310 310
297 292 298 300 299 297 295 294 292 296 297 298 294 295 295 300 305 311 310 307 311 316 319 320 320 320 318 317 320 319 320 318 319 318 315 315 313 312 311 310 310 309 310 309
293 295 301 300 297 295 294 292 294 293 295 295 294 292 293 297 300 309 311 311 311 314 316 319 316 316 316 316 319 320 319 319 319 317 315 312 310 309 308 307 306 308 308 307
295 299 300 297 296 296 290 297 296 295 292 287 293 284 290 292 296 304 309 307 308 311 315 318 315 314 315 317 320 321 320 319 318 318 315 312 309 308 309 307 306 306 307 306
294 297 296 295 296 299 294 297 296 294 291 289 288 285 288 292 292 298 304 307 307 309 312 313 314 315 316 318 319 320 320 319 319 319 317 313 310 309 307 306 305 305 304 304
295 300 298 297 300 299 300 296 295 293 290 283 289 287 287 290 295 297 300 306 306 307 310 311 314 315 315 318 319 319 319 319 319 318 318 314 311 307 306 304 303 302 300 299
294 296 299 302 296 300 296 291 283 281 281 281 292 288 290 295 297 298 298 304 306 307 308 310 313 314 316 318 319 319 319 319 321 320 319 314 312 309 308 305 304 300 297 295
288 286 296 300 297 294 293 291 284 279 279 282 291 286 291 297 299 299 300 301 304 306 310 311 314 316 317 318 319 320 320 320 322 321 318 313 310 309 308 307 305 301 299 297
288 289 298 300 301 299 294 289 293 287 284 281 285 290 295 298 300 300 300 301 302 304 310 312 315 318 318 319 319 320 320 321 319 317 311 308 308 305 303 303 303 301 299 298
294 288 296 299 300 299 296 296 287 286 280 279 283 284 287 294 296 300 299 300 304 306 310 312 316 317 319 320 320 319 319 315 313 307 306 306 306 304 303 303 301 299 299 298
296 291 290 297 294 293 293 290 290 290 286 280 278 284 290 295 297 299 299 301 306 307 310 313 315 316 317 316 315 317 316 311 308 304 303 303 303 303 303 301 300 299 298 296
297 291 286 291 296 298 295 293 291 283 283 283 281 283 293 294 297 299 302 303 306 308 310 312 313 314 314 314 314 314 313 311 308 304 302 303 302 302 300 299 298 297 297 299
297 289 283 287 291 295 293 294 295 291 287 284 279 283 294 293 293 298 300 303 306 307 307 307 309 311 313 314 312 311 310 310 304 303 303 303 302 301 300 299 298 298 296 294
299 292 288 284 288 292 289 293 293 291 282 284 284 287 292 294 293 294 296 297 301 306 307 305 306 309 311 311 310 307 307 305 303 302 301 301 299 300 300 298 296 295 295 293
297 289 290 290 291 292 292 292 292 289 289 285 288 288 291 293 292 293 295 296 301 303 305 305 304 304 306 307 307 306 304 303 302 301 302 299 298 298 297 296 293 294 294 293
296 288 289 287 291 291 289 292 291 291 291 290 289 289 292 293 293 294 295 296 296 299 303 303 305 304 305 306 306 304 301 302 302 301 298 299 299 297 295 295 294 293 293 293
292 289 285 283 286 286 282 288 290 291 292 292 287 290 292 292 293 292 293 295 295 296 297 299 302 304 304 304 303 299 298 299 298 298 298 296 295 293 293 294 293 293 293 294
291 288 284 280 281 275 289 293 292 290 289 290 291 291 292 293 294 295 295 294 295 295 294 293 294 295 296 297 297 297 296 296 295 294 293 293 292 292 293 293 293 293 293 291
296 287 282 280 280 285 289 290 290 288 286 291 290 292 294 295 295 294 293 293 291 291 291 290 291 291 291 292 293 292 291 291 292 292 292 293 294 293 294 293 293 292 290 287
292 290 286 279 278 276 288 292 294 293 283 293 293 293 294 293 287 291 292 291 290 290 290 290 290 290 289 289 290 290 289 290 290 292 293 294 294 294 293 292 290 288 287 286
283 283 282 276 277 283 290 294 295 283 284 294 295 294 293 291 292 291 291 289 290 290 289 289 289 288 289 290 291 290 291 291 293 295 296 295 293 291 290 287 286 285 284 283
287 283 278 278 275 279 294 293 287 290 293 295 295 295 292 291 291 290 290 289 288 288 288 289 289 288 290 291 291 290 289 293 293 292 290 288 287 287 287 285 284 284 282 281
286 289 286 287 285 293 295 293 295 296 296 296 297 295 292 290 289 289 288 288 288 286 286 288 288 289 289 290 290 287 287 288 287 287 286 286 286 286 285 283 283 282 281 280
292 295 289 290 293 294 296 295 296 297 296 297 298 293 292 289 289 288 288 287 287 287 288 289 288 288 287 288 288 286 287 287 286 285 284 284 284 284 283 283 282 281 280 280
292 294 291 289 293 295 294 292 292 292 293 292 292 292 290 289 288 288 287 287 287 287 288 289 288 287 286 286 285 285 285 285 284 284 283 283 283 282 283 283 282 283 283 283
294 292 288 286 295 294 293 292 293 292 290 290 289 288 289 289 287 287 286 287 287 287 287 286 285 284 283 284 284 285 285 284 283 283 282 281 281 281 282 282 282 285 285 286

GFSCGP_sfc_thetae_048.txt.gz
Theta_e
299 294 290 293 294 293 292 291 290 291 297 298 296 295 296 303 309 309 312 313 315 317 319 321 321 320 317 318 318 319 319 317 317 315 314 313 312 315 312 311 311 310 309 309
296 291 296 297 297 295 293 291 290 295 296 295 293 293 295 300 308 310 311 313 315 316 317 320 320 319 318 318 318 320 319 317 318 319 314 314 312 312 313 311 309 309 309 308
292 294 300 298 295 293 292 290 291 291 294 294 292 290 292 296 303 307 311 314 315 316 316 317 318 319 318 317 317 319 319 318 319 318 315 310 311 311 310 308 307 308 309 308
294 297 298 295 294 294 289 295 294 293 291 285 291 284 288 291 297 302 308 309 311 312 317 318 318 317 317 317 318 320 319 318 318 316 316 311 310 309 310 308 306 309 307 306
293 294 295 294 295 297 293 296 294 293 289 287 287 285 288 290 291 296 303 309 310 311 314 316 318 318 318 317 316 318 318 318 318 317 316 312 310 312 308 306 308 307 304 303
293 298 296 296 298 298 298 294 292 291 288 283 287 285 286 289 293 294 298 305 309 309 311 315 318 315 314 314 315 316 317 317 318 317 315 313 312 310 308 307 305 302 300 300
292 294 297 300 294 296 293 290 282 280 281 281 289 287 289 293 296 296 297 302 307 308 309 311 311 312 312 313 316 317 317 317 318 317 317 317 315 311 310 308 304 299 297 295
287 285 294 298 295 293 291 290 283 279 278 282 289 284 290 296 299 300 298 297 303 303 306 308 310 312 313 314 317 318 318 318 319 318 318 318 315 313 310 309 306 302 297 297
286 287 296 298 298 296 292 288 292 285 284 280 285 289 292 295 297 299 298 298 301 302 305 308 309 312 312 315 317 318 319 319 319 319 318 314 312 311 308 308 303 300 298 297
292 286 294 297 299 297 294 295 286 285 280 279 282 284 286 292 294 298 298 299 300 302 305 306 310 312 314 316 317 318 319 319 320 319 315 311 310 309 307 305 303 301 299 297
293 289 288 294 293 292 291 289 289 288 284 280 278 283 290 292 294 296 298 299 301 305 306 308 311 314 315 316 317 317 318 318 312 310 308 306 306 306 307 306 304 302 299 299
295 290 284 289 294 296 293 291 290 283 282 283 281 283 293 292 293 296 298 301 303 306 307 309 310 312 314 316 316 316 316 316 313 306 304 305 305 306 305 303 300 300 299 297
295 287 282 285 289 293 291 293 292 289 285 283 278 283 293 293 292 294 297 299 303 306 307 308 309 310 312 313 313 313 313 311 306 306 304 304 304 303 300 299 299 298 297 297
298 290 286 283 286 290 288 291 292 290 282 283 283 286 291 292 293 294 294 294 298 303 306 306 306 308 310 311 310 309 307 306 305 304 304 302 301 301 299 299 298 297 296 294
295 288 289 288 290 291 291 291 290 288 288 285 288 287 291 291 291 292 293 296 298 301 304 305 305 305 306 307 306 305 303 303 303 301 300 299 300 298 296 295 295 295 294 293
294 288 286 286 289 289 288 290 290 289 288 288 288 288 292 291 291 292 294 296 297 298 299 300 302 303 304 305 304 303 300 300 301 299 297 297 297 296 294 293 293 293 293 294
292 288 284 283 286 286 282 288 289 289 290 291 286 290 291 290 292 291 292 294 295 294 294 295 295 297 299 300 299 297 297 298 297 296 296 294 294 293 293 294 294 294 294 295
289 287 283 280 281 276 288 291 291 290 290 290 289 289 291 291 291 291 291 293 291 291 290 290 291 292 293 294 294 294 294 293 292 292 293 293 294 293 294 294 294 294 294 293
293 287 282 280 280 284 287 289 289 288 287 290 289 291 292 293 293 290 291 290 289 289 289 288 289 289 289 290 291 291 291 291 291 292 293 294 294 294 294 294 294 294 292 289
291 289 285 279 277 276 286 291 293 292 283 292 292 292 292 292 285 289 289 289 288 288 288 287 288 288 289 289 290 290 289 291 291 292 293 294 295 295 294 292 290 288 286 286
284 282 280 275 276 283 291 292 293 283 285 292 294 294 292 290 289 288 288 288 288 287 287 288 288 287 287 289 291 290 291 291 294 295 294 293 292 290 289 287 286 285 284 283
287 283 279 278 276 281 292 291 287 290 291 293 293 293 292 288 288 288 288 287 287 286 287 287 287 287 288 289 290 288 289 290 290 290 289 287 287 286 286 284 283 283 282 281
286 290 286 287 287 293 293 291 293 293 293 293 294 293 292 289 288 288 286 286 285 285 285 287 287 287 287 287 288 287 287 287 286 285 284 284 284 284 283 282 282 282 281 280
290 292 288 289 292 293 295 295 295 295 295 296 294 293 292 288 288 287 286 285 285 285 285 286 286 285 285 286 286 286 286 285 284 283 283 282 282 282 282 282 282 280 279 279
291 292 290 289 292 292 294 292 293 292 293 292 292 291 290 289 287 286 285 285 285 285 286 286 285 284 284 285 284 284 283 283 282 282 282 281 281 280 280 280 280 281 280 280
293 291 289 289 294 293 293 292 292 292 290 291 289 288 288 288 286 286 285 285 285 284 285 284 284 284 283 281 280 281 281 281 280 280 280 279 278 277 278 278 278 281 281 282

GFSCGP_sfc_thetae_051.txt.gz
Theta_e
303 300 296 298 298 297 296 295 294 296 301 300 299 300 302 313 314 313 313 314 316 317 321 320 321 322 321 322 324 325 327 328 325 324 323 322 322 324 324 321 322 320 318 317
300 297 300 300 299 298 297 295 294 297 299 299 298 298 300 309 313 314 314 314 315 318 320 321 321 322 322 322 323 324 326 327 326 325 324 324 324 323 325 322 319 319 317 316
297 298 301 300 299 296 296 295 295 295 298 298 298 296 297 300 309 314 315 318 318 318 319 321 322 322 323 322 323 323 325 326 327 326 324 321 322 322 319 319 319 317 317 314
298 300 299 299 297 298 293 298 297 296 295 291 296 289 294 297 300 306 314 315 317 318 320 322 323 323 324 324 324 324 325 325 326 325 322 321 321 320 321 319 319 317 316 312
297 297 298 297 298 299 297 299 297 297 294 294 292 291 294 295 295 300 306 313 316 318 320 321 322 324 326 326 324 325 325 325 325 324 324 323 321 323 318 317 316 316 313 311
297 302 300 300 300 300 300 298 296 295 294 288 291 291 292 295 297 299 302 307 314 316 317 321 324 325 324 325 324 325 324 324 325 324 324 321 320 319 317 317 316 314 313 312
296 297 301 302 298 300 298 294 289 287 287 286 293 291 295 299 301 301 303 304 309 316 317 318 320 322 323 321 322 323 323 323 323 323 321 321 321 319 315 316 314 309 309 309
290 288 297 301 300 297 296 295 290 282 284 287 292 289 294 300 302 304 304 303 304 312 315 316 318 321 322 321 322 323 322 323 323 323 322 321 322 320 319 316 314 311 310 308
290 290 298 300 301 301 296 293 296 289 287 287 290 293 298 299 301 304 305 304 304 307 311 314 317 319 320 320 321 322 323 322 322 322 323 322 323 320 320 317 315 312 307 304
296 290 297 299 302 300 297 299 291 290 284 282 286 288 291 296 299 301 304 305 307 307 308 310 313 316 318 320 322 323 324 323 323 323 323 323 322 321 320 316 312 307 306 302
296 295 292 298 297 296 295 294 292 293 290 285 283 288 297 297 300 301 302 306 307 309 309 311 313 316 318 320 321 322 323 323 324 324 324 322 319 318 316 312 309 306 303 301
299 295 289 293 297 299 298 296 295 291 287 288 287 288 298 298 298 299 302 305 308 311 312 313 315 317 319 319 320 321 322 322 323 322 319 318 315 312 310 309 306 304 302 302
298 292 287 289 293 297 296 295 294 293 291 287 287 290 297 298 298 299 300 303 307 310 313 314 315 316 318 319 320 321 321 322 322 316 314 312 310 310 308 305 303 304 302 299
300 293 291 287 290 294 292 294 294 295 289 290 289 292 297 299 298 300 300 300 301 306 310 313 314 315 317 318 319 320 319 315 311 309 309 307 307 306 304 302 301 301 301 300
300 292 292 292 292 294 294 294 293 293 294 291 293 291 297 299 299 298 298 301 303 305 306 308 311 312 314 315 315 313 311 310 309 306 305 304 304 302 300 300 297 298 297 299
297 293 292 290 292 293 292 293 294 293 293 292 293 292 298 298 297 297 299 301 301 302 302 303 305 307 310 310 309 307 306 305 306 304 301 299 298 297 295 295 296 297 295 298
294 292 289 287 289 290 287 291 293 294 295 296 291 297 297 296 296 297 298 299 298 298 298 299 300 301 302 303 303 302 301 302 300 299 298 296 295 294 295 296 296 298 297 297
293 292 289 286 285 282 294 295 295 295 295 295 294 295 296 296 295 295 297 297 295 295 295 295 296 297 298 299 298 298 298 297 297 296 295 296 296 295 297 297 296 295 295 295
297 291 286 286 286 289 291 293 294 293 294 296 296 295 295 295 296 293 293 294 293 293 292 293 294 294 295 296 296 296 296 296 296 295 296 296 296 296 295 294 295 295 296 296
291 292 292 284 284 283 293 295 296 296 289 296 296 295 295 296 294 296 292 292 292 292 292 292 293 294 294 295 296 295 295 296 295 296 296 297 297 295 293 293 294 294 293 291
288 287 287 283 287 289 294 295 297 289 293 297 297 297 297 296 296 295 292 291 291 291 291 292 293 293 294 295 296 295 296 295 296 295 293 292 291 291 291 291 291 290 290 289
290 287 286 285 286 286 296 293 292 299 297 298 298 298 298 293 291 291 291 290 290 290 291 292 292 292 294 295 294 292 291 292 292 291 289 289 289 289 289 289 289 289 289 288
289 293 291 292 293 299 297 300 299 298 299 298 299 298 295 291 291 290 289 289 289 290 291 291 290 289 290 291 291 289 289 289 289 289 288 287 287 286 286 285 285 284 284 284
293 295 294 295 297 296 297 299 300 299 299 299 300 297 295 292 291 289 288 288 289 289 289 289 288 287 287 288 288 287 287 288 287 286 285 284 283 283 283 283 283 282 282 282
295 295 293 293 295 297 298 299 299 298 298 296 297 296 294 292 289 289 288 288 289 288 288 288 287 286 285 285 283 284 285 286 284 283 282 281 281 281 281 281 281 281 282 281
295 294 292 293 299 300 300 301 297 296 296 295 293 292 293 292 289 289 288 288 288 287 287 287 286 283 282 281 281 282 283 282 282 280 280 279 280 280 280 279 279 280 279 279

GFSCGP_sfc_thetae_054.txt.gz
Theta_e
309 303 299 300 302 302 301 299 298 302 305 303 302 303 306 315 316 315 317 317 317 321 324 324 325 325 324 325 325 326 327 329 331 329 327 326 323 326 329 331 332 329 330 330
304 299 304 304 304 302 301 299 298 301 303 302 302 302 305 311 315 315 317 318 319 321 322 321 324 324 324 324 326 326 327 330 331 330 328 326 324 326 329 331 328 328 327 327
300 302 305 303 302 301 301 299 298 298 302 303 302 300 302 307 314 316 319 320 319 320 321 322 322 324 325 323 325 327 329 331 332 332 330 327 327 327 327 327 327 324 324 324
302 306 303 302 301 302 297 303 301 300 299 294 302 292 299 304 306 312 316 319 320 319 321 324 324 323 324 325 326 327 328 329 332 333 329 326 322 321 325 327 326 324 323 322
300 302 301 300 301 303 299 303 301 301 299 298 297 294 299 301 301 305 310 316 320 323 321 323 326 327 327 327 327 328 328 328 330 332 332 328 324 324 328 328 326 323 322 324
302 306 305 303 304 305 305 302 301 301 299 292 296 295 297 300 302 304 307 311 316 321 323 323 326 329 330 332 331 331 329 328 330 331 332 331 328 327 328 326 325 324 323 322
300 301 305 305 301 304 303 299 292 290 291 289 297 295 297 303 305 307 308 311 313 318 322 323 323 326 328 330 332 332 330 328 330 331 331 331 331 329 328 327 325 323 321 316
294 292 300 305 302 300 301 300 293 285 287 292 296 292 298 305 307 308 311 311 312 314 319 323 324 326 328 329 331 332 330 330 330 331 331 331 330 329 328 327 325 324 318 312
294 294 302 304 305 304 300 296 301 294 294 292 295 297 303 304 305 307 308 310 309 312 316 319 323 326 328 330 330 332 331 330 331 329 331 329 328 327 327 326 325 322 316 312
299 293 301 303 306 304 302 304 294 296 286 285 291 293 296 299 300 304 306 308 312 314 314 317 320 324 327 329 331 332 331 330 331 331 330 328 327 327 326 325 322 317 311 306
302 299 297 302 300 299 299 298 298 298 295 289 287 292 303 301 303 303 307 310 312 315 315 317 318 320 323 326 327 328 329 329 330 330 330 329 329 329 325 322 320 314 309 305
303 299 294 296 302 304 304 301 300 294 291 295 294 293 304 305 305 306 307 309 313 317 318 318 320 321 322 323 325 326 327 328 329 330 330 329 325 321 319 315 313 309 304 304
303 297 292 293 297 301 299 301 301 300 298 293 292 293 304 305 305 306 306 309 311 315 318 319 320 321 323 324 325 326 327 327 328 327 325 319 314 312 311 308 305 304 303 303
304 299 295 291 294 298 296 298 300 299 294 294 294 296 301 304 305 307 306 306 307 312 317 319 320 322 323 324 325 326 325 322 319 318 314 311 310 308 307 306 304 305 303 302
304 296 298 298 298 298 297 297 298 296 298 294 296 297 301 304 306 307 306 305 306 308 313 317 320 322 323 323 322 322 320 316 313 310 308 306 307 306 305 306 307 304 302 301
303 296 299 295 298 297 295 297 298 298 298 299 299 298 306 308 306 305 304 307 308 309 310 313 315 318 318 317 316 315 315 314 311 307 304 303 303 302 302 303 303 300 300 300
300 298 296 291 296 296 290 296 298 299 301 301 296 301 306 305 304 305 306 308 308 307 308 309 310 312 312 312 312 311 310 310 308 304 301 302 301 299 301 300 300 299 299 298
300 299 298 292 290 286 297 302 302 300 302 303 303 303 305 305 305 304 307 307 305 305 305 306 307 308 309 309 308 308 307 306 303 301 300 300 300 301 302 301 299 299 298 298
304 300 294 292 291 295 295 297 299 298 299 304 303 304 305 303 302 300 302 306 305 304 304 304 306 306 306 306 306 305 304 303 301 300 300 301 301 300 299 300 300 300 300 300
299 300 299 291 289 288 297 303 305 303 295 305 304 303 303 302 298 303 301 301 300 301 302 302 303 304 304 304 305 304 302 302 300 300 300 301 301 298 297 298 297 297 298 295
293 294 293 293 292 296 302 302 303 293 297 306 306 305 304 301 304 304 301 300 301 301 301 302 302 302 302 304 304 301 301 299 300 299 298 296 294 295 295 295 295 295 295 294
294 293 292 294 291 289 302 300 298 305 307 307 307 307 305 305 302 300 300 298 298 298 299 300 300 300 302 303 302 299 298 298 297 296 295 294 294 292 293 293 293 292 291 289
294 298 297 297 298 306 304 306 307 309 308 306 307 307 307 301 299 299 298 298 298 298 299 300 299 298 298 299 298 295 295 295 294 293 292 291 290 290 289 288 288 288 287 286
298 299 297 298 303 303 305 307 306 306 307 306 308 307 305 301 299 298 297 297 297 298 297 297 296 294 293 294 294 294 293 293 292 290 289 288 286 286 286 287 286 286 285 284
300 299 299 300 303 304 304 307 308 306 305 305 306 306 304 302 299 298 297 296 296 296 296 296 294 292 290 290 290 290 291 291 288 287 285 285 285 285 285 284 284 283 283 281
302 300 298 298 304 305 307 309 309 306 304 304 304 303 303 301 298 298 296 296 295 294 294 293 292 289 288 286 285 286 288 288 286 284 284 283 284 284 284 284 284 279 279 278

GFSCGP_sfc_thetae_057.txt.gz
Theta_e
308 303 300 302 304 303 302 300 299 303 306 306 303 303 306 313 315 315 317 317 319 321 323 324 323 323 323 324 323 323 324 327 325 324 323 323 321 324 325 327 331 333 332 333
305 300 305 306 305 302 301 300 299 303 305 304 303 303 305 310 314 315 316 318 317 320 322 323 323 324 324 323 323 322 322 324 325 324 324 324 324 323 326 328 331 333 332 332
301 304 306 304 303 301 301 300 300 299 303 305 303 300 302 307 313 315 317 320 319 320 320 320 321 323 324 324 324 323 325 326 327 328 327 325 325 324 323 325 328 331 329 325
303 306 304 303 301 303 298 304 302 301 299 294 303 293 301 305 308 312 315 317 319 319 322 322 322 324 324 324 326 326 326 327 328 330 327 326 322 320 322 325 327 329 324 323
300 302 302 301 302 305 300 304 302 302 300 299 299 295 299 304 302 306 312 316 319 319 322 322 323 324 325 326 327 328 328 329 330 330 330 327 325 324 325 326 328 328 326 325
303 308 306 304 306 306 306 303 302 303 300 292 298 296 296 300 302 305 308 314 317 320 320 323 326 326 326 328 329 330 328 327 329 330 331 331 329 327 324 325 328 326 326 325
301 302 306 307 302 306 304 300 293 291 291 291 299 296 299 303 306 306 307 310 314 319 321 320 323 325 326 327 329 330 328 327 329 331 331 331 331 331 329 326 329 326 325 324
295 293 302 306 303 301 302 300 294 286 289 292 299 293 299 306 307 309 310 312 315 316 320 322 323 324 327 330 331 330 330 329 329 330 331 331 333 332 332 330 330 329 327 325
296 295 304 305 305 304 300 298 303 296 298 293 296 299 304 306 306 307 308 311 313 315 317 320 324 325 327 329 333 335 332 331 331 331 331 330 332 334 332 332 331 329 328 323
301 295 301 303 305 306 303 306 296 297 287 287 293 295 295 301 302 304 306 308 312 315 315 319 321 325 327 329 333 335 335 332 332 331 332 332 333 331 330 329 326 325 324 320
303 299 298 303 300 300 301 299 301 300 297 290 289 293 304 303 304 304 306 309 310 314 317 318 320 323 326 329 331 333 333 333 332 332 333 331 329 329 329 326 325 323 319 313
304 300 296 298 304 305 303 301 301 295 294 297 295 295 306 306 307 307 308 308 312 315 316 320 321 321 323 326 329 330 332 332 332 333 332 330 329 325 323 321 318 315 311 308
304 298 292 295 299 303 300 303 303 302 301 295 291 294 306 306 306 307 307 309 312 314 317 320 322 322 323 324 326 328 329 329 330 331 323 321 318 316 313 310 308 307 305 304
305 300 296 292 296 300 297 299 301 300 296 295 295 297 302 304 305 307 309 310 311 314 316 316 319 321 324 325 326 327 327 328 328 323 318 313 312 310 308 306 305 304 304 303
304 296 298 299 300 300 299 298 299 298 299 295 297 298 302 304 306 307 309 310 310 310 314 316 318 321 324 325 327 323 319 318 316 312 310 309 308 308 308 307 305 304 303 301
305 297 299 296 299 299 296 298 299 299 299 299 299 298 306 307 308 308 308 308 309 309 312 317 320 323 324 323 323 320 316 313 312 309 307 307 308 309 309 308 306 305 303 302
301 299 297 293 298 298 294 297 298 299 301 300 296 302 306 305 306 307 308 309 310 311 313 315 319 321 320 319 319 317 314 313 310 308 308 308 308 306 305 305 304 303 302 302
301 299 298 294 293 287 297 304 303 300 301 303 303 304 306 306 307 309 310 311 311 311 313 314 316 316 316 316 315 314 312 310 308 307 305 305 305 304 304 303 303 303 303 302
303 301 296 293 292 295 298 301 301 299 299 304 304 305 306 307 307 306 309 312 312 311 312 313 314 313 312 312 312 310 308 307 306 305 305 305 304 302 303 302 301 302 300 300
300 303 299 295 290 287 297 303 307 306 297 306 306 305 305 306 301 304 308 311 310 310 310 309 310 310 310 310 309 307 306 305 304 304 303 303 303 303 302 301 300 299 298 296
294 296 295 295 292 296 302 304 307 295 298 307 307 307 306 305 306 309 308 307 308 307 307 308 309 308 308 309 308 306 305 302 303 303 303 301 300 300 299 298 297 296 295 295
293 293 293 296 293 290 305 304 300 306 311 309 310 309 309 309 308 307 306 305 305 305 305 307 306 306 307 308 306 304 302 303 302 300 299 298 297 295 296 295 294 293 292 291
294 299 297 298 299 307 307 307 310 311 310 311 311 311 311 309 306 305 304 304 304 304 305 305 305 304 305 306 305 301 300 300 299 297 295 294 293 292 292 291 290 290 289 288
301 304 300 300 304 306 308 310 310 311 311 312 312 312 311 308 306 304 303 303 303 304 304 304 303 302 301 302 301 299 298 298 296 293 292 291 290 289 289 289 288 287 287 285
300 302 300 300 302 305 307 308 309 311 311 310 310 311 310 308 305 304 302 303 303 303 303 302 301 299 298 298 297 297 296 295 292 290 289 288 287 288 287 286 286 285 283 282
299 299 299 297 302 305 306 310 311 312 311 310 309 309 310 308 305 304 303 303 302 301 301 300 298 296 295 294 293 294 294 292 289 287 287 287 287 286 286 285 284 280 280 279

GFSCGP_sfc_thetae_060.txt.gz
Theta_e
305 299 296 300 303 303 302 299 298 303 306 304 303 303 306 310 309 312 314 313 316 319 320 321 321 320 319 318 318 318 318 320 319 318 318 319 320 322 323 323 326 329 329 330
302 298 302 305 304 303 301 297 297 302 306 304 302 301 305 309 310 312 314 315 316 318 319 319 319 320 317 317 318 319 320 320 321 321 322 323 321 322 323 323 325 329 331 329
299 302 306 303 302 300 300 298 298 298 302 304 302 299 302 306 310 312 315 318 316 319 318 318 318 319 318 316 318 320 321 320 322 324 323 322 322 321 320 322 323 328 328 327
301 305 304 302 300 301 297 303 301 299 298 293 302 291 300 304 305 309 312 316 316 317 320 319 319 319 320 320 321 321 321 322 322 323 322 320 319 317 319 321 324 327 328 326
300 302 301 300 300 303 300 305 302 301 297 297 297 294 298 303 302 306 311 313 317 317 320 320 320 320 322 323 322 321 321 322 324 324 325 322 321 320 321 322 323 326 325 324
302 307 304 303 305 304 306 302 302 301 298 291 296 295 295 299 302 305 310 312 316 318 320 321 322 323 322 323 324 324 324 324 325 325 325 327 325 323 321 321 322 324 324 323
300 300 304 306 301 305 303 299 291 290 290 290 298 295 298 303 305 308 308 311 315 318 318 320 321 321 323 322 323 325 325 324 326 327 328 328 327 328 323 323 324 323 323 322
293 291 300 305 302 299 300 299 293 285 286 291 299 293 297 306 308 309 309 311 314 316 319 319 321 322 322 324 324 324 324 324 326 327 327 329 328 327 327 326 326 325 324 323
294 294 302 304 305 303 299 297 302 296 295 291 295 298 304 306 305 307 307 310 312 313 316 320 320 324 324 324 326 326 326 325 326 326 327 327 327 327 328 327 328 326 325 322
299 293 301 303 305 304 300 302 296 297 287 286 292 293 294 300 302 304 305 309 313 316 315 317 321 322 326 327 328 329 328 328 328 330 329 328 328 328 328 329 327 324 322 319
302 299 298 302 299 297 298 297 300 299 296 290 288 292 301 302 304 304 307 308 311 316 316 317 319 323 324 328 329 330 331 331 331 331 330 328 329 330 326 325 323 322 317 315
302 300 294 296 302 304 302 300 299 294 292 296 295 294 306 307 306 308 308 308 313 315 316 318 319 320 324 325 327 330 332 331 331 331 330 328 326 325 322 320 319 316 312 310
302 297 291 294 299 302 298 300 302 301 300 295 291 293 306 307 306 307 308 309 311 314 316 318 319 319 321 324 327 329 331 331 328 327 326 322 318 314 311 309 307 306 306 305
304 299 295 290 294 299 296 298 301 300 295 295 296 297 302 304 305 306 307 309 310 312 314 317 319 321 322 323 325 326 327 322 323 321 318 313 311 308 306 306 305 305 304 302
304 296 298 298 298 299 298 298 298 296 299 294 298 297 301 304 305 307 309 309 309 310 312 314 317 320 322 324 324 322 319 317 316 313 310 308 307 308 306 304 304 303 302 301
303 296 298 294 298 298 296 299 299 298 299 298 299 298 305 306 307 306 309 309 308 309 310 314 317 320 322 324 320 317 314 312 311 309 308 308 308 307 306 304 302 301 301 301
300 298 295 290 297 296 291 297 298 299 301 300 296 301 305 304 305 307 307 309 308 310 311 314 317 321 323 321 317 313 311 311 308 307 307 308 309 306 305 305 303 302 300 300
299 299 297 291 291 285 297 304 302 299 301 302 301 303 304 305 307 309 310 310 310 312 313 315 320 320 319 319 315 313 312 310 309 308 307 306 305 304 303 302 301 301 301 299
301 299 291 290 289 294 297 300 300 298 298 303 302 303 305 306 309 308 311 313 313 313 314 317 318 317 317 315 314 311 309 308 306 304 304 304 304 302 302 301 301 300 300 299
299 300 295 292 286 285 297 303 305 305 293 305 305 305 305 306 300 304 309 312 313 313 313 314 314 313 311 311 310 307 305 305 304 304 304 303 303 303 300 300 300 300 299 296
291 292 290 291 288 294 302 304 305 292 295 308 308 307 307 306 307 310 310 311 312 312 311 312 311 309 309 309 308 305 304 303 304 304 303 303 302 301 300 298 296 295 293 294
291 289 289 292 288 287 305 303 297 303 308 312 309 310 313 310 309 308 309 309 309 308 308 309 308 307 308 308 306 304 302 303 303 302 300 299 298 297 296 294 293 292 290 288
290 296 294 295 295 307 307 306 309 310 310 311 310 312 313 309 307 307 306 306 306 306 306 307 306 306 306 307 305 302 302 301 299 298 296 295 294 294 293 290 289 287 287 285
300 302 297 298 301 304 307 309 310 311 311 311 312 312 313 309 308 306 306 305 305 305 305 305 305 304 304 305 304 302 300 299 297 294 293 292 289 288 288 287 287 286 284 282
298 301 299 300 303 303 304 307 308 310 312 312 311 312 310 311 308 306 305 304 304 304 304 304 303 303 302 302 300 299 298 297 294 292 290 288 287 287 286 283 283 282 279 280
299 297 296 296 303 302 303 305 308 308 308 311 311 310 310 311 308 307 305 304 304 304 304 303 302 301 299 297 296 296 296 294 291 288 287 286 285 284 285 282 280 281 280 280

GFSCGP_sfc_thetae_063.txt.gz
Theta_e
300 294 292 294 296 298 297 296 293 295 302 301 299 299 302 306 308 307 308 308 313 313 314 315 313 312 311 311 313 314 313 313 314 312 311 311 313 316 317 318 320 324 325 324
297 293 299 301 300 299 299 295 292 297 302 300 297 296 304 306 307 307 309 311 313 313 314 314 313 311 312 311 313 314 313 313 312 313 313 313 315 317 320 319 319 325 326 327
294 297 302 301 299 297 297 295 294 295 299 301 296 293 300 306 307 308 310 311 314 312 312 313 313 313 312 312 312 314 314 314 313 313 314 316 318 317 317 318 318 323 326 326
297 302 300 300 298 299 293 300 300 298 295 288 295 286 295 302 304 307 311 311 313 313 314 314 314 311 312 312 314 315 316 317 316 317 315 315 316 314 315 316 317 322 325 325
296 298 298 297 299 301 296 303 301 299 294 290 291 288 292 300 297 302 310 311 311 315 314 313 313 312 313 313 315 316 316 316 317 318 319 318 316 316 316 316 316 319 323 323
298 303 301 299 303 302 303 300 299 297 293 285 291 290 289 294 298 302 307 312 313 314 316 315 315 316 313 314 315 316 317 316 317 318 319 318 316 316 316 316 316 320 323 324
297 298 301 303 298 301 299 295 286 284 284 282 296 294 293 299 302 304 306 312 311 313 316 316 315 315 316 314 315 316 316 316 317 318 318 319 320 320 318 316 317 320 320 320
290 288 297 302 299 296 297 295 287 282 281 285 297 290 294 302 304 305 305 307 313 313 316 316 317 316 317 318 318 317 316 316 318 319 320 321 323 324 321 320 320 321 321 321
290 291 300 300 302 300 297 292 298 291 292 285 291 296 300 302 302 301 301 303 310 313 315 316 318 318 318 318 319 319 318 318 320 321 322 323 323 323 323 321 321 320 321 321
296 290 299 300 301 301 298 299 291 292 284 282 289 290 291 298 300 301 299 302 305 308 313 317 318 318 320 320 320 320 321 320 321 322 322 322 324 324 323 321 320 322 320 320
298 293 294 299 296 295 295 294 293 295 293 283 281 287 298 299 302 299 300 302 305 305 307 310 317 319 320 321 321 320 320 321 321 322 323 323 323 323 321 323 323 319 316 316
298 295 289 293 300 302 299 296 295 287 289 292 287 287 302 300 301 301 300 303 304 308 308 309 311 316 320 320 321 322 322 322 323 324 324 324 323 322 320 320 319 317 313 312
298 293 286 289 295 298 295 296 297 297 295 289 285 288 302 303 304 303 300 302 305 307 309 310 311 311 315 320 322 323 324 328 326 325 323 321 318 315 312 309 310 309 308 306
301 293 290 286 290 296 293 295 297 296 289 290 290 293 300 302 302 301 301 301 304 306 311 311 311 312 314 319 319 322 325 324 321 318 316 312 310 307 306 307 305 305 304 303
300 291 293 294 296 298 297 296 296 295 296 293 295 295 299 301 302 301 303 304 303 305 309 312 312 313 317 316 314 314 313 313 313 311 309 306 306 306 305 303 303 302 301 301
301 291 293 291 296 297 295 297 296 296 296 298 297 296 302 302 301 302 304 304 303 304 307 311 315 317 318 314 311 310 309 308 309 308 306 305 304 303 303 302 301 300 300 300
296 293 291 287 294 294 287 293 295 297 299 296 293 298 300 300 300 301 301 304 303 303 304 309 314 319 317 313 311 307 307 307 307 307 307 306 305 303 302 301 300 300 299 298
295 294 291 285 289 282 293 299 299 298 299 299 298 298 299 300 300 301 302 303 303 305 306 314 316 317 314 311 309 308 307 307 307 307 307 306 305 303 302 301 298 296 295 294
297 296 287 285 286 290 294 297 297 296 295 299 297 298 299 299 300 299 305 305 306 306 308 313 314 314 311 309 308 307 306 307 306 304 303 303 302 299 299 298 298 299 298 296
297 296 288 285 282 281 291 299 304 302 290 300 301 300 300 299 293 296 304 307 307 308 312 312 312 311 310 309 308 306 305 303 302 302 301 301 301 300 300 299 299 298 296 295
286 288 286 286 285 288 298 302 304 290 290 302 302 301 301 298 299 301 306 306 307 307 308 308 308 308 308 307 306 302 301 300 302 301 301 301 300 300 300 297 294 292 290 288
288 285 284 287 283 282 302 301 294 298 302 303 302 302 301 303 303 305 306 305 306 305 306 307 305 304 305 305 304 301 300 301 302 301 300 298 299 298 295 291 289 289 287 284
286 290 288 290 289 300 304 302 305 306 305 305 304 305 306 304 303 305 304 303 304 303 303 304 303 302 302 303 303 299 299 300 299 297 296 294 293 292 290 287 286 285 284 282
294 298 293 293 297 299 301 306 306 306 306 307 307 306 307 306 305 302 302 302 301 301 301 301 301 300 299 301 301 300 299 298 296 293 291 289 287 286 285 286 285 283 281 279
293 297 295 294 298 301 301 303 305 304 306 307 307 306 306 305 303 303 302 300 301 301 301 301 300 299 299 299 298 297 297 295 292 290 287 286 285 283 281 282 281 279 278 280
294 291 291 290 299 299 300 303 307 306 306 307 305 306 305 305 303 302 300 300 300 300 299 299 299 298 295 295 294 294 294 292 289 285 284 283 283 282 281 280 278 280 280 281

GFSCGP_sfc_thetae_066.txt.gz
Theta_e
298 292 290 291 294 295 294 292 291 294 299 299 298 297 300 304 304 306 305 306 309 309 311 311 311 311 311 313 314 314 314 313 312 311 312 311 310 313 316 315 317 320 320 323
295 291 296 297 297 296 295 293 292 295 300 299 296 295 299 303 304 307 308 306 309 310 310 311 310 309 309 311 312 312 312 312 312 312 312 311 309 311 314 315 316 319 321 322
293 296 300 298 296 294 294 293 293 293 295 296 294 292 297 303 305 307 308 309 312 311 309 310 309 309 308 309 311 312 312 312 312 312 311 310 311 313 313 315 316 317 321 323
295 300 298 296 295 296 291 298 297 296 293 287 293 284 293 301 302 304 306 309 312 312 312 311 310 308 308 309 312 313 312 312 313 313 311 309 310 310 313 314 315 315 321 322
295 296 296 295 296 299 295 300 298 298 293 289 290 285 289 298 299 302 305 308 312 312 313 311 311 310 310 311 311 313 313 312 313 312 311 310 311 313 316 316 315 315 319 322
297 302 299 298 301 300 301 297 297 295 291 284 290 288 286 291 297 301 306 308 311 312 313 314 313 313 311 312 312 313 312 312 313 312 312 311 312 314 315 314 314 315 318 321
295 296 299 300 296 298 297 292 284 283 283 282 292 290 291 296 299 302 307 309 310 313 312 312 312 310 311 310 311 312 312 312 313 313 314 314 315 316 314 314 314 314 316 319
288 286 296 299 297 294 294 293 285 281 280 284 293 288 293 300 302 303 311 312 312 313 314 312 312 311 311 310 311 312 312 312 314 314 314 316 317 317 317 316 317 316 317 320
289 289 298 299 300 298 295 290 297 289 289 284 288 293 298 300 300 299 303 310 310 311 314 314 313 312 312 311 311 312 313 313 314 314 315 316 317 317 318 319 316 317 319 318
294 288 297 299 299 299 297 298 289 290 283 281 287 288 290 296 297 298 297 303 306 310 311 315 315 314 315 314 314 314 315 314 314 314 315 316 317 318 320 317 318 319 320 320
296 292 292 297 294 292 293 291 292 293 291 283 280 285 296 298 299 299 298 302 303 309 311 314 316 317 317 317 317 315 315 316 316 317 317 317 319 321 320 320 320 319 319 321
296 293 288 291 298 299 297 295 293 286 287 288 285 288 298 299 301 299 299 302 304 308 312 314 316 317 317 317 318 318 318 317 318 320 320 319 320 321 322 322 320 319 318 314
297 290 285 287 292 296 293 295 296 294 291 286 282 287 300 300 300 300 299 299 302 305 305 306 309 315 317 318 318 319 320 320 323 324 322 321 321 320 320 319 318 317 313 310
301 295 289 285 289 293 291 293 296 294 285 287 287 291 297 299 299 301 301 299 302 304 307 307 307 310 314 317 318 318 320 321 322 319 321 320 322 322 320 314 311 309 309 306
299 290 293 293 294 295 294 294 294 292 292 289 291 293 297 299 301 302 303 301 302 303 306 308 308 314 312 313 315 319 321 321 318 316 317 311 310 311 310 308 307 306 305 304
299 291 292 290 294 295 293 295 295 294 293 293 295 294 301 302 302 301 301 303 301 303 306 309 311 315 313 311 313 314 317 315 314 310 308 307 307 306 306 305 303 302 301 301
295 292 290 286 291 292 287 292 294 294 295 296 292 297 302 301 301 301 302 302 301 302 304 308 313 315 313 311 310 310 311 311 310 308 307 306 305 303 303 302 302 300 299 299
293 291 290 284 285 281 292 298 297 295 296 298 298 299 302 302 303 302 302 302 302 302 302 308 314 316 312 309 308 307 309 309 308 306 306 305 303 303 302 301 299 298 297 296
298 292 285 283 283 289 292 295 295 294 292 298 298 298 299 299 298 298 303 303 304 302 304 309 315 313 309 308 307 307 306 306 307 305 304 304 303 301 300 299 297 296 295 293
295 294 287 284 282 280 289 296 301 301 288 298 300 300 300 299 291 295 302 305 306 308 311 311 310 308 307 307 306 305 304 304 304 304 304 303 301 299 298 298 296 295 295 294
285 285 284 285 284 286 295 300 302 289 289 300 302 301 301 296 298 300 304 305 307 310 310 309 310 308 307 306 306 303 302 301 302 302 301 299 299 298 298 297 296 293 290 289
285 284 283 285 283 280 300 300 294 296 300 303 303 302 300 300 301 302 305 305 306 307 306 308 307 305 305 305 304 300 300 300 300 300 299 298 299 299 299 293 290 288 286 284
285 290 287 289 288 298 301 302 304 304 302 303 302 303 303 301 300 303 303 304 305 306 305 305 303 301 302 302 302 299 298 300 299 298 296 295 293 292 291 289 287 285 284 282
290 296 291 291 295 297 299 304 304 305 303 305 306 304 303 303 302 302 302 302 302 302 302 301 301 300 298 299 299 299 299 299 297 293 290 290 288 285 285 285 285 283 281 281
291 294 293 292 296 299 300 301 302 304 305 305 306 304 304 303 304 302 302 302 302 302 301 302 300 300 297 298 297 297 297 295 292 288 287 285 284 283 281 279 280 280 280 281
293 292 290 288 296 297 298 299 303 303 302 303 304 304 303 304 304 303 301 301 301 300 299 299 298 297 296 295 294 293 293 292 287 284 283 281 280 281 279 278 278 282 282 282

GFSCGP_sfc_thetae_069.txt.gz
Theta_e
297 291 288 292 292 293 292 290 288 292 296 296 295 296 298 301 301 302 302 305 307 308 309 309 309 311 313 315 314 314 315 315 315 315 315 313 311 312 315 316 319 319 320 321
293 290 294 295 295 294 292 290 289 293 296 296 294 295 297 300 302 303 303 303 306 307 307 308 308 309 311 314 314 314 313 313 314 314 314 314 311 312 314 315 316 318 319 319
291 294 298 295 293 292 292 290 290 290 294 296 292 291 294 300 303 304 307 306 309 308 307 308 308 308 309 312 313 311 312 311 311 310 312 311 311 312 312 313 314 314 317 319
293 298 297 294 293 293 289 295 295 293 290 286 292 283 290 296 299 303 304 306 308 309 310 309 308 307 307 308 310 311 311 310 310 310 308 308 309 307 308 308 310 311 316 319
291 295 294 293 294 296 293 297 295 294 290 287 288 284 288 295 297 300 303 305 308 310 311 309 308 308 308 308 309 310 311 311 311 310 309 307 306 308 308 309 310 311 313 317
294 299 297 297 299 297 299 296 294 292 289 283 288 286 286 290 296 299 304 305 308 311 312 311 311 309 308 307 308 310 311 311 312 311 310 308 308 308 309 310 312 313 313 315
292 294 297 298 294 297 295 290 283 281 281 282 290 286 288 294 296 300 301 305 307 311 311 311 310 308 308 307 307 309 310 310 311 311 310 309 309 309 310 311 312 312 313 313
285 283 293 298 296 293 292 291 283 280 279 282 290 286 291 298 301 301 301 305 308 310 311 312 312 311 309 309 309 309 310 310 311 311 311 311 310 310 312 313 314 313 314 315
286 285 296 298 298 297 292 288 294 287 286 283 286 290 295 298 299 299 302 305 306 308 311 312 313 312 311 310 310 310 310 311 311 311 311 311 311 312 313 315 316 316 315 315
292 286 295 297 297 297 295 297 287 287 281 280 284 286 287 294 296 297 298 305 307 309 311 312 313 313 312 312 311 311 311 311 311 312 312 312 312 314 315 316 314 315 316 319
294 290 289 295 292 291 291 291 291 291 287 282 280 284 293 296 298 297 296 302 307 308 311 313 313 313 313 313 311 311 311 311 311 312 312 312 312 315 316 317 316 316 319 319
294 290 286 290 295 297 295 293 292 285 284 286 283 287 296 298 299 299 299 300 301 308 310 311 314 315 313 312 312 311 312 313 314 314 314 314 314 315 316 317 318 319 320 320
298 289 284 286 290 294 291 293 294 292 289 286 283 285 298 298 299 299 298 297 299 301 306 310 311 314 315 314 314 313 313 314 316 316 315 315 315 316 317 319 320 320 319 317
300 293 288 283 287 291 289 292 294 293 285 285 287 289 293 297 298 299 299 299 299 300 303 305 308 313 315 316 315 315 315 315 316 317 316 316 316 317 319 320 320 320 315 312
299 289 292 292 294 293 293 292 293 291 291 287 290 289 293 296 298 300 300 300 299 300 302 304 305 307 311 315 316 316 316 317 317 316 317 317 318 319 320 318 315 310 309 308
298 290 290 288 293 292 290 293 293 292 292 292 292 291 299 300 299 299 301 302 300 300 301 306 307 312 312 313 313 314 316 317 318 318 317 318 314 314 314 311 308 307 306 304
294 291 288 283 290 290 286 290 292 293 294 293 289 294 299 298 299 299 301 301 301 300 302 304 308 313 313 312 313 315 316 316 317 316 312 311 311 309 307 306 305 303 302 301
291 289 288 284 286 280 291 296 296 293 295 296 295 297 299 299 301 302 300 301 300 300 301 303 309 313 311 308 313 312 313 313 311 309 309 307 307 306 304 304 302 300 300 298
295 289 284 281 282 288 289 294 293 292 292 297 295 297 298 298 295 296 300 300 302 302 303 303 310 312 307 309 310 311 310 310 309 307 306 305 305 303 301 300 299 298 299 298
294 292 286 284 280 278 286 294 297 298 288 297 300 299 295 296 290 293 299 301 300 301 304 308 308 308 307 306 309 308 308 308 307 306 305 304 303 302 300 299 297 297 297 295
285 285 285 284 283 284 293 296 300 287 288 299 301 298 298 295 296 299 299 303 303 305 308 308 308 307 306 306 306 305 306 306 307 306 305 303 302 301 300 298 296 296 294 289
283 283 280 285 282 277 298 298 293 296 299 300 301 300 300 301 301 301 302 302 306 307 308 308 306 304 304 305 305 302 302 302 303 302 301 300 299 299 298 294 293 291 288 284
283 286 283 285 286 295 297 298 300 302 302 302 302 302 301 302 301 300 301 302 305 305 305 307 304 302 303 304 304 301 297 299 299 299 298 298 298 296 294 291 288 286 285 285
287 292 288 289 292 295 297 299 304 305 303 304 305 303 301 300 301 301 301 302 303 303 302 301 302 301 298 299 300 299 299 298 297 296 295 293 290 288 289 288 287 284 283 282
287 290 289 289 293 296 299 300 301 302 303 304 304 304 303 301 301 302 302 302 302 302 301 302 300 299 297 298 297 298 298 296 293 291 289 287 286 283 282 282 283 282 282 284
291 290 286 284 294 293 297 301 300 300 301 302 303 303 304 302 302 302 302 301 301 300 300 298 297 296 296 296 295 296 296 293 289 285 285 284 283 282 281 280 279 283 283 283

GFSCGP_sfc_thetae_072.txt.gz
Theta_e
296 291 289 289 291 291 289 288 287 288 293 291 291 291 296 297 300 300 302 304 306 307 308 308 310 314 313 313 315 316 316 316 316 315 313 314 314 317 318 319 318 317 317 316
291 289 295 295 293 292 290 288 287 291 294 292 291 292 296 297 299 301 301 301 305 306 306 307 310 310 313 312 314 314 315 315 316 316 316 316 313 313 315 317 319 319 319 319
291 293 297 293 291 290 290 289 288 289 291 292 290 290 292 296 299 302 303 303 305 307 306 306 307 308 311 312 313 313 314 315 316 317 315 312 312 313 312 314 314 316 318 319
292 297 294 292 291 291 287 292 292 290 288 284 290 282 289 293 295 300 302 304 304 307 308 307 307 307 308 311 312 313 313 313 312 310 312 311 311 310 312 313 312 314 317 317
290 293 293 291 292 293 290 294 292 291 288 286 286 283 287 291 294 296 300 303 305 307 308 307 307 308 308 308 312 310 310 310 309 309 311 309 309 311 308 309 310 310 312 315
292 297 295 295 297 295 297 293 292 290 288 281 287 285 284 288 294 296 299 302 304 306 309 309 309 308 308 309 308 309 309 309 310 309 308 308 307 306 306 306 307 308 310 311
290 293 296 298 293 295 293 289 282 280 280 281 288 285 289 293 295 297 298 300 303 306 309 308 307 306 306 306 308 310 309 309 310 309 309 308 308 307 307 307 307 307 308 309
285 284 293 297 295 292 291 289 282 279 278 282 289 284 290 297 299 299 299 299 301 305 309 309 309 307 307 306 307 309 309 309 310 310 309 309 308 308 308 308 309 309 310 309
286 285 294 296 297 297 291 286 292 285 284 282 286 289 294 296 297 298 297 300 300 303 308 310 310 309 308 307 307 308 309 310 310 310 311 309 309 308 308 309 310 311 311 312
291 285 294 296 296 295 293 294 286 285 280 279 283 284 286 293 295 297 296 301 302 303 308 309 311 311 310 309 309 309 310 310 310 310 311 310 310 309 309 310 311 313 314 312
291 289 289 294 290 289 290 289 289 289 285 281 279 283 292 294 296 296 296 296 303 304 306 310 311 312 312 311 310 309 310 311 310 310 310 310 310 311 312 312 313 314 314 314
293 288 284 288 294 295 292 291 291 285 283 285 283 286 295 296 297 298 299 299 298 306 306 309 310 311 312 311 310 310 310 311 312 311 311 311 311 312 312 313 313 315 315 316
296 288 281 284 289 293 289 291 292 291 288 286 283 285 297 296 297 298 298 299 298 300 303 307 310 310 310 311 310 310 310 311 312 312 311 312 311 311 311 311 313 315 316 317
300 293 289 282 286 291 288 290 292 291 285 284 287 288 292 295 296 298 298 298 299 298 300 304 306 310 312 311 311 310 310 311 312 312 311 311 311 312 311 311 313 315 317 317
297 288 291 292 294 293 292 291 291 288 290 286 287 289 292 295 296 298 299 299 299 299 299 301 305 308 311 312 311 312 311 311 312 311 311 311 311 312 310 312 315 316 317 318
296 287 289 287 292 292 289 292 291 290 290 290 290 290 296 297 296 297 298 299 299 300 300 300 303 305 309 311 312 312 312 312 312 311 311 312 313 313 313 314 316 318 316 314
290 289 286 282 290 289 283 288 289 291 292 292 288 292 297 296 298 299 299 300 299 300 301 301 304 306 307 309 312 312 313 314 312 312 312 313 313 313 315 315 312 310 309 306
289 289 286 282 284 277 287 295 293 291 293 294 294 295 297 298 299 299 300 300 300 300 301 301 304 306 309 309 309 310 311 313 313 313 313 315 314 313 308 306 306 306 304 303
295 288 283 277 280 284 286 290 293 289 289 293 294 296 297 298 294 295 298 300 301 301 302 301 302 306 309 310 310 312 312 312 313 314 312 312 311 307 305 303 302 301 301 300
291 290 284 284 277 275 283 293 297 296 284 296 298 296 296 295 291 293 300 297 299 299 298 299 302 306 308 309 311 311 311 311 311 310 309 307 306 304 303 301 299 300 299 296
286 285 283 283 281 283 290 297 299 284 284 296 299 298 297 294 296 298 299 301 300 302 304 305 306 306 307 310 311 309 309 309 309 307 306 305 304 303 302 299 298 296 293 290
282 281 283 284 282 279 294 297 291 294 296 297 300 299 298 298 299 300 300 300 302 304 307 307 304 303 306 308 309 308 307 306 306 305 303 303 302 300 298 295 294 291 288 286
280 284 282 284 284 292 294 293 299 300 298 298 300 303 301 299 297 298 299 301 302 305 303 305 303 303 304 305 306 305 301 303 302 300 299 298 297 295 294 292 289 288 287 285
286 290 286 286 287 291 293 295 299 300 300 301 303 304 304 301 300 299 299 300 301 302 303 303 301 301 300 301 300 299 299 300 300 297 295 293 292 290 290 290 289 287 285 284
286 288 287 287 290 293 293 295 299 300 302 303 305 304 301 300 300 301 300 301 302 302 302 301 299 298 297 297 298 298 298 298 294 292 290 288 287 285 283 283 285 285 285 285
289 287 284 283 291 290 292 295 297 297 298 300 301 302 302 300 299 301 301 300 301 300 300 299 297 296 296 295 295 295 296 294 290 287 286 285 284 283 283 282 281 284 284 284

GFSCGP_sfc_thetae_075.txt.gz
Theta_e
300 295 293 295 296 294 293 291 291 294 296 295 295 295 299 302 305 306 308 311 313 315 317 316 315 316 315 317 318 318 318 318 318 318 318 318 318 319 319 318 317 317 315 317
295 292 298 297 296 295 294 292 292 294 296 296 296 295 300 302 303 306 307 308 312 313 313 313 313 315 314 314 316 317 317 317 318 318 321 320 318 320 320 319 317 317 316 316
293 295 298 296 294 293 293 292 292 291 294 296 295 294 298 302 303 305 307 309 310 313 311 309 311 310 314 312 313 315 316 317 318 318 316 315 316 317 317 317 317 317 317 317
294 298 296 294 293 295 290 295 294 293 291 287 296 287 295 299 300 302 305 308 309 311 314 312 309 309 311 314 315 318 317 317 318 318 316 315 313 312 315 317 317 318 318 319
292 294 294 292 293 295 293 296 294 294 291 290 291 289 293 295 298 302 304 307 310 311 313 312 311 310 311 314 315 316 317 317 317 319 319 315 315 316 318 316 316 318 318 318
294 299 297 296 297 296 298 295 294 294 292 286 291 291 291 295 298 301 303 306 309 311 313 314 314 313 311 313 315 314 316 317 316 317 318 318 315 316 314 314 314 315 317 318
292 294 298 299 294 297 296 293 286 285 285 284 292 289 293 299 300 301 303 305 307 311 312 313 312 311 310 310 312 311 314 314 315 315 317 317 316 316 315 316 317 316 316 316
285 284 294 299 297 293 293 292 287 281 283 286 290 287 293 301 303 303 304 306 306 309 313 313 313 313 311 310 311 310 311 314 315 315 315 317 317 316 316 316 315 316 317 318
286 286 295 297 299 299 293 290 296 288 289 287 290 294 298 302 302 303 303 304 306 307 312 313 314 314 313 312 312 312 313 314 315 316 315 315 316 316 316 317 318 319 318 318
292 286 294 295 298 298 296 298 289 290 282 281 287 289 291 297 300 301 303 304 304 308 311 313 314 314 314 314 314 314 315 315 315 316 316 315 315 316 317 318 317 317 319 319
294 292 291 295 293 291 293 292 293 293 290 285 283 288 298 299 301 302 304 305 305 308 311 314 315 315 315 315 314 313 314 315 315 316 316 316 316 316 316 315 315 317 319 319
296 290 286 288 295 297 296 294 294 288 286 288 288 289 300 302 303 303 304 305 307 306 311 313 315 316 315 314 314 313 314 315 317 316 316 316 316 316 315 315 316 318 318 319
296 291 285 286 291 295 292 293 294 293 291 288 286 289 300 300 301 303 303 306 306 306 306 313 315 315 316 315 314 314 314 315 316 316 315 316 316 316 315 316 317 317 318 318
299 293 289 284 287 293 290 293 295 292 287 288 289 291 296 300 300 304 305 305 306 306 305 308 313 315 316 316 315 315 315 316 316 316 315 315 315 316 316 317 317 318 318 318
296 287 289 290 291 292 291 291 292 291 292 287 290 291 295 299 301 303 306 304 304 304 305 305 309 313 316 316 316 315 316 316 317 315 315 314 315 316 316 317 317 317 318 318
291 288 291 288 292 291 289 292 292 293 293 292 292 292 299 302 302 299 301 303 303 304 305 307 307 310 312 315 315 315 315 315 316 316 315 316 316 316 315 315 316 316 317 318
287 290 288 283 290 290 284 289 292 292 294 294 290 295 299 300 300 301 302 304 303 304 305 306 307 308 311 314 316 315 316 316 315 315 315 315 316 315 315 315 316 317 318 319
286 286 288 283 285 278 289 296 296 293 295 296 296 296 298 299 302 304 305 305 306 306 306 307 308 309 311 313 317 319 317 315 315 315 315 315 316 316 316 316 317 318 318 316
290 287 285 283 282 286 289 291 291 292 291 298 297 299 301 301 301 301 302 303 306 307 307 307 308 309 310 313 314 316 316 316 315 315 315 315 316 316 314 314 312 308 306 305
290 291 287 283 280 278 287 294 299 297 287 298 300 300 300 301 295 298 304 303 303 304 305 305 305 305 308 313 315 315 315 316 316 316 316 317 317 309 307 305 303 302 302 299
284 286 283 283 281 286 293 296 301 286 289 299 299 301 301 299 301 303 304 304 305 306 309 311 310 309 311 314 316 315 315 314 316 313 310 309 309 308 306 303 300 298 295 292
285 283 283 284 281 280 295 297 291 296 301 299 300 301 302 304 303 304 304 304 305 307 309 310 308 307 310 314 315 313 311 309 309 309 307 305 305 303 302 299 295 292 290 287
285 289 287 288 288 295 298 297 299 302 300 301 301 302 303 303 304 303 304 304 305 306 308 307 306 304 306 309 311 306 305 307 305 303 301 299 298 297 296 293 290 288 288 286
290 292 289 289 292 294 295 297 299 299 299 300 301 302 303 304 305 305 304 305 305 306 306 307 305 303 302 305 306 305 304 302 300 298 296 295 292 291 291 290 289 287 286 285
289 291 290 289 292 294 296 297 297 297 299 299 299 302 304 304 303 302 302 303 304 304 304 305 303 301 300 300 300 302 301 300 295 293 291 289 288 286 284 284 286 285 285 286
292 290 288 287 290 290 292 296 296 294 295 295 292 292 293 292 295 297 293 295 296 299 300 299 297 296 294 294 295 296 298 296 292 289 288 287 286 285 284 283 282 284 283 283

GFSCGP_sfc_thetae_078.txt.gz
Theta_e
303 298 295 298 300 300 300 298 297 300 301 299 299 300 303 306 308 310 312 315 317 320 324 324 325 324 321 321 322 322 319 320 321 321 321 319 318 318 318 319 319 319 318 321
299 295 299 301 302 300 299 296 296 300 301 299 299 298 303 305 307 310 311 314 316 319 322 321 321 322 321 319 320 320 319 319 321 323 324 322 320 320 319 318 318 317 318 318
296 298 300 299 298 297 298 296 296 296 299 301 299 297 299 304 308 310 312 314 315 318 320 320 319 320 321 318 319 318 320 319 320 322 323 321 321 320 317 317 316 318 318 319
296 300 298 298 296 298 294 300 298 297 296 292 299 290 298 302 304 307 309 313 315 316 320 321 319 320 320 320 319 319 320 319 320 321 321 321 319 315 318 316 317 317 318 318
294 296 295 294 296 299 296 300 298 298 296 296 296 292 297 301 301 304 308 310 315 317 319 320 320 321 321 322 316 319 321 320 320 320 322 321 318 319 321 318 317 317 318 320
296 301 299 298 299 300 301 298 297 297 295 289 294 293 295 298 302 305 307 309 312 316 319 321 322 322 321 322 321 320 319 319 322 319 320 320 318 316 317 316 316 316 316 316
293 295 299 300 295 299 298 296 290 288 288 287 295 293 296 302 305 306 307 309 312 316 318 320 320 320 320 320 320 319 320 318 320 321 320 321 320 317 317 318 318 315 316 316
286 285 294 299 297 294 295 296 291 284 287 291 295 291 297 304 307 309 310 311 312 314 318 319 321 321 321 320 320 317 320 321 321 320 321 322 321 320 322 324 323 320 318 318
287 287 297 298 299 299 295 292 298 292 294 290 294 297 302 305 305 307 308 310 311 313 317 319 321 322 322 321 320 319 319 321 322 322 323 323 324 323 323 323 325 323 322 322
293 287 294 297 300 301 300 301 292 293 285 284 291 293 295 299 302 305 307 309 310 313 315 318 320 321 322 322 322 320 320 320 322 322 323 323 323 323 324 325 324 325 325 324
294 293 292 295 294 294 296 295 296 297 294 288 287 292 302 301 304 305 307 309 311 313 316 318 320 322 323 324 322 321 320 320 321 322 323 322 323 324 324 324 324 324 325 324
297 294 290 292 297 300 298 296 297 291 290 293 292 293 304 305 307 308 308 310 311 313 316 319 320 321 322 322 322 321 321 320 321 322 323 323 323 322 324 325 325 326 325 325
296 292 286 288 294 297 296 297 297 297 296 291 290 293 304 305 305 306 308 310 311 312 313 318 321 321 321 321 322 322 322 322 322 322 322 322 322 322 321 321 323 323 322 323
297 295 290 285 289 294 292 294 296 296 291 292 292 294 299 301 302 304 307 309 311 312 312 314 319 321 322 322 322 322 322 323 323 322 321 321 322 323 322 322 321 322 321 320
296 289 291 293 294 293 293 293 294 292 294 291 293 294 298 301 303 305 306 308 309 310 311 312 314 319 322 322 323 322 323 322 323 322 321 322 321 322 322 321 321 322 322 320
295 289 291 288 292 292 290 293 294 294 295 295 296 295 303 305 306 305 305 306 306 307 310 311 313 314 318 321 323 323 322 322 323 321 322 322 322 321 321 321 322 322 322 321
289 291 289 285 291 290 287 292 293 295 298 298 294 296 301 301 302 304 306 307 307 308 310 311 312 312 314 318 322 322 323 324 322 322 322 322 322 321 321 321 320 320 320 321
289 290 290 286 288 280 291 297 298 297 297 300 299 300 303 304 306 308 308 308 308 308 310 312 314 314 315 317 320 323 324 322 322 321 321 322 321 321 321 321 320 320 320 320
293 290 287 284 284 288 290 293 294 293 293 300 299 302 304 306 308 307 309 310 309 310 311 310 313 313 313 314 317 320 322 322 321 320 320 321 321 320 320 319 320 320 320 320
292 293 288 286 281 279 290 297 301 299 289 300 302 301 301 304 300 304 309 310 311 312 314 313 315 315 314 314 315 316 319 320 319 320 321 321 321 320 320 320 319 316 318 313
284 286 283 285 284 288 295 298 302 288 290 300 301 300 300 300 302 307 309 310 311 312 313 316 316 314 315 316 317 316 317 318 321 322 322 321 321 319 318 316 311 305 299 295
286 285 284 285 282 281 299 298 292 297 301 302 303 303 304 305 305 305 308 309 310 310 313 315 314 312 312 315 317 317 317 319 319 318 317 317 317 311 308 303 300 296 293 289
286 290 288 290 289 298 301 299 302 303 302 303 303 304 305 305 305 307 308 309 310 310 312 313 313 309 308 309 312 314 311 314 314 313 308 305 303 301 300 298 294 291 291 289
293 296 292 291 295 296 299 301 302 302 301 303 303 302 305 304 307 307 308 308 308 310 311 312 311 307 303 304 304 307 306 307 303 299 296 295 294 293 292 291 291 290 288 286
293 294 291 292 295 297 298 300 300 300 302 301 300 299 298 298 300 300 302 301 301 304 306 308 307 302 300 299 298 299 300 300 296 294 293 291 289 287 285 284 287 287 287 287
295 292 291 289 295 294 296 299 298 298 298 298 296 295 295 294 294 295 294 295 295 296 295 293 292 292 292 291 290 291 294 294 292 289 288 287 286 286 284 283 282 284 284 284

GFSCGP_sfc_thetae_084.txt.gz
Theta_e
298 292 290 294 300 300 299 296 296 300 305 303 302 301 304 308 308 309 309 310 311 315 321 325 327 327 327 328 325 325 324 325 324 322 318 317 315 316 315 316 316 316 316 318
296 290 296 297 298 299 298 295 295 301 304 303 301 300 304 306 307 308 308 309 311 314 317 323 326 326 326 325 324 324 323 323 322 322 320 318 316 316 315 315 315 315 315 316
293 296 297 295 296 294 296 295 296 296 301 303 301 298 301 305 308 309 309 310 311 313 315 322 324 325 326 324 323 323 322 322 322 322 320 318 317 315 313 312 313 314 316 316
295 299 295 294 294 297 292 300 299 298 297 293 302 290 299 303 305 307 308 309 310 312 316 322 324 324 325 324 324 322 321 321 321 322 318 316 312 310 311 310 312 312 315 316
293 295 295 293 296 299 295 300 299 298 296 296 296 293 297 303 301 305 307 308 312 313 315 319 324 325 326 325 323 322 320 321 322 322 318 316 313 312 312 311 309 311 315 318
295 299 296 298 300 301 301 299 297 298 296 289 294 293 294 298 302 305 308 310 312 313 315 318 325 325 324 325 323 320 319 320 321 321 318 316 314 313 312 310 309 311 314 316
292 293 296 297 296 299 297 294 285 284 286 286 296 293 296 303 306 307 308 310 312 315 315 317 322 322 323 323 322 320 319 318 320 321 320 318 316 314 313 312 311 311 312 313
285 285 293 297 294 294 295 294 287 282 285 288 296 291 297 306 308 309 310 312 315 313 316 317 322 323 323 323 322 320 319 319 319 320 320 321 318 317 315 315 314 312 312 312
286 288 297 297 298 298 294 291 296 290 291 288 294 298 303 305 305 307 308 310 310 313 314 316 320 323 323 323 322 320 320 320 319 319 321 321 321 318 317 316 315 314 314 314
291 285 294 297 298 298 296 299 288 290 283 283 291 293 295 300 302 305 307 310 312 314 314 315 317 323 323 324 324 321 322 321 320 320 320 321 321 321 320 319 316 315 315 315
293 290 288 293 292 292 293 291 293 293 291 286 286 291 302 303 305 306 308 310 312 314 316 317 318 323 324 325 324 322 321 321 322 321 320 320 321 322 322 321 320 317 316 316
297 293 285 288 296 299 298 295 293 288 289 291 290 290 305 307 306 307 308 308 312 314 316 319 320 321 323 324 324 323 322 320 323 323 321 320 321 321 321 321 322 320 317 317
292 290 284 286 292 296 293 296 296 295 294 289 287 291 305 306 306 306 306 307 309 311 313 316 319 320 322 323 324 323 323 321 321 324 323 322 322 321 321 321 323 322 321 320
296 291 289 284 288 293 290 293 296 295 289 290 290 293 299 302 303 305 307 309 308 309 310 311 316 320 321 323 324 324 324 324 322 322 323 322 322 323 322 322 322 323 324 322
293 287 290 291 293 293 294 293 294 293 294 290 293 294 299 302 304 305 307 307 307 307 309 310 311 313 320 321 323 324 325 325 324 321 320 322 323 323 324 324 323 322 323 323
294 287 289 287 293 292 290 293 293 295 295 296 296 295 303 306 305 305 305 306 306 307 309 311 312 312 313 315 322 323 324 325 325 323 321 321 323 323 323 322 322 322 322 322
290 288 287 283 290 291 287 292 293 294 296 295 291 297 302 302 302 303 304 307 307 308 309 311 312 313 313 314 316 322 324 325 325 324 324 323 322 322 323 322 321 321 321 322
289 288 288 284 287 280 291 298 298 295 297 298 298 300 302 302 304 307 308 307 308 309 310 311 313 314 316 317 317 317 318 324 324 324 324 324 324 322 322 322 321 320 320 320
294 290 286 283 283 287 290 294 293 292 292 300 300 300 301 302 304 305 307 308 308 310 311 311 314 315 316 316 317 317 317 315 322 323 323 324 324 323 322 321 320 321 320 320
293 294 288 286 280 278 289 295 300 299 288 300 300 299 300 301 296 300 306 307 307 310 312 311 314 316 313 313 315 315 317 317 317 319 323 324 324 323 322 322 321 321 321 320
286 288 284 284 283 287 294 298 300 287 290 301 301 301 301 299 301 305 307 307 309 311 311 313 315 311 308 307 308 312 313 310 315 319 319 320 324 323 323 322 322 321 320 310
286 284 283 285 282 280 298 297 292 298 302 301 301 301 300 301 303 304 306 307 308 308 309 310 310 306 301 300 299 301 300 304 308 311 308 306 307 311 316 317 306 304 299 293
286 289 287 288 287 297 302 301 302 303 301 301 300 301 301 300 301 302 303 304 304 304 302 302 301 299 297 295 294 293 295 300 299 297 296 295 296 296 297 302 300 296 294 290
294 296 290 291 295 297 299 300 301 302 300 301 301 300 300 298 299 299 301 299 299 299 296 297 294 292 289 290 290 289 291 296 293 291 289 288 287 287 287 289 289 289 289 287
293 294 292 293 295 297 296 298 299 299 299 298 300 299 297 297 296 297 296 294 293 293 291 291 289 287 286 287 286 288 290 292 290 288 287 286 285 284 282 282 283 284 285 287
295 291 291 289 293 293 292 296 298 297 296 296 296 295 296 294 294 294 293 290 289 287 286 285 284 283 283 283 283 285 288 289 288 286 285 284 284 283 282 281 280 284 283 283

GFSCGP_sfc_thetae_087.txt.gz
Theta_e
294 286 283 289 293 296 296 294 293 295 300 299 298 298 300 300 300 301 302 303 305 309 313 318 320 321 320 321 323 322 320 319 322 319 316 316 314 315 315 316 319 323 322 322
290 286 290 294 295 294 294 293 292 297 300 299 297 297 298 300 300 301 304 302 304 304 313 317 319 320 320 320 321 320 320 319 321 320 318 318 315 315 315 315 316 319 320 320
290 294 298 295 293 291 290 290 290 293 297 299 297 295 299 301 302 303 303 303 305 304 311 317 318 318 318 318 319 319 318 319 321 321 319 317 315 313 312 312 313 316 319 320
294 298 297 294 292 292 287 295 296 295 293 287 297 287 296 299 300 302 304 302 301 303 313 318 318 318 317 317 320 319 319 319 320 321 317 314 312 310 311 312 313 313 316 317
291 294 294 293 293 295 291 298 296 295 293 292 292 289 293 299 298 300 303 305 302 303 316 317 318 319 319 318 318 318 319 320 320 320 318 315 312 313 311 311 311 313 313 313
293 297 295 296 297 297 298 295 296 295 293 286 291 289 290 295 298 301 303 304 304 304 316 319 320 320 319 318 317 317 317 319 320 319 317 315 313 311 309 309 309 311 312 313
289 291 295 297 292 296 297 292 285 283 283 282 293 289 292 298 302 303 303 304 304 306 311 318 318 319 318 317 316 316 316 318 320 319 317 316 314 312 310 308 309 310 311 311
282 282 291 296 293 292 293 292 286 279 280 285 294 287 292 301 304 305 304 304 304 305 314 318 319 319 318 317 315 316 316 317 319 319 317 317 315 313 312 310 309 310 311 312
283 286 295 297 297 295 292 288 294 287 289 285 289 294 299 301 302 303 302 303 303 305 314 317 318 319 318 317 315 315 315 316 318 319 318 317 316 313 313 311 311 311 311 313
288 283 292 295 297 298 294 297 288 288 280 281 288 291 291 298 299 302 302 303 305 305 307 317 318 318 319 318 317 316 316 316 317 319 320 319 317 315 314 313 312 311 311 313
291 287 287 292 291 290 291 289 292 291 290 284 283 289 300 300 301 302 302 303 305 308 309 308 318 319 319 319 317 317 317 317 316 317 320 320 320 317 315 314 313 313 312 312
292 290 284 286 294 296 295 291 293 287 285 290 289 288 304 303 304 302 301 304 306 306 309 310 318 318 318 319 318 316 317 318 317 317 318 319 320 320 318 317 315 315 313 313
290 289 283 285 289 294 291 294 294 294 292 288 284 289 304 304 304 305 302 303 304 305 305 306 313 317 318 318 319 317 317 318 318 318 317 317 318 319 320 318 319 318 315 313
294 288 286 282 287 289 289 292 294 293 287 287 290 292 297 299 302 304 304 303 303 305 307 308 307 311 317 319 319 319 318 318 318 319 317 316 316 317 318 320 320 320 319 316
291 285 288 289 291 291 289 290 292 291 292 288 292 292 297 300 302 304 305 305 306 306 308 308 308 307 308 312 316 320 320 319 318 317 319 317 318 318 318 318 319 320 320 319
291 285 287 285 290 291 290 292 292 291 293 294 294 293 302 303 304 303 305 304 304 306 307 309 310 312 311 312 312 316 320 320 320 317 317 319 320 319 319 319 319 319 319 320
288 287 285 282 288 287 285 291 292 293 295 294 290 295 301 301 302 302 301 304 304 305 306 308 309 312 312 312 314 313 315 319 321 319 318 318 319 320 320 320 320 319 318 319
287 286 287 280 283 277 291 297 297 294 296 298 298 298 300 302 302 302 303 302 304 306 307 307 310 310 310 309 310 313 315 316 317 320 320 319 318 319 320 320 319 319 319 319
290 287 280 279 280 285 288 292 292 291 293 299 297 299 300 301 301 300 304 304 303 305 307 309 309 307 305 304 305 312 309 309 311 314 315 317 320 319 318 318 319 319 318 318
290 289 284 280 279 275 287 295 299 299 288 299 299 298 299 300 292 296 304 305 306 306 307 305 303 301 299 299 302 303 302 304 305 309 309 308 306 317 320 319 318 319 319 318
283 283 281 280 279 284 293 297 300 286 287 298 298 298 297 295 298 300 303 302 301 300 300 303 299 295 295 296 298 298 298 297 301 303 301 300 299 302 305 312 318 317 317 316
283 281 280 281 278 277 297 297 291 295 299 298 297 297 297 298 299 299 299 298 296 295 295 295 294 293 292 292 292 292 292 295 298 296 294 293 292 292 296 297 300 301 303 298
282 287 283 284 284 294 298 297 299 300 297 297 296 297 297 296 296 297 295 294 293 291 291 291 291 290 289 289 289 288 290 293 293 292 290 288 287 286 287 288 289 292 294 293
290 295 288 288 293 293 294 297 298 297 296 297 296 296 296 294 294 294 292 290 289 287 287 288 287 286 285 286 286 286 289 291 290 288 287 286 284 283 283 284 285 283 285 288
292 293 291 291 292 293 294 295 297 296 296 295 296 294 291 292 292 291 288 287 286 284 285 285 283 283 282 283 283 284 286 289 288 286 286 284 283 283 282 282 282 282 283 284
290 287 287 284 289 291 290 292 294 292 292 291 289 288 288 287 287 289 285 285 283 282 282 281 281 280 280 281 281 283 285 286 286 284 283 283 282 282 282 281 281 284 283 284

GFSCGP_sfc_thetae_093.txt.gz
Theta_e
290 285 282 284 289 291 291 289 287 289 295 295 293 292 296 297 298 298 299 300 299 300 303 310 320 320 322 322 322 322 320 321 321 318 315 315 315 315 315 315 316 324 328 326
287 282 287 288 289 289 289 287 286 291 296 294 292 292 295 298 298 299 300 300 301 301 305 311 318 318 321 322 323 322 321 320 319 319 317 316 315 315 315 316 316 318 326 327
285 289 293 289 286 286 285 285 286 288 292 293 291 290 293 298 299 300 302 302 302 302 305 313 316 317 320 321 321 321 320 320 319 316 314 313 313 313 313 313 316 318 324 325
288 294 294 292 290 291 286 291 291 289 288 282 292 282 291 295 297 299 301 301 303 301 306 314 315 316 319 320 321 320 321 319 318 315 313 313 311 309 312 313 314 318 322 324
290 293 292 290 291 294 289 294 291 289 288 287 288 284 288 294 294 297 300 302 302 303 305 312 315 316 319 319 319 320 319 318 317 315 314 312 311 311 311 312 313 316 318 321
291 295 294 292 295 295 297 292 292 291 289 281 286 286 286 290 294 298 301 304 305 301 301 312 316 317 318 318 318 318 317 316 316 314 313 313 312 312 310 311 311 313 314 316
288 289 293 297 290 293 293 289 277 280 280 279 289 286 288 295 297 300 302 303 305 302 300 310 313 314 315 316 317 317 316 315 316 314 313 314 313 312 308 311 312 311 311 313
280 278 288 294 291 288 289 289 282 276 278 281 289 283 289 299 302 302 304 303 304 303 303 311 314 314 315 315 316 316 315 315 316 315 313 315 314 311 310 311 313 313 313 314
280 282 291 293 293 293 289 286 293 286 287 283 285 289 296 302 302 303 303 302 300 302 302 312 314 314 315 315 315 315 315 316 315 315 314 315 315 313 309 310 313 312 313 313
286 281 289 293 295 293 291 295 286 287 280 279 284 285 289 296 298 301 302 300 300 303 308 313 314 314 315 315 315 315 315 315 315 315 315 314 313 312 310 309 310 309 310 311
288 284 284 290 289 287 289 288 289 289 287 282 281 286 300 298 299 300 302 303 302 302 310 313 315 315 315 315 315 314 315 315 315 316 315 314 313 312 311 310 309 309 310 311
289 287 280 283 289 295 292 290 291 284 284 286 287 284 302 302 301 301 302 304 304 305 308 314 315 315 314 314 314 314 314 314 316 316 316 315 315 313 312 310 309 308 309 310
289 285 279 281 287 291 289 291 290 290 289 284 282 284 301 302 301 301 302 304 305 306 311 313 314 314 313 312 312 313 313 313 314 317 316 314 314 313 313 312 310 308 308 308
292 285 283 278 282 288 286 289 291 289 285 286 287 289 296 299 299 300 302 304 305 308 309 309 310 313 315 315 315 315 315 315 315 315 316 315 314 314 313 313 312 310 309 308
288 281 284 286 288 288 288 289 290 288 289 286 288 290 295 299 300 301 303 305 306 307 307 307 307 308 310 310 313 315 316 316 316 315 314 315 315 315 315 313 313 312 311 310
288 281 282 281 286 287 285 286 286 290 291 290 291 290 299 303 303 302 302 304 303 305 304 304 304 304 304 307 306 308 310 313 317 316 315 316 315 315 314 315 314 314 312 312
286 283 281 278 283 283 279 286 287 291 292 292 288 294 299 300 301 300 303 302 303 301 300 299 299 299 300 302 303 302 304 308 312 315 316 317 316 315 316 316 316 317 316 315
285 283 282 278 280 272 284 290 295 292 293 295 295 297 298 298 298 299 302 301 298 297 296 296 296 295 295 299 302 302 302 303 303 303 303 304 306 309 315 317 316 316 316 317
288 283 278 276 276 280 284 289 289 288 290 298 297 298 298 298 297 294 296 296 295 294 294 293 293 293 293 295 298 298 298 299 298 298 298 298 299 302 303 306 309 317 316 316
286 285 280 277 275 271 283 292 296 296 286 297 299 298 298 299 290 290 294 293 292 292 293 291 291 289 289 290 294 295 294 295 294 294 293 293 293 296 295 297 299 302 305 314
280 280 278 278 277 280 289 293 297 283 284 295 297 298 297 292 294 292 292 290 290 290 289 291 289 287 286 287 290 290 291 291 293 292 290 289 289 290 290 291 293 295 298 298
280 277 277 279 278 274 292 293 287 292 294 295 294 295 293 292 292 290 288 287 286 286 287 288 287 286 285 286 287 287 287 291 291 289 286 285 285 286 287 286 287 289 291 290
279 284 282 281 280 292 294 292 294 294 290 290 292 293 292 290 288 287 285 284 284 285 285 286 285 284 284 284 284 284 285 289 289 286 284 284 283 284 284 284 284 284 286 286
289 289 285 287 291 291 292 293 292 292 290 288 288 288 290 287 286 284 284 282 282 283 282 283 283 282 281 283 283 284 285 288 287 284 283 283 282 282 283 283 283 282 282 282
285 287 284 286 288 290 290 291 290 288 289 287 285 284 284 284 282 281 280 280 280 279 281 281 280 280 280 281 282 283 284 285 284 284 283 282 282 281 281 281 282 282 283 282
286 282 280 280 284 287 286 289 290 287 284 284 283 281 280 281 279 279 278 278 278 277 278 278 279 279 279 280 281 282 283 283 283 282 281 281 281 281 281 280 278 282 282 283

GFSCGP_sfc_thetae_096.txt.gz
Theta_e
291 286 282 286 288 288 288 287 286 288 294 293 291 292 293 296 296 295 297 297 298 299 301 300 305 314 319 320 320 320 321 321 322 320 319 317 317 317 315 315 322 327 328 327
287 283 289 289 288 287 286 285 284 288 293 292 290 291 294 295 296 298 298 299 298 298 300 301 306 317 319 319 321 320 322 322 322 321 320 317 317 316 312 313 317 318 323 327
286 288 291 287 285 284 283 282 283 284 289 290 289 287 290 295 297 298 299 300 300 300 300 302 311 316 319 318 319 321 321 321 322 320 317 315 314 313 312 313 312 313 317 324
287 291 292 289 287 286 283 289 288 287 285 280 290 279 288 291 293 296 298 299 300 300 301 302 311 315 318 319 321 321 321 321 320 318 315 313 312 309 310 310 312 317 316 322
287 292 290 289 290 292 288 293 291 289 284 285 286 282 284 291 290 293 297 300 299 300 300 306 312 316 318 320 321 322 321 320 319 316 314 312 308 312 313 309 314 316 318 319
290 295 293 291 294 294 295 291 290 289 287 278 284 283 282 286 290 293 298 300 301 301 300 307 314 315 317 321 321 320 319 319 318 316 312 311 309 310 310 311 312 315 317 320
288 289 292 295 289 292 292 286 275 277 279 277 286 284 285 292 295 297 299 299 300 301 300 302 311 314 316 318 318 319 318 317 316 315 312 310 310 310 311 311 313 312 313 315
280 278 289 294 290 287 288 286 278 275 277 280 287 282 286 298 302 304 304 301 300 299 300 300 309 314 315 317 318 318 316 316 316 315 312 311 310 310 312 309 313 313 314 315
280 280 289 293 293 291 287 285 290 285 284 281 283 287 292 300 300 301 301 303 303 304 301 301 308 314 315 317 317 317 316 316 316 315 313 311 311 309 309 309 310 314 314 315
285 280 289 292 293 292 290 294 285 286 278 275 281 283 286 295 297 299 299 300 303 305 304 306 309 313 315 316 317 317 317 316 316 316 314 312 311 311 309 309 309 310 313 314
287 284 284 290 288 286 287 287 288 289 286 281 278 281 300 298 299 298 300 301 303 305 306 311 313 314 315 316 316 315 315 315 315 315 315 312 310 310 309 308 308 308 309 310
289 285 280 283 289 293 291 288 289 284 282 286 285 283 300 301 302 301 300 302 305 308 312 313 313 313 313 314 314 313 315 315 315 316 315 315 311 310 308 307 307 308 308 309
289 285 280 282 287 290 289 291 291 289 288 282 279 282 300 301 301 302 301 303 305 308 309 312 312 312 311 312 313 313 313 315 316 316 315 314 314 310 309 308 307 307 307 308
292 285 282 278 281 286 284 288 290 290 283 284 285 286 293 298 298 300 302 304 305 304 305 307 307 311 313 312 312 313 313 314 315 316 316 314 314 314 310 309 308 307 307 307
288 281 284 285 286 287 286 286 288 287 288 284 285 287 292 297 299 301 303 305 303 300 300 301 302 304 306 308 311 316 316 316 315 315 315 315 315 315 312 310 309 309 308 307
288 281 282 281 285 286 283 285 284 285 286 287 289 289 298 300 303 302 303 303 299 297 297 297 297 299 301 302 303 305 307 309 316 315 314 315 315 316 315 314 311 310 309 308
285 283 281 278 282 282 277 281 288 289 291 290 286 292 297 299 300 301 302 300 297 296 295 294 294 294 297 299 300 300 302 304 305 305 306 308 312 315 315 315 314 312 311 310
284 283 282 278 280 270 280 287 292 289 293 294 293 294 297 295 295 295 297 296 294 293 293 292 291 292 292 296 298 298 299 299 299 298 298 298 301 303 305 309 313 315 316 314
287 283 278 275 276 279 282 288 288 287 288 297 296 297 296 296 296 292 293 293 292 292 292 290 290 290 290 290 296 296 295 295 294 293 293 293 295 296 296 297 298 301 302 311
285 284 280 277 274 269 280 290 294 294 283 294 298 297 297 296 289 288 290 290 290 291 290 288 288 288 287 288 292 293 292 292 290 289 289 290 290 291 290 292 292 295 298 299
280 280 278 277 277 280 287 291 294 281 283 293 296 298 296 289 289 288 288 287 288 288 288 289 287 285 285 287 290 288 289 289 289 287 286 286 287 288 287 289 290 291 292 291
280 278 276 279 277 274 291 291 284 289 289 291 292 292 290 289 287 287 285 285 285 285 285 286 285 284 284 285 286 286 285 289 288 286 285 284 285 286 286 286 286 287 288 287
278 284 283 282 281 291 292 291 291 290 287 287 289 289 288 286 285 284 283 283 283 283 283 284 284 283 283 284 284 283 284 288 287 285 283 283 283 284 284 283 283 283 284 283
287 288 285 284 289 289 290 290 290 289 287 286 287 286 286 283 283 281 281 280 280 280 280 282 282 281 280 282 283 283 284 287 286 284 282 282 282 281 282 283 283 281 281 280
284 285 281 285 286 288 287 288 288 287 287 283 282 282 282 282 280 280 278 278 278 278 279 279 279 279 279 280 281 282 283 285 283 283 282 282 282 280 279 279 280 281 282 282
284 281 278 279 283 285 284 287 287 284 282 282 281 279 278 279 278 278 277 277 276 276 277 277 277 277 277 278 278 280 282 283 282 281 281 281 281 280 279 277 276 280 281 282

GFSCGP_sfc_thetae_099.txt.gz
Theta_e
294 290 287 289 291 291 291 290 290 292 297 295 295 296 298 301 302 302 302 304 305 307 311 311 312 312 321 327 327 327 327 325 324 325 323 323 323 325 325 326 329 329 330 328
289 288 292 292 291 291 290 288 288 291 294 293 293 293 297 299 300 302 302 303 304 306 308 309 310 311 318 323 326 326 327 324 326 326 325 325 323 322 324 324 323 327 331 329
288 291 292 290 289 287 287 287 286 287 290 293 292 290 293 297 298 300 302 304 305 306 307 309 310 312 317 321 325 325 327 325 327 326 324 320 318 317 317 319 322 321 323 326
290 293 289 288 287 289 284 289 288 288 288 284 293 283 291 294 295 298 300 302 304 306 307 309 310 313 318 322 325 326 327 325 325 324 321 320 319 316 316 320 320 323 323 326
289 291 291 288 290 291 289 294 291 291 289 288 288 285 288 294 293 297 300 303 305 306 306 308 310 312 318 322 324 326 326 325 324 322 322 319 317 318 320 320 320 322 323 324
292 297 295 294 296 296 297 293 292 292 290 282 287 286 287 291 293 298 303 306 306 306 307 309 311 314 319 323 324 325 324 323 322 320 320 317 317 319 317 316 318 319 320 321
290 292 295 297 292 295 293 288 282 280 280 280 288 286 289 295 299 303 302 304 307 309 309 308 308 315 320 321 323 324 323 320 320 320 317 317 320 319 316 317 318 317 317 318
283 281 291 295 292 290 290 288 282 276 279 283 289 284 290 302 304 305 305 306 307 309 311 311 309 316 319 321 323 322 321 320 319 319 316 319 320 319 319 318 318 318 316 317
283 282 292 294 295 294 289 286 292 283 285 282 285 290 295 302 303 304 304 305 307 309 312 313 312 312 319 321 322 322 320 320 319 317 316 319 319 319 318 318 318 318 318 318
287 283 290 292 295 296 292 295 285 286 278 277 284 286 289 297 299 303 302 303 305 309 313 313 314 311 318 321 322 322 319 318 318 317 316 319 319 319 319 319 318 318 317 317
289 287 286 292 289 288 290 288 288 287 285 280 280 286 299 299 302 302 302 303 305 305 311 314 315 316 318 320 321 319 318 317 316 316 316 319 318 318 317 318 318 318 317 317
291 287 283 285 292 295 292 290 289 284 282 285 284 284 302 302 303 305 304 304 305 304 307 314 314 316 316 317 317 316 317 316 317 317 317 318 318 317 316 316 316 318 318 315
292 286 282 283 288 292 290 291 291 289 288 283 281 285 300 300 302 304 303 305 303 302 303 305 311 312 313 314 314 315 315 316 317 318 317 317 317 316 316 315 315 316 317 318
295 287 284 280 283 288 285 288 290 289 283 285 285 287 293 295 298 301 304 304 300 300 299 299 301 303 306 312 314 315 315 316 317 317 316 316 317 316 316 316 315 314 315 316
290 283 286 286 287 288 287 286 287 285 287 284 287 287 291 294 298 302 304 301 298 297 296 296 296 298 300 302 305 308 314 318 318 316 316 316 317 317 316 316 316 315 314 315
290 283 285 283 286 287 284 286 285 286 287 287 288 287 296 299 300 302 302 298 296 294 294 294 294 294 297 298 300 301 302 311 317 317 316 317 316 316 315 315 317 315 315 314
287 285 282 278 284 283 279 283 285 289 292 292 288 293 297 297 295 297 296 295 293 293 292 291 292 292 292 296 298 297 298 299 299 300 301 303 306 308 310 315 315 314 315 315
286 285 284 280 281 272 282 289 290 288 291 295 296 297 296 293 291 291 292 291 291 291 290 289 289 290 291 295 296 296 295 295 294 294 294 296 298 299 300 302 302 303 307 314
289 286 281 278 278 281 284 289 288 287 286 294 295 296 294 295 294 287 288 288 289 289 288 287 288 289 290 292 294 295 294 292 290 290 290 291 293 293 294 295 295 297 301 300
287 287 283 280 275 272 282 289 294 293 284 292 294 296 293 295 286 285 286 286 287 288 288 287 287 287 287 289 292 292 290 289 288 288 289 289 291 290 291 292 293 295 295 292
282 282 280 280 278 281 288 291 294 280 282 291 291 292 292 287 286 285 285 285 285 286 286 288 286 285 285 287 289 288 289 287 288 288 288 288 288 288 289 290 290 292 290 289
281 280 280 281 278 275 291 291 285 288 289 289 289 288 286 286 285 284 284 283 283 283 284 285 285 284 284 285 286 286 286 287 287 287 286 286 286 286 287 287 288 288 288 286
282 285 282 283 283 290 291 289 289 289 286 287 288 288 287 284 283 282 281 281 281 281 282 284 283 283 283 284 284 283 285 287 286 285 284 284 284 284 285 284 284 285 285 284
286 287 284 284 285 285 288 288 288 287 284 283 285 285 285 283 282 280 280 279 279 279 280 281 281 281 280 282 282 283 284 286 285 284 283 283 282 282 283 283 283 283 283 283
283 285 280 283 284 286 285 286 285 284 285 282 281 281 281 281 280 279 278 278 278 278 279 280 279 278 278 280 280 281 284 285 284 283 283 282 282 281 280 280 282 282 282 283
284 280 279 278 282 283 282 285 284 282 280 280 280 278 279 279 278 278 277 277 276 276 277 277 278 278 278 278 279 280 281 283 284 283 282 282 282 281 280 279 278 280 281 281

GFSCGP_sfc_thetae_102.txt.gz
Theta_e
294 289 289 294 296 295 294 293 293 297 300 299 298 299 302 306 306 306 307 308 309 311 315 316 318 320 321 325 331 334 335 337 331 331 331 330 327 328 333 332 333 334 335 333
290 287 293 295 296 293 293 292 292 296 298 297 297 297 301 303 304 305 306 308 309 311 313 314 317 319 321 322 329 332 333 336 334 335 334 333 330 329 330 330 333 335 334 333
288 291 293 293 292 291 292 291 292 292 295 296 295 294 298 301 304 304 306 307 308 309 310 313 314 317 320 322 326 329 332 335 334 335 334 332 331 328 328 328 326 331 334 332
290 295 293 291 290 292 288 295 293 292 290 288 296 288 295 298 299 301 303 306 307 308 310 311 313 315 318 321 326 329 331 334 334 335 332 329 326 324 327 327 325 326 331 330
290 292 291 291 292 294 291 295 293 292 292 292 293 290 294 297 296 300 307 309 312 314 314 314 314 314 317 320 325 329 330 332 333 334 332 329 329 329 329 327 325 326 329 331
294 298 295 294 296 295 298 295 295 295 293 286 291 291 293 296 297 302 307 309 311 313 315 316 316 316 317 319 325 329 329 331 332 331 331 330 329 328 326 325 325 325 324 327
293 294 297 298 294 298 296 293 286 284 283 285 291 290 294 299 304 305 306 309 312 315 317 318 317 316 316 319 326 328 329 329 329 327 329 330 328 329 327 325 325 324 321 323
285 283 294 297 295 292 293 292 287 280 282 287 293 288 295 304 307 308 309 311 313 314 317 319 320 319 317 322 327 328 328 327 325 324 327 329 328 329 327 325 325 325 323 323
285 285 296 297 298 297 292 289 295 287 289 287 290 293 299 303 305 307 308 310 311 312 312 317 322 321 318 324 327 328 326 325 323 322 323 324 330 328 326 326 326 324 323 321
291 285 293 295 298 298 295 297 287 290 281 280 287 289 293 299 301 305 307 308 310 310 308 309 321 321 318 325 328 326 325 323 321 322 322 325 328 328 327 325 324 324 324 323
294 291 289 294 292 291 292 291 291 292 289 284 285 290 301 300 301 303 305 308 308 307 304 304 313 322 321 324 326 323 323 321 320 320 321 325 327 327 326 325 324 323 324 322
294 292 287 289 295 297 295 292 292 288 283 288 288 289 303 301 302 305 306 307 307 306 300 300 304 314 319 322 321 320 320 319 319 319 320 324 326 325 324 324 324 323 321 322
295 290 284 285 291 295 291 293 293 291 291 286 287 290 301 301 301 304 304 304 304 302 298 299 300 303 310 316 318 319 319 317 318 318 319 321 322 324 323 323 324 323 321 320
297 290 288 284 288 292 289 291 292 291 287 287 289 291 296 298 299 303 304 303 302 300 296 296 296 299 301 305 314 316 316 318 318 319 320 319 320 322 322 322 322 322 321 319
293 285 288 288 290 290 289 288 289 287 288 286 289 290 294 298 301 303 303 299 298 298 294 292 293 295 298 300 301 304 314 317 318 318 318 318 319 320 319 319 319 321 321 320
292 285 287 284 288 288 285 287 287 287 290 291 292 292 300 297 298 296 295 294 293 293 292 291 291 292 295 297 297 298 300 302 305 306 308 317 318 317 317 319 318 318 319 319
289 287 284 280 285 284 281 286 287 289 292 293 288 295 297 288 286 286 288 290 289 290 289 288 288 290 293 295 296 295 295 297 297 298 299 300 304 306 308 314 316 318 319 319
288 286 287 282 283 274 285 293 292 289 293 295 295 293 290 288 286 286 287 286 286 287 287 286 286 288 291 294 294 294 294 294 293 292 294 295 297 298 299 300 301 303 306 303
293 289 284 281 280 283 288 290 290 289 289 292 292 294 294 292 292 286 286 286 285 286 287 287 287 286 289 291 293 293 292 291 290 290 291 292 293 294 294 294 296 298 297 293
291 291 287 284 278 275 286 292 296 295 286 292 291 290 293 292 290 285 286 285 285 286 287 286 287 287 286 289 292 291 289 290 289 289 289 291 291 292 292 293 294 293 291 289
286 287 283 283 281 284 291 294 296 284 283 290 289 287 286 283 284 285 285 284 284 285 285 287 286 286 286 288 289 288 289 288 290 289 289 289 291 290 291 292 292 291 289 287
284 284 284 284 280 277 290 293 287 287 288 288 288 288 287 286 285 284 283 283 283 283 285 286 285 284 285 286 287 286 286 288 288 288 288 288 288 289 290 290 290 291 289 287
283 285 283 283 281 286 287 285 286 287 285 286 287 287 287 285 284 283 281 282 282 282 283 285 284 284 284 285 285 284 286 288 287 286 287 287 287 287 287 288 289 288 290 289
287 290 285 285 284 284 286 286 286 286 285 285 285 286 287 285 283 282 281 281 280 281 282 283 285 284 283 283 283 284 286 287 287 286 285 284 283 284 286 286 285 285 286 286
288 288 282 285 286 285 285 286 286 285 286 285 285 284 284 285 283 282 280 280 279 280 281 282 283 283 283 283 283 284 285 287 286 285 285 284 283 283 281 281 282 282 283 284
287 282 282 281 283 284 283 285 285 283 282 282 283 282 283 283 282 281 280 280 280 279 280 280 281 281 281 282 282 283 284 285 285 284 284 284 284 284 284 282 279 280 281 281

GFSCGP_sfc_thetae_105.txt.gz
Theta_e
295 291 289 293 297 300 298 297 297 300 304 303 302 302 304 307 308 308 308 309 310 312 315 318 319 319 320 323 328 332 338 342 340 335 336 337 335 331 333 333 336 338 337 337
292 287 293 296 297 297 296 295 295 298 301 300 300 299 302 304 305 307 308 309 311 312 314 316 318 319 321 322 324 331 334 338 340 336 336 337 335 331 334 334 335 335 335 336
289 291 294 293 293 293 294 293 293 293 297 300 297 295 298 302 305 306 307 309 310 311 312 314 316 318 320 321 324 326 332 335 339 337 337 337 336 332 330 331 332 333 334 335
292 295 294 292 291 294 289 296 294 293 293 289 298 288 298 301 302 304 305 305 308 310 311 312 314 315 318 323 327 325 330 333 337 337 336 335 331 328 330 331 330 332 334 333
291 292 292 291 291 294 291 295 293 293 292 291 292 290 295 299 298 302 306 310 312 315 316 316 317 318 317 320 325 328 328 331 335 337 337 336 332 332 332 331 330 329 332 332
294 299 296 294 294 295 295 294 293 293 292 286 292 292 293 297 299 302 308 310 312 315 317 319 320 321 319 320 322 327 327 329 334 336 338 337 333 332 330 330 328 326 329 329
292 295 297 297 292 296 294 291 285 284 285 284 294 291 294 302 306 306 307 309 313 315 317 318 320 322 321 319 321 326 326 327 332 335 336 335 333 333 332 329 327 327 325 326
286 283 293 298 294 290 292 291 285 279 282 286 294 288 294 305 308 309 310 310 311 313 315 316 320 323 323 322 320 322 324 327 329 333 334 335 334 333 331 330 328 327 326 325
287 286 296 297 298 296 292 289 295 289 292 288 292 295 302 305 304 306 307 309 311 312 312 313 315 317 325 324 321 324 327 328 329 332 333 333 334 333 331 330 329 328 329 325
292 285 293 296 299 298 295 298 288 290 282 281 288 290 294 297 300 303 304 308 310 311 310 308 308 311 317 324 324 329 330 328 330 327 327 330 331 333 331 330 328 328 326 324
293 291 289 294 292 291 293 291 293 293 291 285 285 290 301 299 300 301 305 308 309 308 307 303 302 303 310 317 327 328 329 329 325 323 324 327 329 331 331 328 327 326 324 324
295 292 286 289 296 298 296 293 294 288 286 290 289 290 302 302 302 304 306 307 307 306 304 301 298 297 301 305 324 323 324 323 324 321 322 326 329 329 328 326 326 325 322 323
295 290 284 286 292 296 293 294 295 294 293 288 286 290 302 302 302 305 303 304 303 304 302 300 295 293 297 301 309 320 321 320 320 320 322 325 326 326 326 326 325 323 322 322
298 292 288 284 287 293 290 292 294 293 289 288 289 291 297 300 300 302 298 298 299 299 298 299 293 291 293 298 301 311 318 319 318 320 321 321 323 324 326 325 323 321 322 320
295 287 290 291 293 293 292 291 292 290 290 286 290 292 296 297 295 293 293 293 293 294 293 294 294 291 290 295 297 299 304 316 318 318 319 319 322 323 325 323 321 321 321 320
294 286 289 286 290 291 289 289 288 288 289 291 292 292 298 296 294 288 288 288 288 288 290 289 291 289 288 293 293 295 296 298 303 303 303 315 319 320 320 319 319 320 320 320
288 287 286 281 287 286 283 287 289 290 293 293 289 293 298 291 287 285 286 286 286 286 287 287 286 287 288 291 293 292 293 295 295 295 297 300 304 305 306 315 317 317 318 320
288 287 287 282 284 277 288 294 293 293 292 292 291 292 290 286 285 286 287 286 285 286 286 286 285 285 288 290 291 292 292 292 292 292 293 295 297 298 299 301 302 302 301 299
294 290 286 283 282 285 288 291 291 290 287 292 291 291 293 289 290 287 286 286 285 286 287 287 287 285 287 288 291 291 291 290 289 288 289 292 293 293 294 293 294 295 292 290
291 292 289 286 279 278 286 293 296 296 284 291 292 289 290 290 289 286 286 286 286 287 288 287 287 287 285 285 289 288 287 288 287 286 288 291 292 292 292 292 290 289 288 287
287 288 285 285 284 285 286 291 295 284 281 289 290 290 289 284 284 285 286 285 285 286 288 289 287 286 286 288 287 287 287 285 287 288 288 290 291 291 291 291 290 288 286 285
286 284 285 286 283 279 286 292 285 285 287 288 288 289 288 287 286 285 284 284 285 285 287 288 287 285 286 287 287 285 285 288 287 287 288 288 289 290 291 291 291 291 290 288
284 286 284 283 281 285 286 285 287 289 287 287 288 289 289 287 285 284 284 284 284 285 286 288 288 287 286 286 286 284 286 288 287 286 286 286 286 288 287 287 288 289 289 288
289 292 286 284 284 285 287 288 288 288 287 287 288 288 289 287 287 286 285 285 284 284 284 286 287 286 285 285 285 286 287 289 288 286 285 285 282 282 283 284 283 282 285 286
289 289 284 284 285 286 286 286 287 286 287 288 288 287 287 287 286 286 285 284 284 283 284 284 284 284 284 284 284 284 286 287 287 287 286 285 284 282 280 279 280 281 281 282
289 284 284 282 285 285 284 286 287 286 285 286 286 286 286 285 285 285 284 283 283 282 283 283 283 283 283 283 282 283 284 285 285 285 284 284 285 285 283 281 279 280 281 281

GFSCGP_sfc_thetae_108.txt.gz
Theta_e
298 289 286 288 292 294 295 294 294 298 302 300 299 300 303 306 307 306 307 308 309 311 314 315 318 318 317 318 322 332 340 342 341 339 337 337 335 335 334 334 335 334 335 336
293 288 291 292 292 292 292 292 294 299 302 301 300 300 304 306 306 307 308 308 308 310 312 314 316 318 318 318 323 329 338 341 340 339 338 337 336 334 333 332 332 334 335 335
289 291 294 291 290 290 291 291 294 294 299 299 298 296 299 303 305 306 307 308 310 310 311 313 314 316 322 321 324 324 330 340 339 338 336 335 334 331 329 331 330 332 333 332
291 295 293 290 288 291 288 295 296 295 292 287 296 286 295 299 300 303 304 306 307 310 312 313 313 315 318 322 326 323 326 334 338 337 333 332 330 326 327 329 329 330 331 331
288 291 291 288 289 292 290 297 295 294 291 290 290 288 294 299 298 300 304 310 312 314 315 315 316 318 319 319 321 326 324 329 335 336 333 332 332 330 328 330 328 328 331 330
290 296 295 292 294 294 296 293 293 291 290 283 289 289 289 294 298 301 308 309 311 314 316 317 319 321 321 321 321 322 325 326 331 336 334 333 332 330 328 328 326 327 327 329
288 290 294 295 291 294 293 289 282 280 281 281 291 288 291 300 304 306 306 309 311 313 314 313 315 317 320 322 324 321 321 322 327 334 334 334 334 332 329 328 327 325 325 325
282 283 292 296 293 289 290 289 283 277 279 283 290 286 291 302 307 308 309 310 311 311 311 311 311 312 314 318 320 317 319 320 326 332 334 333 335 332 331 330 327 325 324 325
284 285 295 297 296 295 290 286 293 286 289 286 288 294 299 303 305 307 307 309 308 308 308 307 306 308 307 311 313 316 319 320 324 329 333 332 334 331 331 329 328 327 326 325
290 285 292 296 297 296 293 295 286 287 281 280 286 289 291 296 299 303 305 306 306 306 305 304 303 301 302 307 310 312 324 320 326 330 332 332 332 333 331 329 327 326 326 324
290 288 289 293 291 290 290 289 291 291 288 283 282 287 297 296 298 302 303 304 303 303 302 301 299 298 298 302 304 307 326 326 329 330 330 331 330 330 330 328 327 326 323 322
294 291 286 288 295 297 294 292 292 286 285 289 286 285 298 301 303 303 301 301 300 300 300 299 297 295 294 297 300 303 315 323 325 327 326 327 327 328 327 326 326 323 321 322
294 288 283 284 290 294 291 293 295 293 291 288 286 286 300 300 297 297 296 296 296 295 295 296 296 294 292 294 295 297 303 320 321 322 322 323 325 326 325 324 325 322 321 321
299 291 287 283 286 292 289 292 294 292 287 287 287 289 292 292 291 291 291 292 292 292 292 292 292 293 292 293 294 295 297 303 319 320 320 321 322 324 324 324 322 321 321 320
293 287 287 289 293 293 291 291 292 290 290 286 289 288 289 290 288 288 288 289 288 288 288 289 289 290 292 291 292 293 294 297 301 309 316 319 321 322 323 322 320 320 320 320
293 285 289 284 291 291 287 289 289 291 292 292 292 288 291 290 289 287 286 286 285 286 287 287 287 288 289 291 290 291 292 293 295 296 297 302 312 317 319 319 319 319 318 318
289 288 286 281 287 287 282 288 290 290 290 290 286 289 290 285 284 283 284 285 285 286 286 286 286 286 287 290 291 290 291 292 292 292 294 295 298 301 305 313 314 313 312 317
288 287 287 281 284 277 287 295 293 289 289 291 290 290 287 284 285 285 286 284 284 285 286 285 285 285 286 288 290 291 291 290 289 290 291 292 294 294 295 298 297 296 296 296
293 290 286 282 281 285 288 290 288 288 284 289 289 290 290 288 289 284 286 286 285 286 287 287 287 286 287 287 289 289 288 288 287 287 288 290 291 291 290 290 290 290 289 288
293 294 289 286 280 278 283 287 293 293 280 288 289 288 289 290 285 282 285 285 285 286 290 289 288 287 286 287 288 287 286 286 285 285 286 288 290 289 288 286 286 288 288 287
287 287 285 285 282 282 284 289 293 282 279 288 288 288 286 282 283 285 285 285 285 286 288 290 288 286 286 287 287 286 286 284 285 287 286 286 287 288 289 287 287 288 286 286
283 283 282 284 281 277 286 288 282 284 288 288 288 288 287 286 285 285 285 285 286 286 287 288 288 286 286 286 286 285 285 286 286 286 285 284 285 286 285 286 288 288 287 285
282 286 282 281 280 285 287 285 288 289 286 287 287 288 289 287 286 286 285 285 285 285 285 287 286 285 285 285 285 283 285 288 286 285 283 283 282 282 284 283 283 284 286 286
289 291 285 284 284 284 286 287 287 288 287 288 288 288 288 286 286 285 285 284 284 284 284 285 285 283 283 284 284 284 285 287 287 286 285 283 281 279 280 281 281 280 281 282
288 289 285 283 285 285 285 286 287 286 288 287 288 287 286 286 285 285 283 283 283 283 283 284 283 282 281 281 282 283 284 285 286 285 285 285 282 280 279 279 279 279 280 281
289 285 283 281 286 285 284 286 287 286 285 286 285 285 285 285 284 284 282 282 282 281 282 281 281 280 280 279 279 281 283 284 283 283 283 283 284 283 280 278 277 280 280 281

GFSCGP_sfc_thetae_111.txt.gz
Theta_e
292 288 284 285 285 287 288 289 289 292 297 296 295 296 299 301 302 301 301 300 303 303 306 309 309 310 309 307 313 335 335 337 338 337 335 334 331 331 332 331 332 332 331 332
285 284 291 291 289 286 286 285 285 290 295 297 296 295 299 301 301 302 301 300 301 303 305 308 307 306 308 309 310 335 336 337 337 337 336 333 329 327 327 328 330 332 331 331
283 285 294 292 288 285 285 284 285 286 291 297 295 294 297 302 303 302 302 302 302 302 303 306 307 305 308 309 309 333 336 338 337 336 332 330 329 328 325 324 324 328 330 330
285 289 289 290 288 287 281 288 289 288 288 286 295 282 291 298 299 300 301 300 300 305 308 309 311 311 310 310 314 319 337 337 336 335 333 331 328 326 326 324 324 326 327 328
286 286 286 287 289 289 284 289 289 291 289 288 289 284 286 293 294 297 300 305 305 308 310 311 312 313 315 317 317 319 318 336 336 335 333 330 327 326 324 324 323 325 326 326
288 292 289 290 293 292 291 290 292 291 289 280 286 283 284 288 294 302 305 307 309 308 308 308 309 310 310 310 312 315 318 319 334 333 331 330 328 326 324 324 324 324 326 326
285 286 289 294 288 292 289 287 278 278 276 277 288 285 286 296 303 305 304 305 306 305 304 303 303 303 303 303 307 310 313 315 319 331 329 329 328 327 324 324 324 323 322 325
277 275 287 294 290 288 287 286 278 275 276 279 288 283 286 298 305 306 305 304 303 302 302 301 300 299 299 300 303 305 306 309 313 330 330 329 329 328 327 326 325 324 324 322
280 280 293 294 295 292 286 283 290 284 287 282 284 291 297 302 303 304 302 300 299 300 299 298 298 297 297 298 300 301 304 307 316 323 331 328 330 328 327 328 326 324 323 322
288 280 290 293 297 296 289 292 284 286 279 278 285 287 289 291 297 299 297 295 297 298 297 296 295 295 296 297 299 300 304 307 323 320 330 329 328 329 328 328 325 322 322 323
292 284 287 293 290 287 289 287 289 289 287 280 281 285 294 290 296 294 294 293 293 293 293 294 294 294 294 296 297 298 300 304 320 322 327 328 328 327 326 327 325 324 322 320
292 286 284 287 294 297 293 291 290 284 283 285 285 282 295 292 293 293 292 292 292 292 291 292 292 292 292 294 295 295 297 300 305 320 320 322 324 325 325 324 323 322 319 320
292 287 281 283 288 293 289 291 292 292 289 285 282 282 293 291 289 290 289 289 290 290 290 290 290 290 291 292 293 293 295 298 301 314 318 319 320 323 323 323 321 320 320 319
297 289 285 281 285 290 287 291 292 290 284 285 285 284 286 287 286 287 287 288 288 288 288 289 288 289 290 292 292 292 293 295 297 302 306 313 320 322 323 322 320 320 320 319
291 285 286 287 290 289 287 287 288 287 289 284 284 283 285 285 285 286 286 287 286 286 287 287 287 287 289 290 292 292 292 293 295 296 298 299 303 320 320 320 320 320 320 319
292 285 285 284 288 289 286 288 289 289 290 289 287 283 288 286 285 284 284 284 284 285 286 286 286 287 287 288 290 291 291 291 292 293 294 296 297 300 311 318 319 318 318 318
288 286 284 280 286 287 282 285 286 286 288 287 282 287 287 283 282 282 282 283 283 285 286 285 285 285 287 287 289 289 290 291 290 290 292 293 293 294 296 298 307 310 314 312
287 287 286 280 283 277 284 290 288 285 286 288 287 286 284 283 283 283 283 283 283 285 287 285 285 285 286 288 288 289 288 289 288 288 289 291 291 292 292 292 290 291 292 294
293 288 283 279 280 284 284 284 284 285 282 287 285 287 286 286 287 282 284 284 284 285 287 286 286 286 286 287 288 288 286 286 286 285 287 288 289 290 290 289 288 288 287 287
292 290 286 282 278 275 280 284 288 290 277 287 287 285 284 288 279 279 284 284 285 287 288 285 285 285 285 286 288 287 285 284 284 284 285 287 287 287 287 287 286 287 286 285
282 282 280 281 279 279 282 285 289 279 277 288 288 285 284 280 281 283 285 284 285 286 287 287 284 282 283 285 286 285 285 283 284 285 284 284 285 285 285 287 286 286 286 285
281 280 277 279 277 273 285 285 280 285 287 288 287 287 285 285 285 285 284 283 283 283 284 285 283 282 282 283 283 283 284 286 286 284 282 282 282 283 283 284 285 285 285 285
279 284 279 280 278 285 286 285 287 287 285 285 286 287 287 286 285 284 283 282 282 282 282 283 282 281 281 281 282 281 283 287 287 284 282 281 280 281 282 281 281 282 283 283
287 290 282 282 283 284 285 286 286 287 287 287 286 285 287 284 284 282 281 281 280 280 280 281 280 279 279 280 281 281 283 285 285 285 282 280 279 279 279 280 280 280 280 279
286 286 284 282 283 284 285 285 286 286 286 285 285 283 283 283 281 281 280 280 279 279 280 279 278 277 277 278 279 280 282 283 283 283 283 282 280 278 278 279 279 279 280 280
285 283 281 278 286 283 282 285 287 284 283 283 282 282 282 282 280 280 278 279 279 278 278 277 277 276 276 276 276 277 280 282 281 281 281 282 282 279 278 277 277 281 281 282

GFSCGP_sfc_thetae_114.txt.gz
Theta_e
287 282 280 286 285 285 284 282 281 286 292 291 291 292 296 298 300 300 301 300 299 301 305 307 307 309 305 304 309 330 334 336 338 336 333 331 331 330 330 332 332 330 331 332
285 280 285 287 290 288 284 281 281 285 290 289 290 293 296 299 299 299 301 299 300 299 301 304 304 305 305 306 309 328 333 336 337 337 336 333 332 328 330 329 330 331 329 330
283 286 289 286 284 286 285 282 281 281 286 288 290 289 293 299 301 303 303 302 301 302 301 307 311 312 313 314 314 324 331 336 337 337 334 328 326 325 323 326 328 328 330 330
286 291 289 286 283 286 283 288 286 284 282 278 293 281 290 293 295 300 299 299 302 307 309 309 309 308 307 308 313 316 322 333 336 337 333 330 329 326 328 328 328 328 329 329
284 287 287 285 284 288 285 290 286 284 282 286 287 284 286 290 291 295 301 305 305 304 303 303 303 303 303 304 306 310 313 318 332 333 334 331 330 331 324 325 324 327 327 328
287 292 290 288 289 289 292 289 289 288 286 279 285 285 282 288 294 300 303 302 301 299 299 299 299 300 299 300 302 304 306 309 315 322 331 331 329 327 324 324 324 325 325 324
285 286 288 290 284 289 289 284 274 276 277 276 287 285 286 297 300 299 297 297 297 297 295 295 294 295 296 297 298 302 302 304 308 311 321 330 331 327 325 325 325 324 323 323
277 276 284 290 286 284 286 284 277 273 275 278 288 280 286 300 300 299 297 295 295 294 293 293 293 293 293 296 297 298 301 303 307 308 312 329 330 327 327 325 326 324 324 324
278 279 289 292 294 293 286 282 288 282 284 279 281 289 294 295 294 294 293 293 291 291 292 292 292 292 293 294 295 298 299 301 305 311 319 322 329 327 326 325 325 324 324 325
288 279 289 290 294 295 290 291 280 281 273 271 281 283 284 288 288 290 290 290 290 290 290 290 291 292 293 294 295 297 298 299 302 306 318 323 327 328 327 325 324 323 323 323
291 286 284 288 289 286 286 286 287 286 283 275 279 279 287 285 288 285 289 289 289 289 290 290 291 292 293 294 295 295 296 296 299 303 314 323 327 328 326 325 325 324 322 322
292 285 280 287 293 296 291 289 288 278 280 285 283 278 287 285 287 287 287 288 289 289 289 289 290 291 291 292 293 293 294 295 297 300 306 320 322 322 325 324 324 323 322 323
293 286 281 283 287 292 289 291 292 290 287 284 280 279 288 288 286 287 286 287 287 288 288 288 288 289 290 291 292 293 293 294 295 298 301 306 308 321 321 322 322 322 321 321
296 287 283 278 283 287 286 289 291 289 283 281 281 281 283 284 284 285 285 286 286 286 286 287 287 287 288 290 290 291 292 293 294 295 296 297 301 305 321 319 320 320 320 319
290 283 285 288 288 288 285 288 288 287 286 281 281 280 281 282 282 283 284 285 284 285 285 285 285 286 287 288 289 290 290 292 293 292 293 294 297 298 302 318 318 320 320 319
291 284 285 283 287 286 283 285 286 287 286 284 282 280 284 283 283 282 283 284 284 285 284 284 285 285 286 287 287 289 289 289 291 290 291 293 294 295 295 298 312 318 319 318
286 285 283 279 285 285 278 282 283 284 285 286 281 283 283 280 280 280 281 283 283 285 284 284 284 284 285 287 287 287 287 289 288 289 289 290 291 292 292 293 293 295 298 306
287 285 285 280 283 273 281 287 286 283 285 285 285 283 282 280 281 282 282 282 282 285 283 283 283 284 285 287 288 288 287 286 286 285 287 288 289 290 291 291 289 288 289 290
291 288 282 280 279 281 281 282 281 282 280 286 283 285 283 283 285 280 283 284 284 285 284 282 283 284 284 285 287 286 285 285 284 283 284 285 287 287 288 287 287 287 287 286
290 289 284 282 276 272 278 283 286 287 276 286 285 283 282 285 276 277 283 284 283 284 283 282 282 282 282 283 285 286 285 283 282 282 282 283 285 285 285 286 286 286 286 285
281 282 278 280 277 278 281 285 289 277 277 286 285 283 281 278 280 282 284 281 282 283 283 283 281 279 280 282 283 282 284 284 284 283 282 282 282 283 283 285 285 285 285 285
281 279 276 279 275 272 284 284 280 283 286 286 286 285 283 283 284 282 280 280 280 280 280 281 279 279 280 281 281 281 281 285 285 283 281 280 281 282 282 282 283 283 284 282
278 281 278 279 277 284 285 285 286 286 284 283 283 286 285 283 281 280 279 279 279 278 278 279 278 278 278 279 279 279 281 284 285 281 279 279 280 280 280 280 280 280 281 281
286 288 279 279 283 283 284 285 286 285 285 283 282 283 283 280 280 279 279 278 278 277 277 277 277 276 275 276 277 278 281 283 283 282 279 278 278 278 279 280 280 280 279 279
283 285 281 281 283 283 284 285 285 283 283 282 282 282 281 280 278 278 277 277 277 276 276 276 275 275 274 275 275 276 278 281 280 281 281 280 278 277 277 278 279 280 281 281
283 281 281 278 284 283 283 285 285 281 280 281 280 279 280 279 277 277 275 275 276 275 275 274 274 274 273 274 274 275 276 279 280 279 279 280 280 277 276 276 276 281 281 282

GFSCGP_sfc_thetae_117.txt.gz
Theta_e
285 280 276 279 283 285 284 282 280 282 286 285 284 285 289 293 296 296 298 300 301 303 304 304 306 306 302 300 308 331 334 337 337 335 332 332 331 332 332 333 334 334 334 332
284 279 285 286 285 283 283 282 281 284 287 286 283 283 288 291 295 297 298 297 299 303 304 307 312 312 310 311 307 316 331 335 336 337 335 335 334 330 332 328 329 332 332 331
282 284 289 287 284 282 281 279 282 283 286 285 282 280 284 290 296 299 301 302 300 300 307 307 305 303 304 305 307 314 325 331 335 337 336 327 327 326 325 327 329 329 330 330
284 288 288 287 285 285 279 285 285 286 284 276 286 275 286 291 293 296 297 299 301 302 303 302 301 300 300 301 304 307 312 322 332 334 333 328 329 327 329 330 331 329 329 328
282 284 285 283 285 288 283 287 287 285 283 279 279 279 282 290 289 295 296 296 295 295 296 296 297 298 298 299 300 303 306 309 315 323 333 330 327 327 324 325 328 327 327 328
285 290 288 287 288 289 289 288 288 286 282 272 279 281 283 289 293 293 293 293 293 293 293 293 295 296 296 297 298 301 303 305 309 313 316 330 329 326 323 322 325 326 325 326
284 285 288 290 285 288 286 283 275 271 271 275 284 282 285 292 292 292 290 290 291 291 291 291 291 292 294 294 296 299 301 302 304 309 311 315 330 328 326 325 325 325 325 324
276 276 283 286 285 281 282 283 277 271 274 277 286 281 286 292 293 293 292 291 290 290 290 290 291 292 292 293 295 296 298 300 302 305 308 312 317 330 328 328 327 325 325 325
280 279 287 291 292 289 285 280 286 280 283 278 283 287 289 289 289 287 289 290 289 290 290 290 291 292 293 293 294 295 296 298 300 301 304 308 317 325 327 326 326 326 325 325
287 281 288 290 292 293 289 290 280 280 275 274 280 280 279 283 285 286 285 287 289 289 289 290 290 291 292 293 294 294 296 296 297 299 302 307 316 321 328 325 324 325 325 324
290 287 283 288 286 286 287 284 285 286 284 277 276 277 285 283 285 284 285 286 288 288 288 289 289 291 292 293 292 293 294 294 295 297 300 304 308 323 327 325 324 324 323 323
292 286 280 284 291 295 291 286 286 278 279 284 279 276 287 285 286 286 285 286 287 288 288 288 288 289 290 290 291 291 292 293 294 296 298 300 303 308 325 324 323 322 321 322
292 286 279 282 288 292 288 290 289 288 287 280 277 277 287 287 285 285 284 285 286 286 286 287 287 287 288 289 290 290 291 291 293 294 295 297 298 301 305 320 322 322 321 321
294 287 283 278 282 287 286 289 290 287 280 279 278 278 281 282 282 283 284 285 285 285 285 285 285 286 287 288 289 289 290 290 292 292 293 293 295 297 298 305 320 321 321 321
291 283 284 284 285 285 285 289 287 285 284 279 279 277 279 280 281 282 284 285 284 284 284 284 284 285 286 287 287 288 288 289 289 290 291 291 293 295 295 297 300 314 320 320
290 284 285 282 284 283 280 283 284 283 282 281 280 277 282 282 282 282 282 283 283 282 282 283 283 284 285 286 286 286 287 287 288 287 287 290 291 292 292 293 293 293 296 311
285 284 283 280 285 284 276 280 281 282 284 285 278 279 282 279 279 280 281 282 282 281 281 281 282 283 284 285 287 285 285 286 286 285 286 287 289 290 290 291 291 290 289 290
286 285 284 280 283 272 280 285 285 282 283 284 282 281 280 279 281 282 282 281 283 281 280 279 280 282 282 284 286 287 285 284 284 283 284 285 286 287 288 289 288 289 289 287
289 286 283 279 277 279 280 281 281 281 279 284 283 283 282 282 283 280 283 283 282 281 280 279 280 280 281 282 284 285 284 283 282 281 281 283 284 284 285 285 286 287 287 286
288 287 284 282 276 272 278 282 286 286 275 285 283 281 280 284 275 277 281 281 280 282 280 279 279 279 279 281 283 283 283 281 280 281 281 282 282 283 283 284 284 285 285 285
281 281 278 279 276 277 280 283 288 277 276 286 283 281 279 277 278 280 279 277 278 279 279 279 278 277 278 280 281 280 281 283 281 281 280 280 281 281 282 283 283 283 283 284
279 278 276 278 274 272 283 283 279 282 284 285 285 283 282 281 279 278 277 276 277 276 277 277 276 276 276 277 278 277 278 283 284 280 278 278 278 280 281 281 282 282 282 282
277 280 278 278 276 282 284 283 285 285 281 280 283 284 281 279 278 278 277 277 276 276 275 276 275 275 275 276 276 275 278 281 282 282 279 278 278 279 279 279 279 280 281 281
284 286 279 279 282 282 283 284 283 282 280 281 282 281 280 278 278 276 276 275 275 274 274 275 274 273 273 275 276 276 277 280 280 280 281 279 277 277 279 280 280 280 280 279
281 284 278 279 282 283 284 283 282 281 281 280 281 279 278 277 276 275 274 274 274 273 273 273 273 273 272 274 274 274 276 279 279 279 279 280 278 276 276 277 279 279 281 282
283 281 279 276 282 282 282 283 282 279 279 279 278 277 277 277 275 274 273 274 273 272 272 272 272 272 272 272 273 274 275 277 278 278 278 278 278 276 276 275 274 279 280 281

GFSCGP_sfc_thetae_120.txt.gz
Theta_e
284 280 277 279 281 283 281 280 279 282 286 285 284 283 285 289 289 288 293 294 296 297 303 303 310 309 302 303 302 327 335 337 336 335 332 332 331 332 333 332 333 332 332 331
283 278 284 285 284 281 280 278 278 282 286 285 284 284 286 288 288 288 291 292 296 298 301 306 305 304 303 303 305 308 324 334 336 336 335 333 333 334 334 334 333 333 333 331
280 282 287 286 284 282 281 279 279 278 282 284 284 282 283 287 288 289 291 295 298 299 301 301 300 300 299 299 300 304 308 326 335 337 336 329 329 326 328 328 330 332 333 332
282 287 285 285 284 284 278 284 284 282 280 275 284 275 282 285 287 293 293 292 292 292 293 294 295 297 296 296 299 302 306 311 324 334 333 331 330 329 331 331 332 332 333 333
281 283 283 282 283 286 282 287 285 283 281 281 280 275 278 285 289 290 290 291 291 291 290 291 292 294 296 296 297 300 306 309 312 316 331 329 329 329 325 327 328 331 328 329
284 287 285 285 287 287 288 285 284 284 282 275 280 277 276 285 289 289 290 290 290 291 291 292 293 294 294 296 297 299 302 305 308 312 314 320 328 323 323 324 326 327 327 327
282 283 286 288 283 286 284 280 272 270 270 274 283 276 280 286 289 289 289 289 290 290 291 291 291 292 294 294 295 298 299 301 303 306 308 311 315 321 325 325 327 325 325 326
276 276 282 287 285 281 281 280 274 271 273 276 285 277 281 287 289 289 290 290 290 290 290 291 291 292 292 293 294 295 296 298 299 302 303 307 310 316 322 328 326 326 326 326
280 279 287 289 289 287 281 279 284 279 280 277 282 282 286 287 285 285 286 287 288 288 289 289 291 291 292 292 293 294 295 296 297 298 301 304 307 311 317 324 326 326 325 323
287 279 288 290 291 290 286 290 280 279 273 273 279 278 277 280 282 283 283 284 286 288 288 289 290 290 291 292 292 293 294 294 295 297 298 301 303 306 309 318 327 324 324 324
290 286 284 288 285 283 285 283 285 285 282 276 274 275 284 281 283 281 283 284 285 286 286 288 289 290 291 291 291 291 291 292 293 295 296 298 300 302 306 319 325 325 322 323
290 287 280 284 291 292 291 285 285 277 276 281 275 274 286 284 284 284 284 285 285 285 285 286 287 288 288 289 290 290 290 290 292 294 295 296 297 299 301 304 311 323 322 322
290 286 279 279 287 290 287 288 289 287 284 280 274 274 285 284 283 284 283 284 284 285 285 285 286 286 287 287 288 288 289 289 290 291 292 293 294 295 297 299 303 314 322 322
294 286 280 275 279 286 283 287 289 286 277 277 276 276 279 280 281 282 283 283 283 283 283 284 283 284 286 287 287 287 287 288 289 290 289 290 292 293 294 296 297 299 304 320
290 283 284 283 283 283 282 284 286 283 282 277 276 275 277 279 280 281 283 282 281 281 281 282 282 283 284 285 286 286 286 287 288 288 288 288 290 292 292 294 295 295 295 297
290 283 285 281 286 282 278 280 282 283 281 279 278 275 281 282 282 280 281 281 279 279 279 280 281 282 282 284 285 284 284 285 286 285 286 288 289 289 290 290 292 292 293 293
285 284 282 277 283 282 276 279 279 281 281 282 276 278 280 278 278 279 279 281 278 278 278 278 279 280 281 282 284 284 283 284 283 283 284 285 286 287 288 288 289 289 289 290
285 285 283 280 282 271 279 285 284 280 281 282 280 279 279 279 279 280 280 280 278 278 277 278 278 278 280 282 283 285 283 282 282 281 282 283 284 284 286 286 286 287 288 287
289 285 283 278 276 279 280 281 281 281 278 282 282 281 280 282 282 277 279 279 279 278 278 278 278 278 279 279 282 283 284 280 279 279 279 281 282 282 283 283 284 285 285 285
287 286 284 280 276 272 277 281 285 285 275 282 281 279 279 283 274 274 277 277 276 277 277 277 277 277 276 277 280 281 281 282 277 277 278 279 280 281 281 282 282 284 285 284
280 281 278 279 276 277 280 284 287 277 275 283 281 278 279 276 276 276 276 274 275 276 276 277 276 275 275 276 278 278 279 279 281 280 278 278 280 280 280 282 283 283 283 283
277 277 276 278 275 272 283 284 279 282 284 284 281 281 277 277 277 277 274 274 275 274 275 275 275 274 275 275 276 276 277 280 281 280 279 278 278 280 280 280 281 281 281 282
277 279 277 277 276 282 283 282 283 282 280 281 281 280 279 277 276 276 275 274 274 273 273 274 273 274 274 275 275 275 276 280 280 280 279 278 278 278 280 279 280 280 280 279
283 285 279 279 280 281 281 282 281 281 280 281 280 279 278 276 276 275 274 273 272 272 272 273 273 272 272 274 275 275 276 279 279 279 279 279 277 277 277 278 279 278 279 279
281 282 278 279 282 282 281 280 281 280 281 280 279 278 277 276 275 274 273 273 272 271 271 272 272 271 271 272 273 273 275 278 278 278 278 278 278 276 276 276 277 277 278 279
282 281 278 272 282 280 280 280 281 279 279 279 277 276 276 275 273 273 272 272 271 270 271 270 271 271 270 271 271 272 274 277 276 276 276 276 276 275 275 274 274 278 279 279

GFSCGP_sfc_thetae_123.txt.gz
Theta_e
289 285 282 284 286 286 285 283 281 284 288 286 285 285 288 291 292 293 295 295 295 296 301 308 312 312 310 313 322 337 339 339 337 335 334 334 333 335 336 336 338 338 339 335
286 282 287 287 286 284 284 281 281 285 288 287 286 285 288 290 291 294 294 294 295 296 299 306 307 306 307 308 311 315 329 340 338 337 337 337 337 337 337 337 336 338 338 338
283 285 288 286 285 283 283 282 283 282 286 288 286 284 287 292 294 296 296 296 296 296 297 298 301 302 303 304 306 310 314 321 339 341 339 338 338 337 334 334 334 334 337 338
285 288 286 285 283 285 281 287 285 284 283 278 286 276 285 290 292 293 292 292 292 293 295 296 297 299 300 301 304 309 315 319 324 335 338 335 334 331 334 333 333 333 337 338
285 285 285 284 285 288 284 288 286 285 283 282 282 280 284 289 285 288 290 290 291 292 293 294 295 297 298 299 301 306 312 313 315 323 329 335 334 338 338 337 334 333 335 337
286 290 288 287 288 288 289 286 286 286 283 276 282 281 281 281 283 286 288 289 290 291 292 293 294 295 296 298 300 303 305 306 309 312 313 317 331 334 332 335 333 332 334 333
285 286 289 289 285 288 287 283 277 276 277 276 285 281 281 285 286 286 285 287 289 290 291 292 291 292 293 294 296 298 300 300 304 305 307 309 312 315 323 334 333 332 331 330
280 280 286 289 287 284 285 284 278 271 274 276 284 279 280 287 288 287 286 287 287 288 290 290 291 291 292 293 294 295 297 297 300 301 303 306 309 311 315 319 327 331 330 332
282 281 289 289 290 290 284 281 286 280 281 277 281 282 286 285 284 285 285 285 284 285 287 289 290 292 293 293 294 294 295 296 298 299 302 302 305 306 307 311 316 326 332 333
286 282 289 291 292 292 289 290 282 282 274 274 279 277 276 280 281 283 283 283 284 285 285 286 288 289 291 292 293 293 294 292 294 296 298 299 300 302 304 308 313 321 327 330
289 286 285 289 287 286 287 285 286 286 283 277 276 275 283 281 282 282 282 283 283 284 284 285 286 288 289 290 291 291 291 292 292 293 295 296 297 299 301 302 304 308 323 327
290 287 281 285 291 293 292 288 288 281 280 283 280 275 285 284 283 284 282 283 284 284 284 284 285 285 287 287 289 289 290 291 292 292 293 294 295 296 297 298 300 302 305 326
290 285 279 280 286 289 288 290 291 288 286 279 278 275 284 284 283 284 281 282 282 283 283 284 284 284 285 286 287 287 288 289 291 291 292 292 292 293 293 295 297 298 300 303
293 285 280 276 279 283 282 286 289 288 282 278 276 275 278 280 280 282 282 282 281 282 282 282 282 283 284 285 285 286 286 288 289 290 290 290 291 291 292 293 294 295 297 298
291 284 285 284 284 282 280 282 284 281 282 278 276 275 277 279 279 281 282 281 280 280 280 280 280 281 282 284 286 285 286 287 288 287 288 288 289 291 291 291 292 292 293 294
291 284 285 281 285 283 278 280 282 282 280 279 278 275 281 281 281 280 279 279 278 278 279 279 279 280 281 282 284 283 284 285 286 286 286 287 288 288 289 290 290 290 290 290
286 286 284 279 284 283 276 278 280 280 281 282 276 278 280 278 278 278 278 278 277 278 278 278 278 279 280 281 284 284 283 284 283 283 283 284 286 286 286 287 288 289 289 288
285 284 285 281 283 273 280 285 283 280 281 281 280 280 280 278 278 279 279 277 277 277 278 278 277 278 279 281 283 284 284 283 282 281 281 283 284 284 286 286 286 286 287 287
288 285 283 279 277 279 281 281 281 281 278 282 282 281 281 281 282 277 278 278 277 277 278 278 278 278 278 279 281 283 283 283 281 280 280 281 282 282 283 283 284 285 286 286
287 287 284 281 277 274 278 282 286 286 276 282 281 281 281 284 279 275 277 277 276 278 278 278 278 278 277 279 281 281 280 281 280 280 280 280 282 281 282 283 283 285 285 285
281 281 279 280 277 277 281 283 287 277 278 282 281 280 281 277 278 277 277 275 276 277 277 278 278 277 277 279 280 278 279 279 282 283 281 281 281 282 282 283 283 283 284 284
278 278 277 279 276 274 283 285 280 282 284 283 282 280 279 279 278 277 275 275 275 275 276 277 276 276 277 278 278 277 277 281 282 281 282 281 281 281 282 282 282 283 282 281
279 281 279 279 277 282 283 282 284 286 284 283 282 281 280 279 277 277 276 275 274 275 275 276 276 276 276 277 277 276 278 280 281 280 280 281 281 281 281 280 280 280 281 280
284 285 280 280 281 281 282 282 283 284 284 283 282 281 280 278 277 276 275 275 274 274 274 275 275 275 275 276 276 276 278 280 280 279 279 280 280 280 280 280 280 279 280 279
284 284 281 280 282 281 281 282 282 282 282 280 280 280 278 278 276 276 274 274 273 273 273 274 274 273 273 275 275 276 277 279 279 279 279 278 279 279 279 279 278 278 278 278
284 282 280 279 284 283 281 282 282 281 279 279 278 277 277 277 275 275 274 273 272 272 273 273 272 272 272 274 274 274 276 278 277 277 277 277 278 278 277 277 278 277 277 278

GFSCGP_sfc_thetae_126.txt.gz
Theta_e
294 291 289 291 291 290 288 287 286 290 293 290 290 290 293 296 297 297 299 300 301 302 305 305 306 310 316 318 320 318 325 340 342 340 337 337 337 339 339 340 342 342 339 339
292 289 291 291 290 288 288 286 287 290 292 291 290 290 294 295 297 300 300 300 301 302 303 305 309 311 313 314 316 319 327 333 342 341 338 338 338 338 339 340 341 342 342 341
289 290 291 290 290 288 289 287 287 287 290 292 290 288 291 295 299 296 298 298 298 296 298 302 304 308 310 311 312 315 322 335 340 341 341 339 339 339 338 339 338 340 341 342
291 292 290 290 288 289 285 291 289 287 286 283 291 281 289 293 294 293 292 293 293 293 294 296 299 302 303 305 308 313 320 324 333 337 339 340 338 336 339 340 341 340 341 341
290 290 290 288 289 290 287 291 289 288 287 287 286 284 288 291 287 288 289 289 290 291 292 293 295 298 299 300 302 306 312 318 324 331 328 336 338 340 341 339 339 338 338 341
292 295 292 292 292 292 292 290 290 290 288 281 285 286 285 283 283 286 288 288 289 288 290 292 294 296 296 299 299 302 304 307 313 319 318 323 333 339 337 338 337 336 336 336
291 290 293 293 290 292 290 287 283 280 281 280 287 285 280 285 286 286 286 287 288 289 287 289 290 292 294 296 297 300 300 301 305 309 311 313 316 321 324 326 330 335 334 335
287 284 290 294 291 289 289 288 282 275 278 281 287 282 281 287 288 288 287 287 287 287 286 286 288 290 292 293 296 296 297 298 301 303 306 308 311 313 315 315 319 321 327 335
284 286 293 293 295 293 289 285 290 284 286 282 286 283 287 288 286 286 285 285 284 285 285 286 287 288 289 292 292 294 295 295 297 300 303 304 305 309 312 314 319 319 323 325
289 283 292 293 295 295 292 294 284 286 278 277 284 280 280 282 282 284 283 283 284 284 284 284 285 287 288 290 293 294 295 295 295 296 300 301 302 304 305 308 308 307 312 316
291 288 288 292 290 288 290 289 288 288 287 280 280 279 284 282 283 282 282 283 283 283 284 283 284 285 287 287 289 291 293 294 294 295 295 297 298 300 300 300 300 301 304 309
292 289 284 287 294 296 294 290 290 284 282 286 285 279 286 284 285 284 283 283 283 284 284 284 284 284 285 285 287 288 290 292 293 294 294 294 294 295 295 296 297 298 300 302
293 287 283 285 291 291 288 290 292 291 291 285 282 279 285 285 284 284 282 282 283 283 284 283 283 283 283 285 285 287 288 290 292 293 292 292 292 293 293 293 294 295 296 297
295 289 284 281 280 285 282 286 290 288 286 284 280 278 280 282 282 283 282 282 282 282 283 283 283 283 283 285 284 285 286 288 291 291 292 291 291 291 292 293 293 292 293 292
293 285 285 286 286 285 283 283 285 283 284 282 279 277 279 280 281 281 282 281 281 281 281 282 281 282 283 283 285 286 286 288 289 289 290 292 293 291 291 292 293 293 292 291
293 286 287 284 287 285 281 283 284 283 282 281 280 277 282 282 282 281 280 280 279 280 280 280 281 281 282 283 284 286 286 286 288 287 288 290 292 294 292 291 291 292 292 291
289 287 286 283 285 285 279 280 282 283 284 284 280 280 282 280 279 279 279 279 279 279 280 279 279 280 281 282 284 284 287 287 287 286 286 287 290 290 292 293 292 291 289 290
288 287 286 285 285 277 281 286 285 282 283 284 282 282 283 281 280 280 280 279 279 279 279 280 279 279 281 283 284 285 286 286 285 284 284 285 287 287 289 289 289 290 290 289
292 288 286 283 282 281 282 284 283 283 280 284 284 283 283 282 284 280 280 280 279 280 281 281 282 281 281 282 284 283 283 283 283 282 282 283 284 285 285 285 286 288 288 287
290 292 286 285 279 277 282 284 287 288 280 284 285 285 285 284 282 280 279 280 279 281 282 282 282 283 282 282 284 283 282 282 282 283 283 283 284 284 283 284 285 286 287 287
285 286 284 284 281 281 284 286 289 279 279 285 285 285 286 283 281 279 279 279 279 281 281 283 282 281 282 283 283 282 283 282 283 284 284 284 284 284 284 284 285 285 285 285
283 283 283 284 281 278 285 286 283 285 287 287 286 286 283 282 281 280 278 279 279 280 281 282 281 281 282 282 282 281 281 284 285 284 284 284 284 283 283 283 284 285 285 285
283 286 285 282 281 285 286 287 290 290 287 286 286 286 285 282 281 280 280 279 279 280 281 281 281 281 281 281 281 280 282 284 284 284 283 284 284 285 285 283 282 282 283 283
286 288 285 283 282 284 285 287 288 289 288 287 286 285 285 282 282 280 280 279 279 279 279 280 280 279 279 280 280 280 282 283 283 282 282 283 283 283 284 283 281 279 279 279
289 289 284 281 283 285 285 286 287 286 286 285 285 284 283 282 281 280 279 278 278 278 278 278 278 277 278 279 279 280 281 282 281 281 281 281 282 282 282 282 281 279 278 278
290 287 286 286 286 287 285 287 287 284 283 283 282 281 282 282 280 280 278 278 278 277 277 277 276 276 277 278 278 278 280 280 280 279 280 280 281 281 281 281 281 278 277 277